<?xml version="1.0" encoding="UTF-8" standalone="no" ?>
<gpx xmlns="http://www.topografix.com/GPX/1/1" xmlns:xsi="http://www.w3.org/2001/XMLSchema-instance" xsi:schemaLocation="http://www.topografix.com/GPX/1/1 http://www.topografix.com/GPX/1/1/gpx.xsd" version="1.1" creator="VisuGPX - https://www.visugpx.com">
  <metadata>
    <name>161130HR3ROBJeunes</name>
    <desc><![CDATA[Beau temps et excellente sortie]]></desc>
  </metadata>
  <trk>
    <name><![CDATA[161130HR3ROBJeunes]]></name>
    <trkseg>
      <trkpt lat="43.41578" lon="6.0704">
        <ele>202.39999389648</ele>
        <time>2016-11-30T13:10:44Z</time>
      </trkpt>
      <trkpt lat="43.41578" lon="6.07041">
        <ele>202</ele>
        <time>2016-11-30T13:10:49Z</time>
      </trkpt>
      <trkpt lat="43.41578" lon="6.07042">
        <ele>202</ele>
        <time>2016-11-30T13:10:50Z</time>
      </trkpt>
      <trkpt lat="43.41576" lon="6.0704">
        <ele>202.39999389648</ele>
        <time>2016-11-30T13:11:00Z</time>
      </trkpt>
      <trkpt lat="43.41576" lon="6.0704">
        <ele>202.19999694824</ele>
        <time>2016-11-30T13:11:10Z</time>
      </trkpt>
      <trkpt lat="43.41576" lon="6.07039">
        <ele>202.19999694824</ele>
        <time>2016-11-30T13:11:14Z</time>
      </trkpt>
      <trkpt lat="43.41576" lon="6.07039">
        <ele>202.19999694824</ele>
        <time>2016-11-30T13:11:17Z</time>
      </trkpt>
      <trkpt lat="43.41576" lon="6.07039">
        <ele>202.39999389648</ele>
        <time>2016-11-30T13:11:20Z</time>
      </trkpt>
      <trkpt lat="43.41576" lon="6.07039">
        <ele>202.39999389648</ele>
        <time>2016-11-30T13:11:26Z</time>
      </trkpt>
      <trkpt lat="43.41576" lon="6.07039">
        <ele>202.39999389648</ele>
        <time>2016-11-30T13:11:30Z</time>
      </trkpt>
      <trkpt lat="43.41577" lon="6.07038">
        <ele>202.19999694824</ele>
        <time>2016-11-30T13:11:36Z</time>
      </trkpt>
      <trkpt lat="43.41577" lon="6.07038">
        <ele>202.39999389648</ele>
        <time>2016-11-30T13:11:40Z</time>
      </trkpt>
      <trkpt lat="43.41578" lon="6.07039">
        <ele>202.39999389648</ele>
        <time>2016-11-30T13:12:00Z</time>
      </trkpt>
      <trkpt lat="43.41578" lon="6.07039">
        <ele>201.80000305176</ele>
        <time>2016-11-30T13:12:10Z</time>
      </trkpt>
      <trkpt lat="43.41579" lon="6.07039">
        <ele>201.80000305176</ele>
        <time>2016-11-30T13:12:15Z</time>
      </trkpt>
      <trkpt lat="43.41579" lon="6.07039">
        <ele>202</ele>
        <time>2016-11-30T13:12:19Z</time>
      </trkpt>
      <trkpt lat="43.41579" lon="6.07038">
        <ele>202</ele>
        <time>2016-11-30T13:12:23Z</time>
      </trkpt>
      <trkpt lat="43.41578" lon="6.0704">
        <ele>202</ele>
        <time>2016-11-30T13:12:30Z</time>
      </trkpt>
      <trkpt lat="43.41578" lon="6.0704">
        <ele>202.60000610352</ele>
        <time>2016-11-30T13:12:40Z</time>
      </trkpt>
      <trkpt lat="43.41578" lon="6.0704">
        <ele>202.80000305176</ele>
        <time>2016-11-30T13:12:50Z</time>
      </trkpt>
      <trkpt lat="43.41578" lon="6.0704">
        <ele>202.80000305176</ele>
        <time>2016-11-30T13:12:55Z</time>
      </trkpt>
      <trkpt lat="43.41578" lon="6.07041">
        <ele>202.80000305176</ele>
        <time>2016-11-30T13:12:58Z</time>
      </trkpt>
      <trkpt lat="43.41578" lon="6.07042">
        <ele>202.80000305176</ele>
        <time>2016-11-30T13:13:00Z</time>
      </trkpt>
      <trkpt lat="43.41579" lon="6.07046">
        <ele>202.60000610352</ele>
        <time>2016-11-30T13:13:02Z</time>
      </trkpt>
      <trkpt lat="43.4158" lon="6.07049">
        <ele>202.60000610352</ele>
        <time>2016-11-30T13:13:03Z</time>
      </trkpt>
      <trkpt lat="43.4158" lon="6.07052">
        <ele>202.60000610352</ele>
        <time>2016-11-30T13:13:04Z</time>
      </trkpt>
      <trkpt lat="43.41586" lon="6.0707">
        <ele>202.19999694824</ele>
        <time>2016-11-30T13:13:10Z</time>
      </trkpt>
      <trkpt lat="43.41586" lon="6.07084">
        <ele>202.19999694824</ele>
        <time>2016-11-30T13:13:13Z</time>
      </trkpt>
      <trkpt lat="43.41587" lon="6.07095">
        <ele>202</ele>
        <time>2016-11-30T13:13:15Z</time>
      </trkpt>
      <trkpt lat="43.41586" lon="6.0711">
        <ele>202</ele>
        <time>2016-11-30T13:13:19Z</time>
      </trkpt>
      <trkpt lat="43.41584" lon="6.07111">
        <ele>202</ele>
        <time>2016-11-30T13:13:20Z</time>
      </trkpt>
      <trkpt lat="43.41582" lon="6.07112">
        <ele>202.19999694824</ele>
        <time>2016-11-30T13:13:21Z</time>
      </trkpt>
      <trkpt lat="43.41549" lon="6.0712">
        <ele>202</ele>
        <time>2016-11-30T13:13:30Z</time>
      </trkpt>
      <trkpt lat="43.41547" lon="6.0712">
        <ele>201.80000305176</ele>
        <time>2016-11-30T13:13:31Z</time>
      </trkpt>
      <trkpt lat="43.41541" lon="6.07123">
        <ele>201.39999389648</ele>
        <time>2016-11-30T13:13:33Z</time>
      </trkpt>
      <trkpt lat="43.41531" lon="6.0713">
        <ele>200.80000305176</ele>
        <time>2016-11-30T13:13:36Z</time>
      </trkpt>
      <trkpt lat="43.41517" lon="6.07142">
        <ele>200.39999389648</ele>
        <time>2016-11-30T13:13:40Z</time>
      </trkpt>
      <trkpt lat="43.41514" lon="6.07146">
        <ele>200.39999389648</ele>
        <time>2016-11-30T13:13:41Z</time>
      </trkpt>
      <trkpt lat="43.41511" lon="6.07157">
        <ele>200</ele>
        <time>2016-11-30T13:13:43Z</time>
      </trkpt>
      <trkpt lat="43.41511" lon="6.07169">
        <ele>199.80000305176</ele>
        <time>2016-11-30T13:13:45Z</time>
      </trkpt>
      <trkpt lat="43.4151" lon="6.07185">
        <ele>199.39999389648</ele>
        <time>2016-11-30T13:13:48Z</time>
      </trkpt>
      <trkpt lat="43.41505" lon="6.07191">
        <ele>199.60000610352</ele>
        <time>2016-11-30T13:13:50Z</time>
      </trkpt>
      <trkpt lat="43.415" lon="6.07202">
        <ele>199.60000610352</ele>
        <time>2016-11-30T13:13:53Z</time>
      </trkpt>
      <trkpt lat="43.41499" lon="6.0721">
        <ele>199.60000610352</ele>
        <time>2016-11-30T13:13:56Z</time>
      </trkpt>
      <trkpt lat="43.41498" lon="6.07212">
        <ele>199.60000610352</ele>
        <time>2016-11-30T13:13:57Z</time>
      </trkpt>
      <trkpt lat="43.41494" lon="6.07218">
        <ele>199.19999694824</ele>
        <time>2016-11-30T13:14:00Z</time>
      </trkpt>
      <trkpt lat="43.4149" lon="6.07221">
        <ele>199</ele>
        <time>2016-11-30T13:14:03Z</time>
      </trkpt>
      <trkpt lat="43.41489" lon="6.07223">
        <ele>199</ele>
        <time>2016-11-30T13:14:05Z</time>
      </trkpt>
      <trkpt lat="43.4149" lon="6.07224">
        <ele>199</ele>
        <time>2016-11-30T13:14:07Z</time>
      </trkpt>
      <trkpt lat="43.41491" lon="6.07223">
        <ele>199</ele>
        <time>2016-11-30T13:14:08Z</time>
      </trkpt>
      <trkpt lat="43.41491" lon="6.07221">
        <ele>199</ele>
        <time>2016-11-30T13:14:09Z</time>
      </trkpt>
      <trkpt lat="43.41491" lon="6.0722">
        <ele>199.19999694824</ele>
        <time>2016-11-30T13:14:10Z</time>
      </trkpt>
      <trkpt lat="43.4149" lon="6.07218">
        <ele>199</ele>
        <time>2016-11-30T13:14:11Z</time>
      </trkpt>
      <trkpt lat="43.41483" lon="6.07217">
        <ele>199.39999389648</ele>
        <time>2016-11-30T13:14:14Z</time>
      </trkpt>
      <trkpt lat="43.41465" lon="6.0722">
        <ele>199.39999389648</ele>
        <time>2016-11-30T13:14:20Z</time>
      </trkpt>
      <trkpt lat="43.41447" lon="6.0722">
        <ele>199.60000610352</ele>
        <time>2016-11-30T13:14:25Z</time>
      </trkpt>
      <trkpt lat="43.41444" lon="6.07221">
        <ele>199.60000610352</ele>
        <time>2016-11-30T13:14:26Z</time>
      </trkpt>
      <trkpt lat="43.4143" lon="6.07227">
        <ele>199.60000610352</ele>
        <time>2016-11-30T13:14:30Z</time>
      </trkpt>
      <trkpt lat="43.41423" lon="6.07239">
        <ele>199.80000305176</ele>
        <time>2016-11-30T13:14:33Z</time>
      </trkpt>
      <trkpt lat="43.41416" lon="6.07252">
        <ele>199.60000610352</ele>
        <time>2016-11-30T13:14:36Z</time>
      </trkpt>
      <trkpt lat="43.41413" lon="6.07256">
        <ele>199.60000610352</ele>
        <time>2016-11-30T13:14:37Z</time>
      </trkpt>
      <trkpt lat="43.41405" lon="6.07269">
        <ele>199.60000610352</ele>
        <time>2016-11-30T13:14:40Z</time>
      </trkpt>
      <trkpt lat="43.41398" lon="6.07295">
        <ele>199</ele>
        <time>2016-11-30T13:14:45Z</time>
      </trkpt>
      <trkpt lat="43.41398" lon="6.07306">
        <ele>198.80000305176</ele>
        <time>2016-11-30T13:14:47Z</time>
      </trkpt>
      <trkpt lat="43.41407" lon="6.07311">
        <ele>199</ele>
        <time>2016-11-30T13:14:50Z</time>
      </trkpt>
      <trkpt lat="43.41418" lon="6.07322">
        <ele>199.19999694824</ele>
        <time>2016-11-30T13:14:54Z</time>
      </trkpt>
      <trkpt lat="43.41423" lon="6.07318">
        <ele>199.39999389648</ele>
        <time>2016-11-30T13:14:56Z</time>
      </trkpt>
      <trkpt lat="43.41424" lon="6.07314">
        <ele>199.39999389648</ele>
        <time>2016-11-30T13:14:57Z</time>
      </trkpt>
      <trkpt lat="43.41423" lon="6.07306">
        <ele>199.19999694824</ele>
        <time>2016-11-30T13:14:59Z</time>
      </trkpt>
      <trkpt lat="43.41414" lon="6.07279">
        <ele>198.60000610352</ele>
        <time>2016-11-30T13:15:05Z</time>
      </trkpt>
      <trkpt lat="43.41421" lon="6.07258">
        <ele>198.80000305176</ele>
        <time>2016-11-30T13:15:10Z</time>
      </trkpt>
      <trkpt lat="43.41425" lon="6.07257">
        <ele>199</ele>
        <time>2016-11-30T13:15:11Z</time>
      </trkpt>
      <trkpt lat="43.41428" lon="6.07258">
        <ele>199.19999694824</ele>
        <time>2016-11-30T13:15:12Z</time>
      </trkpt>
      <trkpt lat="43.4145" lon="6.07287">
        <ele>199.39999389648</ele>
        <time>2016-11-30T13:15:20Z</time>
      </trkpt>
      <trkpt lat="43.41454" lon="6.07288">
        <ele>199.60000610352</ele>
        <time>2016-11-30T13:15:21Z</time>
      </trkpt>
      <trkpt lat="43.41457" lon="6.07287">
        <ele>199.60000610352</ele>
        <time>2016-11-30T13:15:22Z</time>
      </trkpt>
      <trkpt lat="43.41471" lon="6.07254">
        <ele>199.39999389648</ele>
        <time>2016-11-30T13:15:30Z</time>
      </trkpt>
      <trkpt lat="43.41478" lon="6.07245">
        <ele>199.60000610352</ele>
        <time>2016-11-30T13:15:33Z</time>
      </trkpt>
      <trkpt lat="43.41495" lon="6.07218">
        <ele>199.19999694824</ele>
        <time>2016-11-30T13:15:40Z</time>
      </trkpt>
      <trkpt lat="43.41511" lon="6.07214">
        <ele>199.60000610352</ele>
        <time>2016-11-30T13:15:44Z</time>
      </trkpt>
      <trkpt lat="43.41515" lon="6.07213">
        <ele>199.60000610352</ele>
        <time>2016-11-30T13:15:45Z</time>
      </trkpt>
      <trkpt lat="43.41526" lon="6.07209">
        <ele>199.80000305176</ele>
        <time>2016-11-30T13:15:48Z</time>
      </trkpt>
      <trkpt lat="43.41528" lon="6.072">
        <ele>200</ele>
        <time>2016-11-30T13:15:50Z</time>
      </trkpt>
      <trkpt lat="43.41526" lon="6.07186">
        <ele>200</ele>
        <time>2016-11-30T13:15:53Z</time>
      </trkpt>
      <trkpt lat="43.41514" lon="6.07176">
        <ele>200.80000305176</ele>
        <time>2016-11-30T13:15:58Z</time>
      </trkpt>
      <trkpt lat="43.41513" lon="6.07173">
        <ele>199.60000610352</ele>
        <time>2016-11-30T13:15:59Z</time>
      </trkpt>
      <trkpt lat="43.41512" lon="6.0717">
        <ele>199.60000610352</ele>
        <time>2016-11-30T13:16:00Z</time>
      </trkpt>
      <trkpt lat="43.41511" lon="6.07154">
        <ele>198.60000610352</ele>
        <time>2016-11-30T13:16:04Z</time>
      </trkpt>
      <trkpt lat="43.4152" lon="6.07139">
        <ele>199.60000610352</ele>
        <time>2016-11-30T13:16:09Z</time>
      </trkpt>
      <trkpt lat="43.41522" lon="6.07137">
        <ele>199.80000305176</ele>
        <time>2016-11-30T13:16:10Z</time>
      </trkpt>
      <trkpt lat="43.41524" lon="6.07135">
        <ele>200.80000305176</ele>
        <time>2016-11-30T13:16:11Z</time>
      </trkpt>
      <trkpt lat="43.41546" lon="6.07123">
        <ele>201.60000610352</ele>
        <time>2016-11-30T13:16:18Z</time>
      </trkpt>
      <trkpt lat="43.41549" lon="6.07126">
        <ele>201.60000610352</ele>
        <time>2016-11-30T13:16:20Z</time>
      </trkpt>
      <trkpt lat="43.4155" lon="6.07141">
        <ele>201.80000305176</ele>
        <time>2016-11-30T13:16:27Z</time>
      </trkpt>
      <trkpt lat="43.41549" lon="6.07143">
        <ele>202.19999694824</ele>
        <time>2016-11-30T13:16:30Z</time>
      </trkpt>
      <trkpt lat="43.4155" lon="6.07144">
        <ele>202.60000610352</ele>
        <time>2016-11-30T13:16:33Z</time>
      </trkpt>
      <trkpt lat="43.41551" lon="6.07146">
        <ele>202.80000305176</ele>
        <time>2016-11-30T13:16:36Z</time>
      </trkpt>
      <trkpt lat="43.41553" lon="6.07146">
        <ele>203.19999694824</ele>
        <time>2016-11-30T13:16:38Z</time>
      </trkpt>
      <trkpt lat="43.41556" lon="6.07145">
        <ele>203.19999694824</ele>
        <time>2016-11-30T13:16:40Z</time>
      </trkpt>
      <trkpt lat="43.41581" lon="6.07144">
        <ele>203.39999389648</ele>
        <time>2016-11-30T13:16:50Z</time>
      </trkpt>
      <trkpt lat="43.41593" lon="6.07143">
        <ele>203.19999694824</ele>
        <time>2016-11-30T13:16:54Z</time>
      </trkpt>
      <trkpt lat="43.41596" lon="6.0714">
        <ele>203.39999389648</ele>
        <time>2016-11-30T13:16:56Z</time>
      </trkpt>
      <trkpt lat="43.41597" lon="6.07135">
        <ele>203.60000610352</ele>
        <time>2016-11-30T13:16:58Z</time>
      </trkpt>
      <trkpt lat="43.4159" lon="6.07087">
        <ele>202.80000305176</ele>
        <time>2016-11-30T13:17:10Z</time>
      </trkpt>
      <trkpt lat="43.41589" lon="6.07076">
        <ele>202.19999694824</ele>
        <time>2016-11-30T13:17:12Z</time>
      </trkpt>
      <trkpt lat="43.41584" lon="6.07059">
        <ele>202.19999694824</ele>
        <time>2016-11-30T13:17:15Z</time>
      </trkpt>
      <trkpt lat="43.41581" lon="6.07026">
        <ele>202.39999389648</ele>
        <time>2016-11-30T13:17:20Z</time>
      </trkpt>
      <trkpt lat="43.41577" lon="6.0699">
        <ele>202.39999389648</ele>
        <time>2016-11-30T13:17:25Z</time>
      </trkpt>
      <trkpt lat="43.41572" lon="6.06977">
        <ele>202.80000305176</ele>
        <time>2016-11-30T13:17:28Z</time>
      </trkpt>
      <trkpt lat="43.41565" lon="6.06973">
        <ele>203</ele>
        <time>2016-11-30T13:17:30Z</time>
      </trkpt>
      <trkpt lat="43.41557" lon="6.06974">
        <ele>202.80000305176</ele>
        <time>2016-11-30T13:17:32Z</time>
      </trkpt>
      <trkpt lat="43.41548" lon="6.06975">
        <ele>202.19999694824</ele>
        <time>2016-11-30T13:17:34Z</time>
      </trkpt>
      <trkpt lat="43.41544" lon="6.06975">
        <ele>202</ele>
        <time>2016-11-30T13:17:35Z</time>
      </trkpt>
      <trkpt lat="43.41537" lon="6.06979">
        <ele>202</ele>
        <time>2016-11-30T13:17:37Z</time>
      </trkpt>
      <trkpt lat="43.41536" lon="6.06983">
        <ele>201.80000305176</ele>
        <time>2016-11-30T13:17:38Z</time>
      </trkpt>
      <trkpt lat="43.41536" lon="6.06988">
        <ele>202</ele>
        <time>2016-11-30T13:17:39Z</time>
      </trkpt>
      <trkpt lat="43.41536" lon="6.06994">
        <ele>202</ele>
        <time>2016-11-30T13:17:40Z</time>
      </trkpt>
      <trkpt lat="43.41543" lon="6.07049">
        <ele>202.19999694824</ele>
        <time>2016-11-30T13:17:50Z</time>
      </trkpt>
      <trkpt lat="43.41545" lon="6.07065">
        <ele>202.19999694824</ele>
        <time>2016-11-30T13:17:53Z</time>
      </trkpt>
      <trkpt lat="43.4155" lon="6.071">
        <ele>202.39999389648</ele>
        <time>2016-11-30T13:18:00Z</time>
      </trkpt>
      <trkpt lat="43.41552" lon="6.07111">
        <ele>202.39999389648</ele>
        <time>2016-11-30T13:18:03Z</time>
      </trkpt>
      <trkpt lat="43.41552" lon="6.07114">
        <ele>202.39999389648</ele>
        <time>2016-11-30T13:18:04Z</time>
      </trkpt>
      <trkpt lat="43.41554" lon="6.07116">
        <ele>202.39999389648</ele>
        <time>2016-11-30T13:18:05Z</time>
      </trkpt>
      <trkpt lat="43.41557" lon="6.07118">
        <ele>202.60000610352</ele>
        <time>2016-11-30T13:18:08Z</time>
      </trkpt>
      <trkpt lat="43.41559" lon="6.07119">
        <ele>202.60000610352</ele>
        <time>2016-11-30T13:18:10Z</time>
      </trkpt>
      <trkpt lat="43.4156" lon="6.07121">
        <ele>202.80000305176</ele>
        <time>2016-11-30T13:18:12Z</time>
      </trkpt>
      <trkpt lat="43.41564" lon="6.07124">
        <ele>202.80000305176</ele>
        <time>2016-11-30T13:18:17Z</time>
      </trkpt>
      <trkpt lat="43.41561" lon="6.07126">
        <ele>202.60000610352</ele>
        <time>2016-11-30T13:18:20Z</time>
      </trkpt>
      <trkpt lat="43.41556" lon="6.07124">
        <ele>202.39999389648</ele>
        <time>2016-11-30T13:18:23Z</time>
      </trkpt>
      <trkpt lat="43.41549" lon="6.07102">
        <ele>202.19999694824</ele>
        <time>2016-11-30T13:18:30Z</time>
      </trkpt>
      <trkpt lat="43.41545" lon="6.07091">
        <ele>201.80000305176</ele>
        <time>2016-11-30T13:18:33Z</time>
      </trkpt>
      <trkpt lat="43.41544" lon="6.07085">
        <ele>202.19999694824</ele>
        <time>2016-11-30T13:18:35Z</time>
      </trkpt>
      <trkpt lat="43.41538" lon="6.07079">
        <ele>202.19999694824</ele>
        <time>2016-11-30T13:18:40Z</time>
      </trkpt>
      <trkpt lat="43.41538" lon="6.07078">
        <ele>202</ele>
        <time>2016-11-30T13:18:43Z</time>
      </trkpt>
      <trkpt lat="43.41538" lon="6.07078">
        <ele>202</ele>
        <time>2016-11-30T13:18:45Z</time>
      </trkpt>
      <trkpt lat="43.41538" lon="6.07078">
        <ele>202</ele>
        <time>2016-11-30T13:18:48Z</time>
      </trkpt>
      <trkpt lat="43.41538" lon="6.07077">
        <ele>202</ele>
        <time>2016-11-30T13:18:50Z</time>
      </trkpt>
      <trkpt lat="43.41537" lon="6.07076">
        <ele>202.19999694824</ele>
        <time>2016-11-30T13:18:51Z</time>
      </trkpt>
      <trkpt lat="43.41534" lon="6.07075">
        <ele>202</ele>
        <time>2016-11-30T13:18:53Z</time>
      </trkpt>
      <trkpt lat="43.41513" lon="6.07082">
        <ele>201.19999694824</ele>
        <time>2016-11-30T13:19:00Z</time>
      </trkpt>
      <trkpt lat="43.41505" lon="6.07085">
        <ele>201.19999694824</ele>
        <time>2016-11-30T13:19:03Z</time>
      </trkpt>
      <trkpt lat="43.41499" lon="6.0709">
        <ele>200.80000305176</ele>
        <time>2016-11-30T13:19:06Z</time>
      </trkpt>
      <trkpt lat="43.41499" lon="6.071">
        <ele>200.80000305176</ele>
        <time>2016-11-30T13:19:09Z</time>
      </trkpt>
      <trkpt lat="43.41499" lon="6.07104">
        <ele>200.80000305176</ele>
        <time>2016-11-30T13:19:10Z</time>
      </trkpt>
      <trkpt lat="43.41499" lon="6.07118">
        <ele>200.60000610352</ele>
        <time>2016-11-30T13:19:14Z</time>
      </trkpt>
      <trkpt lat="43.41497" lon="6.07121">
        <ele>200.60000610352</ele>
        <time>2016-11-30T13:19:15Z</time>
      </trkpt>
      <trkpt lat="43.41488" lon="6.07138">
        <ele>200.60000610352</ele>
        <time>2016-11-30T13:19:20Z</time>
      </trkpt>
      <trkpt lat="43.41489" lon="6.07175">
        <ele>201</ele>
        <time>2016-11-30T13:19:30Z</time>
      </trkpt>
      <trkpt lat="43.41496" lon="6.07193">
        <ele>200.39999389648</ele>
        <time>2016-11-30T13:19:37Z</time>
      </trkpt>
      <trkpt lat="43.41493" lon="6.07203">
        <ele>200.60000610352</ele>
        <time>2016-11-30T13:19:41Z</time>
      </trkpt>
      <trkpt lat="43.41491" lon="6.07212">
        <ele>200.39999389648</ele>
        <time>2016-11-30T13:19:45Z</time>
      </trkpt>
      <trkpt lat="43.41493" lon="6.07217">
        <ele>199.60000610352</ele>
        <time>2016-11-30T13:19:48Z</time>
      </trkpt>
      <trkpt lat="43.41495" lon="6.07218">
        <ele>199.39999389648</ele>
        <time>2016-11-30T13:19:50Z</time>
      </trkpt>
      <trkpt lat="43.41496" lon="6.07218">
        <ele>199.60000610352</ele>
        <time>2016-11-30T13:19:57Z</time>
      </trkpt>
      <trkpt lat="43.41496" lon="6.07218">
        <ele>199.39999389648</ele>
        <time>2016-11-30T13:20:00Z</time>
      </trkpt>
      <trkpt lat="43.41496" lon="6.07217">
        <ele>199.19999694824</ele>
        <time>2016-11-30T13:20:03Z</time>
      </trkpt>
      <trkpt lat="43.41496" lon="6.07217">
        <ele>199.39999389648</ele>
        <time>2016-11-30T13:20:09Z</time>
      </trkpt>
      <trkpt lat="43.41496" lon="6.07217">
        <ele>199.39999389648</ele>
        <time>2016-11-30T13:20:10Z</time>
      </trkpt>
      <trkpt lat="43.41495" lon="6.07217">
        <ele>199.39999389648</ele>
        <time>2016-11-30T13:20:12Z</time>
      </trkpt>
      <trkpt lat="43.41495" lon="6.07217">
        <ele>199.60000610352</ele>
        <time>2016-11-30T13:20:16Z</time>
      </trkpt>
      <trkpt lat="43.41495" lon="6.07217">
        <ele>200</ele>
        <time>2016-11-30T13:20:20Z</time>
      </trkpt>
      <trkpt lat="43.41495" lon="6.07216">
        <ele>200</ele>
        <time>2016-11-30T13:20:28Z</time>
      </trkpt>
      <trkpt lat="43.41495" lon="6.07216">
        <ele>199.80000305176</ele>
        <time>2016-11-30T13:20:30Z</time>
      </trkpt>
      <trkpt lat="43.41495" lon="6.07217">
        <ele>199.80000305176</ele>
        <time>2016-11-30T13:20:47Z</time>
      </trkpt>
      <trkpt lat="43.41495" lon="6.07217">
        <ele>199.80000305176</ele>
        <time>2016-11-30T13:20:50Z</time>
      </trkpt>
      <trkpt lat="43.41495" lon="6.07217">
        <ele>199.80000305176</ele>
        <time>2016-11-30T13:21:00Z</time>
      </trkpt>
      <trkpt lat="43.41495" lon="6.07217">
        <ele>199.80000305176</ele>
        <time>2016-11-30T13:21:20Z</time>
      </trkpt>
      <trkpt lat="43.41495" lon="6.07218">
        <ele>199.80000305176</ele>
        <time>2016-11-30T13:21:37Z</time>
      </trkpt>
      <trkpt lat="43.41494" lon="6.07218">
        <ele>199.80000305176</ele>
        <time>2016-11-30T13:21:40Z</time>
      </trkpt>
      <trkpt lat="43.41497" lon="6.07217">
        <ele>199.80000305176</ele>
        <time>2016-11-30T13:21:47Z</time>
      </trkpt>
      <trkpt lat="43.41499" lon="6.07217">
        <ele>199.80000305176</ele>
        <time>2016-11-30T13:21:48Z</time>
      </trkpt>
      <trkpt lat="43.41502" lon="6.07215">
        <ele>199.80000305176</ele>
        <time>2016-11-30T13:21:50Z</time>
      </trkpt>
      <trkpt lat="43.41523" lon="6.07213">
        <ele>200</ele>
        <time>2016-11-30T13:22:00Z</time>
      </trkpt>
      <trkpt lat="43.41526" lon="6.07211">
        <ele>200</ele>
        <time>2016-11-30T13:22:02Z</time>
      </trkpt>
      <trkpt lat="43.41529" lon="6.07191">
        <ele>200</ele>
        <time>2016-11-30T13:22:10Z</time>
      </trkpt>
      <trkpt lat="43.41526" lon="6.07186">
        <ele>200.39999389648</ele>
        <time>2016-11-30T13:22:12Z</time>
      </trkpt>
      <trkpt lat="43.41524" lon="6.07185">
        <ele>201</ele>
        <time>2016-11-30T13:22:13Z</time>
      </trkpt>
      <trkpt lat="43.41521" lon="6.07184">
        <ele>200.80000305176</ele>
        <time>2016-11-30T13:22:14Z</time>
      </trkpt>
      <trkpt lat="43.41516" lon="6.07184">
        <ele>200.80000305176</ele>
        <time>2016-11-30T13:22:16Z</time>
      </trkpt>
      <trkpt lat="43.41504" lon="6.07185">
        <ele>201.19999694824</ele>
        <time>2016-11-30T13:22:20Z</time>
      </trkpt>
      <trkpt lat="43.41489" lon="6.0718">
        <ele>201.19999694824</ele>
        <time>2016-11-30T13:22:26Z</time>
      </trkpt>
      <trkpt lat="43.41485" lon="6.07162">
        <ele>201.19999694824</ele>
        <time>2016-11-30T13:22:30Z</time>
      </trkpt>
      <trkpt lat="43.41494" lon="6.07121">
        <ele>201.19999694824</ele>
        <time>2016-11-30T13:22:40Z</time>
      </trkpt>
      <trkpt lat="43.41496" lon="6.07113">
        <ele>201.19999694824</ele>
        <time>2016-11-30T13:22:42Z</time>
      </trkpt>
      <trkpt lat="43.41495" lon="6.07085">
        <ele>201.39999389648</ele>
        <time>2016-11-30T13:22:49Z</time>
      </trkpt>
      <trkpt lat="43.41493" lon="6.07082">
        <ele>201.60000610352</ele>
        <time>2016-11-30T13:22:50Z</time>
      </trkpt>
      <trkpt lat="43.4149" lon="6.07078">
        <ele>201.60000610352</ele>
        <time>2016-11-30T13:22:52Z</time>
      </trkpt>
      <trkpt lat="43.41482" lon="6.07074">
        <ele>201.60000610352</ele>
        <time>2016-11-30T13:22:56Z</time>
      </trkpt>
      <trkpt lat="43.41472" lon="6.07071">
        <ele>201.60000610352</ele>
        <time>2016-11-30T13:23:03Z</time>
      </trkpt>
      <trkpt lat="43.41469" lon="6.07065">
        <ele>200.80000305176</ele>
        <time>2016-11-30T13:23:08Z</time>
      </trkpt>
      <trkpt lat="43.4147" lon="6.07059">
        <ele>200.60000610352</ele>
        <time>2016-11-30T13:23:10Z</time>
      </trkpt>
      <trkpt lat="43.41488" lon="6.07021">
        <ele>200.60000610352</ele>
        <time>2016-11-30T13:23:20Z</time>
      </trkpt>
      <trkpt lat="43.41495" lon="6.07004">
        <ele>201</ele>
        <time>2016-11-30T13:23:24Z</time>
      </trkpt>
      <trkpt lat="43.41494" lon="6.06976">
        <ele>201.80000305176</ele>
        <time>2016-11-30T13:23:30Z</time>
      </trkpt>
      <trkpt lat="43.41484" lon="6.06956">
        <ele>202</ele>
        <time>2016-11-30T13:23:35Z</time>
      </trkpt>
      <trkpt lat="43.41473" lon="6.06936">
        <ele>202.39999389648</ele>
        <time>2016-11-30T13:23:40Z</time>
      </trkpt>
      <trkpt lat="43.41464" lon="6.06922">
        <ele>203.19999694824</ele>
        <time>2016-11-30T13:23:45Z</time>
      </trkpt>
      <trkpt lat="43.41465" lon="6.06912">
        <ele>203.19999694824</ele>
        <time>2016-11-30T13:23:50Z</time>
      </trkpt>
      <trkpt lat="43.41464" lon="6.06874">
        <ele>203.19999694824</ele>
        <time>2016-11-30T13:24:00Z</time>
      </trkpt>
      <trkpt lat="43.41452" lon="6.0686">
        <ele>203.19999694824</ele>
        <time>2016-11-30T13:24:04Z</time>
      </trkpt>
      <trkpt lat="43.41444" lon="6.06857">
        <ele>203.19999694824</ele>
        <time>2016-11-30T13:24:06Z</time>
      </trkpt>
      <trkpt lat="43.41425" lon="6.06858">
        <ele>203</ele>
        <time>2016-11-30T13:24:10Z</time>
      </trkpt>
      <trkpt lat="43.41419" lon="6.06858">
        <ele>203</ele>
        <time>2016-11-30T13:24:11Z</time>
      </trkpt>
      <trkpt lat="43.4141" lon="6.06853">
        <ele>203</ele>
        <time>2016-11-30T13:24:13Z</time>
      </trkpt>
      <trkpt lat="43.41384" lon="6.0683">
        <ele>203.19999694824</ele>
        <time>2016-11-30T13:24:19Z</time>
      </trkpt>
      <trkpt lat="43.41379" lon="6.06828">
        <ele>203.19999694824</ele>
        <time>2016-11-30T13:24:20Z</time>
      </trkpt>
      <trkpt lat="43.41333" lon="6.06804">
        <ele>203</ele>
        <time>2016-11-30T13:24:30Z</time>
      </trkpt>
      <trkpt lat="43.41318" lon="6.06794">
        <ele>202.60000610352</ele>
        <time>2016-11-30T13:24:33Z</time>
      </trkpt>
      <trkpt lat="43.41307" lon="6.06785">
        <ele>202.39999389648</ele>
        <time>2016-11-30T13:24:35Z</time>
      </trkpt>
      <trkpt lat="43.41302" lon="6.06781">
        <ele>202.39999389648</ele>
        <time>2016-11-30T13:24:36Z</time>
      </trkpt>
      <trkpt lat="43.41293" lon="6.0677">
        <ele>201.80000305176</ele>
        <time>2016-11-30T13:24:38Z</time>
      </trkpt>
      <trkpt lat="43.41282" lon="6.0675">
        <ele>201.19999694824</ele>
        <time>2016-11-30T13:24:41Z</time>
      </trkpt>
      <trkpt lat="43.41279" lon="6.06742">
        <ele>201</ele>
        <time>2016-11-30T13:24:42Z</time>
      </trkpt>
      <trkpt lat="43.41278" lon="6.06734">
        <ele>200.80000305176</ele>
        <time>2016-11-30T13:24:43Z</time>
      </trkpt>
      <trkpt lat="43.41275" lon="6.06719">
        <ele>200.80000305176</ele>
        <time>2016-11-30T13:24:45Z</time>
      </trkpt>
      <trkpt lat="43.41273" lon="6.06699">
        <ele>201.19999694824</ele>
        <time>2016-11-30T13:24:48Z</time>
      </trkpt>
      <trkpt lat="43.41272" lon="6.06694">
        <ele>201.60000610352</ele>
        <time>2016-11-30T13:24:49Z</time>
      </trkpt>
      <trkpt lat="43.4127" lon="6.0669">
        <ele>201.80000305176</ele>
        <time>2016-11-30T13:24:50Z</time>
      </trkpt>
      <trkpt lat="43.41266" lon="6.06686">
        <ele>201.80000305176</ele>
        <time>2016-11-30T13:24:51Z</time>
      </trkpt>
      <trkpt lat="43.41253" lon="6.06685">
        <ele>201.80000305176</ele>
        <time>2016-11-30T13:24:54Z</time>
      </trkpt>
      <trkpt lat="43.41248" lon="6.06688">
        <ele>201</ele>
        <time>2016-11-30T13:24:56Z</time>
      </trkpt>
      <trkpt lat="43.41246" lon="6.0669">
        <ele>200.80000305176</ele>
        <time>2016-11-30T13:24:57Z</time>
      </trkpt>
      <trkpt lat="43.41245" lon="6.06691">
        <ele>200.60000610352</ele>
        <time>2016-11-30T13:24:58Z</time>
      </trkpt>
      <trkpt lat="43.41245" lon="6.06692">
        <ele>200.39999389648</ele>
        <time>2016-11-30T13:25:00Z</time>
      </trkpt>
      <trkpt lat="43.41245" lon="6.06692">
        <ele>200.19999694824</ele>
        <time>2016-11-30T13:25:03Z</time>
      </trkpt>
      <trkpt lat="43.41245" lon="6.06693">
        <ele>200.19999694824</ele>
        <time>2016-11-30T13:25:05Z</time>
      </trkpt>
      <trkpt lat="43.41245" lon="6.06699">
        <ele>200.19999694824</ele>
        <time>2016-11-30T13:25:08Z</time>
      </trkpt>
      <trkpt lat="43.41246" lon="6.06704">
        <ele>200.19999694824</ele>
        <time>2016-11-30T13:25:10Z</time>
      </trkpt>
      <trkpt lat="43.41251" lon="6.06709">
        <ele>200.39999389648</ele>
        <time>2016-11-30T13:25:13Z</time>
      </trkpt>
      <trkpt lat="43.41251" lon="6.06711">
        <ele>200.60000610352</ele>
        <time>2016-11-30T13:25:14Z</time>
      </trkpt>
      <trkpt lat="43.41249" lon="6.06711">
        <ele>200.60000610352</ele>
        <time>2016-11-30T13:25:15Z</time>
      </trkpt>
      <trkpt lat="43.41239" lon="6.06714">
        <ele>199.39999389648</ele>
        <time>2016-11-30T13:25:19Z</time>
      </trkpt>
      <trkpt lat="43.41236" lon="6.06715">
        <ele>199</ele>
        <time>2016-11-30T13:25:20Z</time>
      </trkpt>
      <trkpt lat="43.41197" lon="6.06717">
        <ele>198.39999389648</ele>
        <time>2016-11-30T13:25:29Z</time>
      </trkpt>
      <trkpt lat="43.41194" lon="6.06716">
        <ele>198.39999389648</ele>
        <time>2016-11-30T13:25:30Z</time>
      </trkpt>
      <trkpt lat="43.41188" lon="6.06715">
        <ele>198.19999694824</ele>
        <time>2016-11-30T13:25:33Z</time>
      </trkpt>
      <trkpt lat="43.41185" lon="6.06715">
        <ele>198.19999694824</ele>
        <time>2016-11-30T13:25:35Z</time>
      </trkpt>
      <trkpt lat="43.41185" lon="6.06715">
        <ele>198.19999694824</ele>
        <time>2016-11-30T13:25:36Z</time>
      </trkpt>
      <trkpt lat="43.41181" lon="6.06716">
        <ele>198.19999694824</ele>
        <time>2016-11-30T13:25:39Z</time>
      </trkpt>
      <trkpt lat="43.4118" lon="6.06716">
        <ele>198.19999694824</ele>
        <time>2016-11-30T13:25:40Z</time>
      </trkpt>
      <trkpt lat="43.41178" lon="6.06716">
        <ele>198.19999694824</ele>
        <time>2016-11-30T13:25:41Z</time>
      </trkpt>
      <trkpt lat="43.41143" lon="6.06721">
        <ele>198</ele>
        <time>2016-11-30T13:25:50Z</time>
      </trkpt>
      <trkpt lat="43.41139" lon="6.06722">
        <ele>197.80000305176</ele>
        <time>2016-11-30T13:25:51Z</time>
      </trkpt>
      <trkpt lat="43.41134" lon="6.06724">
        <ele>197.80000305176</ele>
        <time>2016-11-30T13:25:52Z</time>
      </trkpt>
      <trkpt lat="43.41123" lon="6.0673">
        <ele>198</ele>
        <time>2016-11-30T13:25:55Z</time>
      </trkpt>
      <trkpt lat="43.41119" lon="6.06732">
        <ele>198</ele>
        <time>2016-11-30T13:25:56Z</time>
      </trkpt>
      <trkpt lat="43.41103" lon="6.06744">
        <ele>198.19999694824</ele>
        <time>2016-11-30T13:26:00Z</time>
      </trkpt>
      <trkpt lat="43.41096" lon="6.06749">
        <ele>198.19999694824</ele>
        <time>2016-11-30T13:26:02Z</time>
      </trkpt>
      <trkpt lat="43.41084" lon="6.06772">
        <ele>197.60000610352</ele>
        <time>2016-11-30T13:26:08Z</time>
      </trkpt>
      <trkpt lat="43.41083" lon="6.06778">
        <ele>197.39999389648</ele>
        <time>2016-11-30T13:26:09Z</time>
      </trkpt>
      <trkpt lat="43.41083" lon="6.06784">
        <ele>197.39999389648</ele>
        <time>2016-11-30T13:26:10Z</time>
      </trkpt>
      <trkpt lat="43.4108" lon="6.06801">
        <ele>197.39999389648</ele>
        <time>2016-11-30T13:26:13Z</time>
      </trkpt>
      <trkpt lat="43.41071" lon="6.06832">
        <ele>197.60000610352</ele>
        <time>2016-11-30T13:26:18Z</time>
      </trkpt>
      <trkpt lat="43.4107" lon="6.06838">
        <ele>197.80000305176</ele>
        <time>2016-11-30T13:26:19Z</time>
      </trkpt>
      <trkpt lat="43.41069" lon="6.06844">
        <ele>197.80000305176</ele>
        <time>2016-11-30T13:26:20Z</time>
      </trkpt>
      <trkpt lat="43.41069" lon="6.0685">
        <ele>198</ele>
        <time>2016-11-30T13:26:21Z</time>
      </trkpt>
      <trkpt lat="43.41069" lon="6.06861">
        <ele>198.39999389648</ele>
        <time>2016-11-30T13:26:23Z</time>
      </trkpt>
      <trkpt lat="43.41069" lon="6.06867">
        <ele>198.80000305176</ele>
        <time>2016-11-30T13:26:25Z</time>
      </trkpt>
      <trkpt lat="43.41054" lon="6.06873">
        <ele>199.19999694824</ele>
        <time>2016-11-30T13:26:30Z</time>
      </trkpt>
      <trkpt lat="43.41021" lon="6.06888">
        <ele>197.60000610352</ele>
        <time>2016-11-30T13:26:38Z</time>
      </trkpt>
      <trkpt lat="43.41019" lon="6.0689">
        <ele>197.80000305176</ele>
        <time>2016-11-30T13:26:40Z</time>
      </trkpt>
      <trkpt lat="43.41013" lon="6.06907">
        <ele>197.80000305176</ele>
        <time>2016-11-30T13:26:47Z</time>
      </trkpt>
      <trkpt lat="43.41004" lon="6.06915">
        <ele>197.60000610352</ele>
        <time>2016-11-30T13:26:50Z</time>
      </trkpt>
      <trkpt lat="43.40987" lon="6.06925">
        <ele>197.39999389648</ele>
        <time>2016-11-30T13:26:55Z</time>
      </trkpt>
      <trkpt lat="43.40963" lon="6.06934">
        <ele>197</ele>
        <time>2016-11-30T13:27:00Z</time>
      </trkpt>
      <trkpt lat="43.40934" lon="6.06944">
        <ele>197.19999694824</ele>
        <time>2016-11-30T13:27:06Z</time>
      </trkpt>
      <trkpt lat="43.40915" lon="6.0695">
        <ele>197.39999389648</ele>
        <time>2016-11-30T13:27:10Z</time>
      </trkpt>
      <trkpt lat="43.40908" lon="6.06959">
        <ele>197.39999389648</ele>
        <time>2016-11-30T13:27:12Z</time>
      </trkpt>
      <trkpt lat="43.40905" lon="6.06971">
        <ele>197.60000610352</ele>
        <time>2016-11-30T13:27:14Z</time>
      </trkpt>
      <trkpt lat="43.40903" lon="6.06983">
        <ele>197.39999389648</ele>
        <time>2016-11-30T13:27:16Z</time>
      </trkpt>
      <trkpt lat="43.40895" lon="6.06994">
        <ele>197.19999694824</ele>
        <time>2016-11-30T13:27:19Z</time>
      </trkpt>
      <trkpt lat="43.40891" lon="6.06995">
        <ele>197.19999694824</ele>
        <time>2016-11-30T13:27:20Z</time>
      </trkpt>
      <trkpt lat="43.40878" lon="6.06999">
        <ele>197.39999389648</ele>
        <time>2016-11-30T13:27:23Z</time>
      </trkpt>
      <trkpt lat="43.40865" lon="6.07002">
        <ele>197.60000610352</ele>
        <time>2016-11-30T13:27:26Z</time>
      </trkpt>
      <trkpt lat="43.40852" lon="6.07005">
        <ele>197.80000305176</ele>
        <time>2016-11-30T13:27:30Z</time>
      </trkpt>
      <trkpt lat="43.40848" lon="6.07006">
        <ele>198.19999694824</ele>
        <time>2016-11-30T13:27:40Z</time>
      </trkpt>
      <trkpt lat="43.40848" lon="6.07006">
        <ele>198.19999694824</ele>
        <time>2016-11-30T13:27:43Z</time>
      </trkpt>
      <trkpt lat="43.40845" lon="6.07008">
        <ele>198.19999694824</ele>
        <time>2016-11-30T13:27:45Z</time>
      </trkpt>
      <trkpt lat="43.40842" lon="6.07026">
        <ele>198.19999694824</ele>
        <time>2016-11-30T13:27:50Z</time>
      </trkpt>
      <trkpt lat="43.40847" lon="6.07065">
        <ele>198</ele>
        <time>2016-11-30T13:27:56Z</time>
      </trkpt>
      <trkpt lat="43.40847" lon="6.07072">
        <ele>198</ele>
        <time>2016-11-30T13:27:57Z</time>
      </trkpt>
      <trkpt lat="43.40847" lon="6.07095">
        <ele>197.80000305176</ele>
        <time>2016-11-30T13:28:00Z</time>
      </trkpt>
      <trkpt lat="43.40846" lon="6.0711">
        <ele>197.60000610352</ele>
        <time>2016-11-30T13:28:02Z</time>
      </trkpt>
      <trkpt lat="43.40831" lon="6.07171">
        <ele>197.60000610352</ele>
        <time>2016-11-30T13:28:10Z</time>
      </trkpt>
      <trkpt lat="43.40804" lon="6.07215">
        <ele>198</ele>
        <time>2016-11-30T13:28:17Z</time>
      </trkpt>
      <trkpt lat="43.40791" lon="6.0723">
        <ele>198.19999694824</ele>
        <time>2016-11-30T13:28:20Z</time>
      </trkpt>
      <trkpt lat="43.40781" lon="6.07238">
        <ele>198.39999389648</ele>
        <time>2016-11-30T13:28:22Z</time>
      </trkpt>
      <trkpt lat="43.40776" lon="6.07242">
        <ele>198.19999694824</ele>
        <time>2016-11-30T13:28:23Z</time>
      </trkpt>
      <trkpt lat="43.40755" lon="6.07255">
        <ele>198.39999389648</ele>
        <time>2016-11-30T13:28:27Z</time>
      </trkpt>
      <trkpt lat="43.40739" lon="6.07264">
        <ele>198.60000610352</ele>
        <time>2016-11-30T13:28:30Z</time>
      </trkpt>
      <trkpt lat="43.40729" lon="6.07271">
        <ele>198.80000305176</ele>
        <time>2016-11-30T13:28:32Z</time>
      </trkpt>
      <trkpt lat="43.40701" lon="6.07287">
        <ele>199.60000610352</ele>
        <time>2016-11-30T13:28:37Z</time>
      </trkpt>
      <trkpt lat="43.40683" lon="6.07296">
        <ele>199.80000305176</ele>
        <time>2016-11-30T13:28:40Z</time>
      </trkpt>
      <trkpt lat="43.40671" lon="6.07302">
        <ele>200.19999694824</ele>
        <time>2016-11-30T13:28:42Z</time>
      </trkpt>
      <trkpt lat="43.40665" lon="6.07305">
        <ele>200.39999389648</ele>
        <time>2016-11-30T13:28:43Z</time>
      </trkpt>
      <trkpt lat="43.4066" lon="6.07308">
        <ele>200.80000305176</ele>
        <time>2016-11-30T13:28:44Z</time>
      </trkpt>
      <trkpt lat="43.40656" lon="6.0731">
        <ele>201</ele>
        <time>2016-11-30T13:28:45Z</time>
      </trkpt>
      <trkpt lat="43.40636" lon="6.07318">
        <ele>201.80000305176</ele>
        <time>2016-11-30T13:28:50Z</time>
      </trkpt>
      <trkpt lat="43.40622" lon="6.07311">
        <ele>202.60000610352</ele>
        <time>2016-11-30T13:28:54Z</time>
      </trkpt>
      <trkpt lat="43.40612" lon="6.07304">
        <ele>202.80000305176</ele>
        <time>2016-11-30T13:28:58Z</time>
      </trkpt>
      <trkpt lat="43.40609" lon="6.073">
        <ele>203.19999694824</ele>
        <time>2016-11-30T13:29:00Z</time>
      </trkpt>
      <trkpt lat="43.40607" lon="6.07298">
        <ele>203.19999694824</ele>
        <time>2016-11-30T13:29:01Z</time>
      </trkpt>
      <trkpt lat="43.40604" lon="6.07295">
        <ele>203.39999389648</ele>
        <time>2016-11-30T13:29:02Z</time>
      </trkpt>
      <trkpt lat="43.40595" lon="6.07289">
        <ele>203.19999694824</ele>
        <time>2016-11-30T13:29:05Z</time>
      </trkpt>
      <trkpt lat="43.40578" lon="6.07297">
        <ele>204</ele>
        <time>2016-11-30T13:29:10Z</time>
      </trkpt>
      <trkpt lat="43.40556" lon="6.07296">
        <ele>204.60000610352</ele>
        <time>2016-11-30T13:29:16Z</time>
      </trkpt>
      <trkpt lat="43.40541" lon="6.07294">
        <ele>204.80000305176</ele>
        <time>2016-11-30T13:29:20Z</time>
      </trkpt>
      <trkpt lat="43.40513" lon="6.07282">
        <ele>205</ele>
        <time>2016-11-30T13:29:28Z</time>
      </trkpt>
      <trkpt lat="43.40506" lon="6.07281">
        <ele>205.19999694824</ele>
        <time>2016-11-30T13:29:30Z</time>
      </trkpt>
      <trkpt lat="43.40484" lon="6.07276">
        <ele>205.60000610352</ele>
        <time>2016-11-30T13:29:36Z</time>
      </trkpt>
      <trkpt lat="43.40471" lon="6.07278">
        <ele>206.19999694824</ele>
        <time>2016-11-30T13:29:40Z</time>
      </trkpt>
      <trkpt lat="43.40443" lon="6.07281">
        <ele>207.19999694824</ele>
        <time>2016-11-30T13:29:49Z</time>
      </trkpt>
      <trkpt lat="43.40439" lon="6.07281">
        <ele>207.19999694824</ele>
        <time>2016-11-30T13:29:50Z</time>
      </trkpt>
      <trkpt lat="43.40419" lon="6.0728">
        <ele>208.39999389648</ele>
        <time>2016-11-30T13:29:56Z</time>
      </trkpt>
      <trkpt lat="43.40406" lon="6.07277">
        <ele>209</ele>
        <time>2016-11-30T13:30:00Z</time>
      </trkpt>
      <trkpt lat="43.4038" lon="6.07246">
        <ele>209.80000305176</ele>
        <time>2016-11-30T13:30:10Z</time>
      </trkpt>
      <trkpt lat="43.4036" lon="6.07236">
        <ele>210.39999389648</ele>
        <time>2016-11-30T13:30:17Z</time>
      </trkpt>
      <trkpt lat="43.40358" lon="6.07234">
        <ele>210.60000610352</ele>
        <time>2016-11-30T13:30:18Z</time>
      </trkpt>
      <trkpt lat="43.40353" lon="6.07229">
        <ele>210.80000305176</ele>
        <time>2016-11-30T13:30:20Z</time>
      </trkpt>
      <trkpt lat="43.40336" lon="6.07222">
        <ele>211.60000610352</ele>
        <time>2016-11-30T13:30:26Z</time>
      </trkpt>
      <trkpt lat="43.40324" lon="6.07217">
        <ele>211.80000305176</ele>
        <time>2016-11-30T13:30:30Z</time>
      </trkpt>
      <trkpt lat="43.40292" lon="6.07194">
        <ele>212.39999389648</ele>
        <time>2016-11-30T13:30:40Z</time>
      </trkpt>
      <trkpt lat="43.40286" lon="6.07186">
        <ele>212.60000610352</ele>
        <time>2016-11-30T13:30:42Z</time>
      </trkpt>
      <trkpt lat="43.40277" lon="6.07175">
        <ele>212.60000610352</ele>
        <time>2016-11-30T13:30:45Z</time>
      </trkpt>
      <trkpt lat="43.4027" lon="6.07169">
        <ele>212.60000610352</ele>
        <time>2016-11-30T13:30:47Z</time>
      </trkpt>
      <trkpt lat="43.40257" lon="6.07166">
        <ele>212.80000305176</ele>
        <time>2016-11-30T13:30:50Z</time>
      </trkpt>
      <trkpt lat="43.40236" lon="6.07168">
        <ele>213.60000610352</ele>
        <time>2016-11-30T13:30:56Z</time>
      </trkpt>
      <trkpt lat="43.40221" lon="6.07174">
        <ele>214.39999389648</ele>
        <time>2016-11-30T13:31:00Z</time>
      </trkpt>
      <trkpt lat="43.40217" lon="6.07176">
        <ele>214.60000610352</ele>
        <time>2016-11-30T13:31:01Z</time>
      </trkpt>
      <trkpt lat="43.4021" lon="6.07182">
        <ele>215.39999389648</ele>
        <time>2016-11-30T13:31:03Z</time>
      </trkpt>
      <trkpt lat="43.40206" lon="6.07184">
        <ele>215.80000305176</ele>
        <time>2016-11-30T13:31:04Z</time>
      </trkpt>
      <trkpt lat="43.40198" lon="6.07187">
        <ele>216.39999389648</ele>
        <time>2016-11-30T13:31:06Z</time>
      </trkpt>
      <trkpt lat="43.40194" lon="6.07189">
        <ele>216.80000305176</ele>
        <time>2016-11-30T13:31:07Z</time>
      </trkpt>
      <trkpt lat="43.40177" lon="6.072">
        <ele>218.80000305176</ele>
        <time>2016-11-30T13:31:12Z</time>
      </trkpt>
      <trkpt lat="43.40163" lon="6.07213">
        <ele>220.80000305176</ele>
        <time>2016-11-30T13:31:17Z</time>
      </trkpt>
      <trkpt lat="43.40152" lon="6.07226">
        <ele>221.80000305176</ele>
        <time>2016-11-30T13:31:22Z</time>
      </trkpt>
      <trkpt lat="43.40149" lon="6.07239">
        <ele>222.80000305176</ele>
        <time>2016-11-30T13:31:27Z</time>
      </trkpt>
      <trkpt lat="43.40149" lon="6.07246">
        <ele>222.80000305176</ele>
        <time>2016-11-30T13:31:30Z</time>
      </trkpt>
      <trkpt lat="43.4015" lon="6.07261">
        <ele>223</ele>
        <time>2016-11-30T13:31:36Z</time>
      </trkpt>
      <trkpt lat="43.4015" lon="6.07265">
        <ele>223</ele>
        <time>2016-11-30T13:31:38Z</time>
      </trkpt>
      <trkpt lat="43.40152" lon="6.07271">
        <ele>223</ele>
        <time>2016-11-30T13:31:41Z</time>
      </trkpt>
      <trkpt lat="43.40152" lon="6.07274">
        <ele>223</ele>
        <time>2016-11-30T13:31:43Z</time>
      </trkpt>
      <trkpt lat="43.40153" lon="6.07279">
        <ele>223</ele>
        <time>2016-11-30T13:31:46Z</time>
      </trkpt>
      <trkpt lat="43.40154" lon="6.07275">
        <ele>223</ele>
        <time>2016-11-30T13:31:49Z</time>
      </trkpt>
      <trkpt lat="43.40153" lon="6.07273">
        <ele>223</ele>
        <time>2016-11-30T13:31:50Z</time>
      </trkpt>
      <trkpt lat="43.40152" lon="6.07267">
        <ele>223</ele>
        <time>2016-11-30T13:31:54Z</time>
      </trkpt>
      <trkpt lat="43.40152" lon="6.07258">
        <ele>223</ele>
        <time>2016-11-30T13:31:58Z</time>
      </trkpt>
      <trkpt lat="43.40151" lon="6.07254">
        <ele>223</ele>
        <time>2016-11-30T13:32:00Z</time>
      </trkpt>
      <trkpt lat="43.4015" lon="6.07249">
        <ele>222.80000305176</ele>
        <time>2016-11-30T13:32:03Z</time>
      </trkpt>
      <trkpt lat="43.40149" lon="6.07244">
        <ele>223</ele>
        <time>2016-11-30T13:32:06Z</time>
      </trkpt>
      <trkpt lat="43.40148" lon="6.07242">
        <ele>223</ele>
        <time>2016-11-30T13:32:10Z</time>
      </trkpt>
      <trkpt lat="43.40148" lon="6.07242">
        <ele>223</ele>
        <time>2016-11-30T13:32:15Z</time>
      </trkpt>
      <trkpt lat="43.40147" lon="6.07242">
        <ele>223.19999694824</ele>
        <time>2016-11-30T13:32:19Z</time>
      </trkpt>
      <trkpt lat="43.40147" lon="6.07242">
        <ele>223.19999694824</ele>
        <time>2016-11-30T13:32:23Z</time>
      </trkpt>
      <trkpt lat="43.40147" lon="6.07242">
        <ele>223</ele>
        <time>2016-11-30T13:32:29Z</time>
      </trkpt>
      <trkpt lat="43.40147" lon="6.07241">
        <ele>223</ele>
        <time>2016-11-30T13:32:30Z</time>
      </trkpt>
      <trkpt lat="43.40147" lon="6.07241">
        <ele>223</ele>
        <time>2016-11-30T13:32:40Z</time>
      </trkpt>
      <trkpt lat="43.40148" lon="6.0724">
        <ele>223.80000305176</ele>
        <time>2016-11-30T13:32:50Z</time>
      </trkpt>
      <trkpt lat="43.4015" lon="6.07241">
        <ele>223.39999389648</ele>
        <time>2016-11-30T13:33:00Z</time>
      </trkpt>
      <trkpt lat="43.4015" lon="6.07242">
        <ele>223.19999694824</ele>
        <time>2016-11-30T13:33:08Z</time>
      </trkpt>
      <trkpt lat="43.4015" lon="6.07242">
        <ele>223.39999389648</ele>
        <time>2016-11-30T13:33:10Z</time>
      </trkpt>
      <trkpt lat="43.4015" lon="6.07241">
        <ele>223.39999389648</ele>
        <time>2016-11-30T13:33:20Z</time>
      </trkpt>
      <trkpt lat="43.4015" lon="6.07241">
        <ele>223.39999389648</ele>
        <time>2016-11-30T13:33:30Z</time>
      </trkpt>
      <trkpt lat="43.4015" lon="6.0724">
        <ele>223.19999694824</ele>
        <time>2016-11-30T13:33:31Z</time>
      </trkpt>
      <trkpt lat="43.40152" lon="6.0724">
        <ele>223.19999694824</ele>
        <time>2016-11-30T13:33:40Z</time>
      </trkpt>
      <trkpt lat="43.40151" lon="6.07241">
        <ele>224</ele>
        <time>2016-11-30T13:33:43Z</time>
      </trkpt>
      <trkpt lat="43.40153" lon="6.07244">
        <ele>223.80000305176</ele>
        <time>2016-11-30T13:33:50Z</time>
      </trkpt>
      <trkpt lat="43.40154" lon="6.07274">
        <ele>223.60000610352</ele>
        <time>2016-11-30T13:33:58Z</time>
      </trkpt>
      <trkpt lat="43.40154" lon="6.07285">
        <ele>223.60000610352</ele>
        <time>2016-11-30T13:34:00Z</time>
      </trkpt>
      <trkpt lat="43.40152" lon="6.07296">
        <ele>223.60000610352</ele>
        <time>2016-11-30T13:34:02Z</time>
      </trkpt>
      <trkpt lat="43.40149" lon="6.07338">
        <ele>224.39999389648</ele>
        <time>2016-11-30T13:34:10Z</time>
      </trkpt>
      <trkpt lat="43.40144" lon="6.07388">
        <ele>225</ele>
        <time>2016-11-30T13:34:20Z</time>
      </trkpt>
      <trkpt lat="43.40153" lon="6.07437">
        <ele>226</ele>
        <time>2016-11-30T13:34:30Z</time>
      </trkpt>
      <trkpt lat="43.40154" lon="6.07441">
        <ele>226.19999694824</ele>
        <time>2016-11-30T13:34:31Z</time>
      </trkpt>
      <trkpt lat="43.40152" lon="6.0748">
        <ele>227.19999694824</ele>
        <time>2016-11-30T13:34:39Z</time>
      </trkpt>
      <trkpt lat="43.40151" lon="6.07485">
        <ele>227.39999389648</ele>
        <time>2016-11-30T13:34:40Z</time>
      </trkpt>
      <trkpt lat="43.40147" lon="6.07501">
        <ele>228.39999389648</ele>
        <time>2016-11-30T13:34:44Z</time>
      </trkpt>
      <trkpt lat="43.40142" lon="6.07512">
        <ele>229.19999694824</ele>
        <time>2016-11-30T13:34:47Z</time>
      </trkpt>
      <trkpt lat="43.40141" lon="6.07515">
        <ele>229.60000610352</ele>
        <time>2016-11-30T13:34:48Z</time>
      </trkpt>
      <trkpt lat="43.40138" lon="6.07522">
        <ele>230</ele>
        <time>2016-11-30T13:34:50Z</time>
      </trkpt>
      <trkpt lat="43.40129" lon="6.07539">
        <ele>230.60000610352</ele>
        <time>2016-11-30T13:34:55Z</time>
      </trkpt>
      <trkpt lat="43.4012" lon="6.07556">
        <ele>230.60000610352</ele>
        <time>2016-11-30T13:35:00Z</time>
      </trkpt>
      <trkpt lat="43.40107" lon="6.07575">
        <ele>231</ele>
        <time>2016-11-30T13:35:06Z</time>
      </trkpt>
      <trkpt lat="43.40099" lon="6.0759">
        <ele>231.19999694824</ele>
        <time>2016-11-30T13:35:11Z</time>
      </trkpt>
      <trkpt lat="43.40095" lon="6.07596">
        <ele>231.60000610352</ele>
        <time>2016-11-30T13:35:13Z</time>
      </trkpt>
      <trkpt lat="43.40095" lon="6.07625">
        <ele>232.60000610352</ele>
        <time>2016-11-30T13:35:21Z</time>
      </trkpt>
      <trkpt lat="43.40095" lon="6.07636">
        <ele>233.19999694824</ele>
        <time>2016-11-30T13:35:24Z</time>
      </trkpt>
      <trkpt lat="43.40094" lon="6.07645">
        <ele>233.60000610352</ele>
        <time>2016-11-30T13:35:26Z</time>
      </trkpt>
      <trkpt lat="43.40092" lon="6.07658">
        <ele>234.80000305176</ele>
        <time>2016-11-30T13:35:29Z</time>
      </trkpt>
      <trkpt lat="43.40091" lon="6.07662">
        <ele>235.19999694824</ele>
        <time>2016-11-30T13:35:30Z</time>
      </trkpt>
      <trkpt lat="43.40088" lon="6.0767">
        <ele>236</ele>
        <time>2016-11-30T13:35:32Z</time>
      </trkpt>
      <trkpt lat="43.40082" lon="6.07683">
        <ele>237</ele>
        <time>2016-11-30T13:35:36Z</time>
      </trkpt>
      <trkpt lat="43.40075" lon="6.07692">
        <ele>237.80000305176</ele>
        <time>2016-11-30T13:35:40Z</time>
      </trkpt>
      <trkpt lat="43.40066" lon="6.07707">
        <ele>238.19999694824</ele>
        <time>2016-11-30T13:35:46Z</time>
      </trkpt>
      <trkpt lat="43.40058" lon="6.07716">
        <ele>238</ele>
        <time>2016-11-30T13:35:50Z</time>
      </trkpt>
      <trkpt lat="43.40049" lon="6.07728">
        <ele>238.39999389648</ele>
        <time>2016-11-30T13:35:55Z</time>
      </trkpt>
      <trkpt lat="43.40041" lon="6.0774">
        <ele>238.60000610352</ele>
        <time>2016-11-30T13:36:00Z</time>
      </trkpt>
      <trkpt lat="43.40036" lon="6.07751">
        <ele>239</ele>
        <time>2016-11-30T13:36:04Z</time>
      </trkpt>
      <trkpt lat="43.40034" lon="6.07757">
        <ele>239.19999694824</ele>
        <time>2016-11-30T13:36:06Z</time>
      </trkpt>
      <trkpt lat="43.40031" lon="6.07769">
        <ele>239.19999694824</ele>
        <time>2016-11-30T13:36:10Z</time>
      </trkpt>
      <trkpt lat="43.40027" lon="6.07782">
        <ele>239.60000610352</ele>
        <time>2016-11-30T13:36:14Z</time>
      </trkpt>
      <trkpt lat="43.40024" lon="6.07798">
        <ele>239.80000305176</ele>
        <time>2016-11-30T13:36:19Z</time>
      </trkpt>
      <trkpt lat="43.40018" lon="6.07816">
        <ele>239.80000305176</ele>
        <time>2016-11-30T13:36:25Z</time>
      </trkpt>
      <trkpt lat="43.40015" lon="6.0783">
        <ele>240</ele>
        <time>2016-11-30T13:36:30Z</time>
      </trkpt>
      <trkpt lat="43.40012" lon="6.07838">
        <ele>239.80000305176</ele>
        <time>2016-11-30T13:36:33Z</time>
      </trkpt>
      <trkpt lat="43.40005" lon="6.07861">
        <ele>240</ele>
        <time>2016-11-30T13:36:40Z</time>
      </trkpt>
      <trkpt lat="43.40002" lon="6.07875">
        <ele>240.19999694824</ele>
        <time>2016-11-30T13:36:44Z</time>
      </trkpt>
      <trkpt lat="43.39997" lon="6.07897">
        <ele>240.80000305176</ele>
        <time>2016-11-30T13:36:50Z</time>
      </trkpt>
      <trkpt lat="43.39995" lon="6.07904">
        <ele>241.19999694824</ele>
        <time>2016-11-30T13:36:52Z</time>
      </trkpt>
      <trkpt lat="43.39993" lon="6.07915">
        <ele>241.80000305176</ele>
        <time>2016-11-30T13:36:55Z</time>
      </trkpt>
      <trkpt lat="43.39989" lon="6.0793">
        <ele>242.19999694824</ele>
        <time>2016-11-30T13:36:59Z</time>
      </trkpt>
      <trkpt lat="43.39989" lon="6.07935">
        <ele>242.60000610352</ele>
        <time>2016-11-30T13:37:00Z</time>
      </trkpt>
      <trkpt lat="43.39985" lon="6.0795">
        <ele>243.39999389648</ele>
        <time>2016-11-30T13:37:04Z</time>
      </trkpt>
      <trkpt lat="43.3998" lon="6.07965">
        <ele>244.39999389648</ele>
        <time>2016-11-30T13:37:09Z</time>
      </trkpt>
      <trkpt lat="43.39979" lon="6.07968">
        <ele>244.80000305176</ele>
        <time>2016-11-30T13:37:10Z</time>
      </trkpt>
      <trkpt lat="43.39975" lon="6.07975">
        <ele>245.19999694824</ele>
        <time>2016-11-30T13:37:15Z</time>
      </trkpt>
      <trkpt lat="43.39973" lon="6.07976">
        <ele>245.60000610352</ele>
        <time>2016-11-30T13:37:18Z</time>
      </trkpt>
      <trkpt lat="43.39972" lon="6.07977">
        <ele>245.60000610352</ele>
        <time>2016-11-30T13:37:20Z</time>
      </trkpt>
      <trkpt lat="43.39972" lon="6.07978">
        <ele>245.60000610352</ele>
        <time>2016-11-30T13:37:25Z</time>
      </trkpt>
      <trkpt lat="43.39973" lon="6.07977">
        <ele>245.60000610352</ele>
        <time>2016-11-30T13:37:30Z</time>
      </trkpt>
      <trkpt lat="43.39973" lon="6.07977">
        <ele>245.60000610352</ele>
        <time>2016-11-30T13:37:36Z</time>
      </trkpt>
      <trkpt lat="43.39972" lon="6.07976">
        <ele>245.60000610352</ele>
        <time>2016-11-30T13:37:40Z</time>
      </trkpt>
      <trkpt lat="43.39972" lon="6.07976">
        <ele>245.80000305176</ele>
        <time>2016-11-30T13:37:44Z</time>
      </trkpt>
      <trkpt lat="43.39972" lon="6.07976">
        <ele>245.80000305176</ele>
        <time>2016-11-30T13:37:47Z</time>
      </trkpt>
      <trkpt lat="43.39972" lon="6.07976">
        <ele>245.80000305176</ele>
        <time>2016-11-30T13:37:50Z</time>
      </trkpt>
      <trkpt lat="43.39969" lon="6.07977">
        <ele>246</ele>
        <time>2016-11-30T13:37:53Z</time>
      </trkpt>
      <trkpt lat="43.39966" lon="6.07978">
        <ele>246</ele>
        <time>2016-11-30T13:37:55Z</time>
      </trkpt>
      <trkpt lat="43.39958" lon="6.07982">
        <ele>246.39999389648</ele>
        <time>2016-11-30T13:37:59Z</time>
      </trkpt>
      <trkpt lat="43.39956" lon="6.07984">
        <ele>246.39999389648</ele>
        <time>2016-11-30T13:38:00Z</time>
      </trkpt>
      <trkpt lat="43.39953" lon="6.07985">
        <ele>246.60000610352</ele>
        <time>2016-11-30T13:38:01Z</time>
      </trkpt>
      <trkpt lat="43.39927" lon="6.07997">
        <ele>246.60000610352</ele>
        <time>2016-11-30T13:38:10Z</time>
      </trkpt>
      <trkpt lat="43.39915" lon="6.0801">
        <ele>246.60000610352</ele>
        <time>2016-11-30T13:38:15Z</time>
      </trkpt>
      <trkpt lat="43.39899" lon="6.08025">
        <ele>246</ele>
        <time>2016-11-30T13:38:20Z</time>
      </trkpt>
      <trkpt lat="43.3988" lon="6.08024">
        <ele>245.60000610352</ele>
        <time>2016-11-30T13:38:25Z</time>
      </trkpt>
      <trkpt lat="43.39868" lon="6.0802">
        <ele>244.39999389648</ele>
        <time>2016-11-30T13:38:28Z</time>
      </trkpt>
      <trkpt lat="43.39861" lon="6.08016">
        <ele>244</ele>
        <time>2016-11-30T13:38:30Z</time>
      </trkpt>
      <trkpt lat="43.39842" lon="6.08005">
        <ele>244</ele>
        <time>2016-11-30T13:38:35Z</time>
      </trkpt>
      <trkpt lat="43.39802" lon="6.07986">
        <ele>244.60000610352</ele>
        <time>2016-11-30T13:38:46Z</time>
      </trkpt>
      <trkpt lat="43.39793" lon="6.07982">
        <ele>245.39999389648</ele>
        <time>2016-11-30T13:38:49Z</time>
      </trkpt>
      <trkpt lat="43.3979" lon="6.0798">
        <ele>245.60000610352</ele>
        <time>2016-11-30T13:38:50Z</time>
      </trkpt>
      <trkpt lat="43.39785" lon="6.07977">
        <ele>246</ele>
        <time>2016-11-30T13:38:52Z</time>
      </trkpt>
      <trkpt lat="43.39775" lon="6.0797">
        <ele>247</ele>
        <time>2016-11-30T13:38:56Z</time>
      </trkpt>
      <trkpt lat="43.3977" lon="6.07966">
        <ele>247.19999694824</ele>
        <time>2016-11-30T13:38:58Z</time>
      </trkpt>
      <trkpt lat="43.39766" lon="6.07964">
        <ele>247.60000610352</ele>
        <time>2016-11-30T13:39:00Z</time>
      </trkpt>
      <trkpt lat="43.39751" lon="6.07955">
        <ele>248.60000610352</ele>
        <time>2016-11-30T13:39:06Z</time>
      </trkpt>
      <trkpt lat="43.39742" lon="6.07948">
        <ele>249</ele>
        <time>2016-11-30T13:39:10Z</time>
      </trkpt>
      <trkpt lat="43.39729" lon="6.07937">
        <ele>249.80000305176</ele>
        <time>2016-11-30T13:39:16Z</time>
      </trkpt>
      <trkpt lat="43.39723" lon="6.07929">
        <ele>250.39999389648</ele>
        <time>2016-11-30T13:39:20Z</time>
      </trkpt>
      <trkpt lat="43.39719" lon="6.07926">
        <ele>250.80000305176</ele>
        <time>2016-11-30T13:39:22Z</time>
      </trkpt>
      <trkpt lat="43.39713" lon="6.07919">
        <ele>251.60000610352</ele>
        <time>2016-11-30T13:39:26Z</time>
      </trkpt>
      <trkpt lat="43.39711" lon="6.07917">
        <ele>251.80000305176</ele>
        <time>2016-11-30T13:39:27Z</time>
      </trkpt>
      <trkpt lat="43.39708" lon="6.07912">
        <ele>252.80000305176</ele>
        <time>2016-11-30T13:39:30Z</time>
      </trkpt>
      <trkpt lat="43.39706" lon="6.0791">
        <ele>253</ele>
        <time>2016-11-30T13:39:31Z</time>
      </trkpt>
      <trkpt lat="43.397" lon="6.07903">
        <ele>253.80000305176</ele>
        <time>2016-11-30T13:39:35Z</time>
      </trkpt>
      <trkpt lat="43.39698" lon="6.07902">
        <ele>254.39999389648</ele>
        <time>2016-11-30T13:39:36Z</time>
      </trkpt>
      <trkpt lat="43.39694" lon="6.07896">
        <ele>255.39999389648</ele>
        <time>2016-11-30T13:39:40Z</time>
      </trkpt>
      <trkpt lat="43.39693" lon="6.07895">
        <ele>255.39999389648</ele>
        <time>2016-11-30T13:39:41Z</time>
      </trkpt>
      <trkpt lat="43.39685" lon="6.07891">
        <ele>255.60000610352</ele>
        <time>2016-11-30T13:39:45Z</time>
      </trkpt>
      <trkpt lat="43.39681" lon="6.0789">
        <ele>255.80000305176</ele>
        <time>2016-11-30T13:39:47Z</time>
      </trkpt>
      <trkpt lat="43.39675" lon="6.07889">
        <ele>256</ele>
        <time>2016-11-30T13:39:50Z</time>
      </trkpt>
      <trkpt lat="43.39669" lon="6.07888">
        <ele>256.39999389648</ele>
        <time>2016-11-30T13:39:53Z</time>
      </trkpt>
      <trkpt lat="43.39663" lon="6.07887">
        <ele>256.79998779297</ele>
        <time>2016-11-30T13:39:56Z</time>
      </trkpt>
      <trkpt lat="43.39654" lon="6.07889">
        <ele>257.20001220703</ele>
        <time>2016-11-30T13:40:00Z</time>
      </trkpt>
      <trkpt lat="43.3965" lon="6.07889">
        <ele>257.20001220703</ele>
        <time>2016-11-30T13:40:02Z</time>
      </trkpt>
      <trkpt lat="43.39641" lon="6.07892">
        <ele>257.39999389648</ele>
        <time>2016-11-30T13:40:06Z</time>
      </trkpt>
      <trkpt lat="43.39639" lon="6.07893">
        <ele>257.39999389648</ele>
        <time>2016-11-30T13:40:07Z</time>
      </trkpt>
      <trkpt lat="43.3963" lon="6.07894">
        <ele>257.60000610352</ele>
        <time>2016-11-30T13:40:11Z</time>
      </trkpt>
      <trkpt lat="43.39624" lon="6.07897">
        <ele>257.79998779297</ele>
        <time>2016-11-30T13:40:14Z</time>
      </trkpt>
      <trkpt lat="43.39613" lon="6.07901">
        <ele>258.39999389648</ele>
        <time>2016-11-30T13:40:20Z</time>
      </trkpt>
      <trkpt lat="43.39611" lon="6.07902">
        <ele>258.39999389648</ele>
        <time>2016-11-30T13:40:21Z</time>
      </trkpt>
      <trkpt lat="43.39601" lon="6.07904">
        <ele>259.60000610352</ele>
        <time>2016-11-30T13:40:26Z</time>
      </trkpt>
      <trkpt lat="43.39595" lon="6.07905">
        <ele>260.20001220703</ele>
        <time>2016-11-30T13:40:29Z</time>
      </trkpt>
      <trkpt lat="43.39593" lon="6.07905">
        <ele>260.60000610352</ele>
        <time>2016-11-30T13:40:30Z</time>
      </trkpt>
      <trkpt lat="43.39588" lon="6.07905">
        <ele>261.79998779297</ele>
        <time>2016-11-30T13:40:33Z</time>
      </trkpt>
      <trkpt lat="43.39584" lon="6.07908">
        <ele>262.39999389648</ele>
        <time>2016-11-30T13:40:38Z</time>
      </trkpt>
      <trkpt lat="43.39582" lon="6.07912">
        <ele>262.39999389648</ele>
        <time>2016-11-30T13:40:40Z</time>
      </trkpt>
      <trkpt lat="43.39582" lon="6.07916">
        <ele>262.39999389648</ele>
        <time>2016-11-30T13:40:43Z</time>
      </trkpt>
      <trkpt lat="43.39581" lon="6.07923">
        <ele>262.60000610352</ele>
        <time>2016-11-30T13:40:48Z</time>
      </trkpt>
      <trkpt lat="43.39581" lon="6.07926">
        <ele>262.79998779297</ele>
        <time>2016-11-30T13:40:50Z</time>
      </trkpt>
      <trkpt lat="43.3958" lon="6.07929">
        <ele>262.79998779297</ele>
        <time>2016-11-30T13:40:52Z</time>
      </trkpt>
      <trkpt lat="43.39578" lon="6.07932">
        <ele>263</ele>
        <time>2016-11-30T13:40:54Z</time>
      </trkpt>
      <trkpt lat="43.39572" lon="6.07935">
        <ele>264.20001220703</ele>
        <time>2016-11-30T13:40:59Z</time>
      </trkpt>
      <trkpt lat="43.39571" lon="6.07935">
        <ele>264.39999389648</ele>
        <time>2016-11-30T13:41:00Z</time>
      </trkpt>
      <trkpt lat="43.39566" lon="6.07936">
        <ele>265.20001220703</ele>
        <time>2016-11-30T13:41:04Z</time>
      </trkpt>
      <trkpt lat="43.39559" lon="6.07938">
        <ele>266</ele>
        <time>2016-11-30T13:41:10Z</time>
      </trkpt>
      <trkpt lat="43.39555" lon="6.07939">
        <ele>266.39999389648</ele>
        <time>2016-11-30T13:41:13Z</time>
      </trkpt>
      <trkpt lat="43.39548" lon="6.07943">
        <ele>267.39999389648</ele>
        <time>2016-11-30T13:41:19Z</time>
      </trkpt>
      <trkpt lat="43.39536" lon="6.07947">
        <ele>268.60000610352</ele>
        <time>2016-11-30T13:41:30Z</time>
      </trkpt>
      <trkpt lat="43.39528" lon="6.07951">
        <ele>269.39999389648</ele>
        <time>2016-11-30T13:41:37Z</time>
      </trkpt>
      <trkpt lat="43.39524" lon="6.07952">
        <ele>269.79998779297</ele>
        <time>2016-11-30T13:41:40Z</time>
      </trkpt>
      <trkpt lat="43.39511" lon="6.07956">
        <ele>270.79998779297</ele>
        <time>2016-11-30T13:41:50Z</time>
      </trkpt>
      <trkpt lat="43.395" lon="6.07961">
        <ele>271.39999389648</ele>
        <time>2016-11-30T13:41:59Z</time>
      </trkpt>
      <trkpt lat="43.39498" lon="6.07962">
        <ele>271.60000610352</ele>
        <time>2016-11-30T13:42:01Z</time>
      </trkpt>
      <trkpt lat="43.39494" lon="6.0796">
        <ele>271.79998779297</ele>
        <time>2016-11-30T13:42:05Z</time>
      </trkpt>
      <trkpt lat="43.39494" lon="6.0796">
        <ele>271.60000610352</ele>
        <time>2016-11-30T13:42:10Z</time>
      </trkpt>
      <trkpt lat="43.39494" lon="6.0796">
        <ele>271.60000610352</ele>
        <time>2016-11-30T13:42:13Z</time>
      </trkpt>
      <trkpt lat="43.39494" lon="6.0796">
        <ele>271.79998779297</ele>
        <time>2016-11-30T13:42:20Z</time>
      </trkpt>
      <trkpt lat="43.39494" lon="6.0796">
        <ele>271.79998779297</ele>
        <time>2016-11-30T13:42:33Z</time>
      </trkpt>
      <trkpt lat="43.39494" lon="6.0796">
        <ele>271.79998779297</ele>
        <time>2016-11-30T13:42:37Z</time>
      </trkpt>
      <trkpt lat="43.39495" lon="6.0796">
        <ele>272</ele>
        <time>2016-11-30T13:42:40Z</time>
      </trkpt>
      <trkpt lat="43.39495" lon="6.07961">
        <ele>271.79998779297</ele>
        <time>2016-11-30T13:42:50Z</time>
      </trkpt>
      <trkpt lat="43.39495" lon="6.07961">
        <ele>271.79998779297</ele>
        <time>2016-11-30T13:43:00Z</time>
      </trkpt>
      <trkpt lat="43.39491" lon="6.07956">
        <ele>271.60000610352</ele>
        <time>2016-11-30T13:43:07Z</time>
      </trkpt>
      <trkpt lat="43.39487" lon="6.07955">
        <ele>272</ele>
        <time>2016-11-30T13:43:10Z</time>
      </trkpt>
      <trkpt lat="43.39483" lon="6.07952">
        <ele>272.39999389648</ele>
        <time>2016-11-30T13:43:13Z</time>
      </trkpt>
      <trkpt lat="43.39481" lon="6.07948">
        <ele>272.60000610352</ele>
        <time>2016-11-30T13:43:15Z</time>
      </trkpt>
      <trkpt lat="43.39477" lon="6.07937">
        <ele>272.79998779297</ele>
        <time>2016-11-30T13:43:20Z</time>
      </trkpt>
      <trkpt lat="43.39471" lon="6.0792">
        <ele>273.39999389648</ele>
        <time>2016-11-30T13:43:28Z</time>
      </trkpt>
      <trkpt lat="43.3947" lon="6.07916">
        <ele>273.60000610352</ele>
        <time>2016-11-30T13:43:30Z</time>
      </trkpt>
      <trkpt lat="43.39467" lon="6.07907">
        <ele>274</ele>
        <time>2016-11-30T13:43:35Z</time>
      </trkpt>
      <trkpt lat="43.39466" lon="6.07902">
        <ele>274.60000610352</ele>
        <time>2016-11-30T13:43:38Z</time>
      </trkpt>
      <trkpt lat="43.39465" lon="6.07899">
        <ele>275</ele>
        <time>2016-11-30T13:43:40Z</time>
      </trkpt>
      <trkpt lat="43.3946" lon="6.07895">
        <ele>275.79998779297</ele>
        <time>2016-11-30T13:43:45Z</time>
      </trkpt>
      <trkpt lat="43.39454" lon="6.07898">
        <ele>277.20001220703</ele>
        <time>2016-11-30T13:43:49Z</time>
      </trkpt>
      <trkpt lat="43.39453" lon="6.07897">
        <ele>277.20001220703</ele>
        <time>2016-11-30T13:43:50Z</time>
      </trkpt>
      <trkpt lat="43.39451" lon="6.07897">
        <ele>277.79998779297</ele>
        <time>2016-11-30T13:43:53Z</time>
      </trkpt>
      <trkpt lat="43.39451" lon="6.07897">
        <ele>277.79998779297</ele>
        <time>2016-11-30T13:43:54Z</time>
      </trkpt>
      <trkpt lat="43.39451" lon="6.07897">
        <ele>277.79998779297</ele>
        <time>2016-11-30T13:43:55Z</time>
      </trkpt>
      <trkpt lat="43.39451" lon="6.07897">
        <ele>277.79998779297</ele>
        <time>2016-11-30T13:43:56Z</time>
      </trkpt>
      <trkpt lat="43.39451" lon="6.07896">
        <ele>277.79998779297</ele>
        <time>2016-11-30T13:43:57Z</time>
      </trkpt>
      <trkpt lat="43.39451" lon="6.07896">
        <ele>277.60000610352</ele>
        <time>2016-11-30T13:44:01Z</time>
      </trkpt>
      <trkpt lat="43.39451" lon="6.07896">
        <ele>277.79998779297</ele>
        <time>2016-11-30T13:44:04Z</time>
      </trkpt>
      <trkpt lat="43.39451" lon="6.07896">
        <ele>278</ele>
        <time>2016-11-30T13:44:06Z</time>
      </trkpt>
      <trkpt lat="43.39452" lon="6.07897">
        <ele>277.79998779297</ele>
        <time>2016-11-30T13:44:09Z</time>
      </trkpt>
      <trkpt lat="43.39453" lon="6.07897">
        <ele>277.79998779297</ele>
        <time>2016-11-30T13:44:10Z</time>
      </trkpt>
      <trkpt lat="43.39455" lon="6.07898">
        <ele>277.39999389648</ele>
        <time>2016-11-30T13:44:12Z</time>
      </trkpt>
      <trkpt lat="43.39456" lon="6.07897">
        <ele>277.39999389648</ele>
        <time>2016-11-30T13:44:13Z</time>
      </trkpt>
      <trkpt lat="43.39458" lon="6.07896">
        <ele>276.60000610352</ele>
        <time>2016-11-30T13:44:16Z</time>
      </trkpt>
      <trkpt lat="43.39458" lon="6.07896">
        <ele>276.39999389648</ele>
        <time>2016-11-30T13:44:19Z</time>
      </trkpt>
      <trkpt lat="43.39458" lon="6.07896">
        <ele>276.39999389648</ele>
        <time>2016-11-30T13:44:20Z</time>
      </trkpt>
      <trkpt lat="43.39458" lon="6.07896">
        <ele>276.39999389648</ele>
        <time>2016-11-30T13:44:24Z</time>
      </trkpt>
      <trkpt lat="43.39462" lon="6.07894">
        <ele>276.20001220703</ele>
        <time>2016-11-30T13:44:30Z</time>
      </trkpt>
      <trkpt lat="43.39464" lon="6.07892">
        <ele>276</ele>
        <time>2016-11-30T13:44:33Z</time>
      </trkpt>
      <trkpt lat="43.39464" lon="6.07892">
        <ele>275.79998779297</ele>
        <time>2016-11-30T13:44:37Z</time>
      </trkpt>
      <trkpt lat="43.39463" lon="6.07891">
        <ele>275.79998779297</ele>
        <time>2016-11-30T13:44:40Z</time>
      </trkpt>
      <trkpt lat="43.39463" lon="6.07891">
        <ele>275.79998779297</ele>
        <time>2016-11-30T13:44:44Z</time>
      </trkpt>
      <trkpt lat="43.39464" lon="6.07891">
        <ele>275.60000610352</ele>
        <time>2016-11-30T13:44:50Z</time>
      </trkpt>
      <trkpt lat="43.39464" lon="6.07891">
        <ele>275.60000610352</ele>
        <time>2016-11-30T13:44:55Z</time>
      </trkpt>
      <trkpt lat="43.39463" lon="6.07891">
        <ele>275.60000610352</ele>
        <time>2016-11-30T13:45:00Z</time>
      </trkpt>
      <trkpt lat="43.39463" lon="6.07889">
        <ele>275.79998779297</ele>
        <time>2016-11-30T13:45:03Z</time>
      </trkpt>
      <trkpt lat="43.39461" lon="6.07885">
        <ele>275.79998779297</ele>
        <time>2016-11-30T13:45:06Z</time>
      </trkpt>
      <trkpt lat="43.39459" lon="6.07888">
        <ele>276</ele>
        <time>2016-11-30T13:45:10Z</time>
      </trkpt>
      <trkpt lat="43.39462" lon="6.07897">
        <ele>276.20001220703</ele>
        <time>2016-11-30T13:45:16Z</time>
      </trkpt>
      <trkpt lat="43.39463" lon="6.07892">
        <ele>275.60000610352</ele>
        <time>2016-11-30T13:45:20Z</time>
      </trkpt>
      <trkpt lat="43.39462" lon="6.07891">
        <ele>275.60000610352</ele>
        <time>2016-11-30T13:45:21Z</time>
      </trkpt>
      <trkpt lat="43.3946" lon="6.07891">
        <ele>275.79998779297</ele>
        <time>2016-11-30T13:45:23Z</time>
      </trkpt>
      <trkpt lat="43.39457" lon="6.07893">
        <ele>276</ele>
        <time>2016-11-30T13:45:25Z</time>
      </trkpt>
      <trkpt lat="43.39453" lon="6.07895">
        <ele>276.20001220703</ele>
        <time>2016-11-30T13:45:27Z</time>
      </trkpt>
      <trkpt lat="43.39451" lon="6.07896">
        <ele>276.79998779297</ele>
        <time>2016-11-30T13:45:29Z</time>
      </trkpt>
      <trkpt lat="43.3945" lon="6.07897">
        <ele>277.20001220703</ele>
        <time>2016-11-30T13:45:30Z</time>
      </trkpt>
      <trkpt lat="43.39449" lon="6.07897">
        <ele>278.20001220703</ele>
        <time>2016-11-30T13:45:33Z</time>
      </trkpt>
      <trkpt lat="43.39449" lon="6.07897">
        <ele>278.39999389648</ele>
        <time>2016-11-30T13:45:34Z</time>
      </trkpt>
      <trkpt lat="43.39448" lon="6.07897">
        <ele>278.60000610352</ele>
        <time>2016-11-30T13:45:36Z</time>
      </trkpt>
      <trkpt lat="43.39446" lon="6.07897">
        <ele>279.20001220703</ele>
        <time>2016-11-30T13:45:39Z</time>
      </trkpt>
      <trkpt lat="43.39445" lon="6.07897">
        <ele>279.79998779297</ele>
        <time>2016-11-30T13:45:41Z</time>
      </trkpt>
      <trkpt lat="43.39444" lon="6.07898">
        <ele>280</ele>
        <time>2016-11-30T13:45:43Z</time>
      </trkpt>
      <trkpt lat="43.39444" lon="6.07899">
        <ele>280.20001220703</ele>
        <time>2016-11-30T13:45:45Z</time>
      </trkpt>
      <trkpt lat="43.39444" lon="6.07899">
        <ele>280.39999389648</ele>
        <time>2016-11-30T13:45:48Z</time>
      </trkpt>
      <trkpt lat="43.39444" lon="6.07899">
        <ele>280.39999389648</ele>
        <time>2016-11-30T13:45:50Z</time>
      </trkpt>
      <trkpt lat="43.39444" lon="6.07899">
        <ele>280.20001220703</ele>
        <time>2016-11-30T13:45:55Z</time>
      </trkpt>
      <trkpt lat="43.39444" lon="6.07899">
        <ele>280.20001220703</ele>
        <time>2016-11-30T13:46:00Z</time>
      </trkpt>
      <trkpt lat="43.39444" lon="6.07899">
        <ele>280</ele>
        <time>2016-11-30T13:46:10Z</time>
      </trkpt>
      <trkpt lat="43.39444" lon="6.07899">
        <ele>280</ele>
        <time>2016-11-30T13:46:16Z</time>
      </trkpt>
      <trkpt lat="43.39444" lon="6.07899">
        <ele>280.20001220703</ele>
        <time>2016-11-30T13:46:20Z</time>
      </trkpt>
      <trkpt lat="43.39444" lon="6.07899">
        <ele>280.20001220703</ele>
        <time>2016-11-30T13:46:22Z</time>
      </trkpt>
      <trkpt lat="43.39444" lon="6.079">
        <ele>280.39999389648</ele>
        <time>2016-11-30T13:46:29Z</time>
      </trkpt>
      <trkpt lat="43.39444" lon="6.079">
        <ele>280.39999389648</ele>
        <time>2016-11-30T13:46:30Z</time>
      </trkpt>
      <trkpt lat="43.39444" lon="6.07903">
        <ele>280</ele>
        <time>2016-11-30T13:47:00Z</time>
      </trkpt>
      <trkpt lat="43.39445" lon="6.07903">
        <ele>280</ele>
        <time>2016-11-30T13:47:10Z</time>
      </trkpt>
      <trkpt lat="43.39445" lon="6.07903">
        <ele>280</ele>
        <time>2016-11-30T13:47:20Z</time>
      </trkpt>
      <trkpt lat="43.39444" lon="6.07904">
        <ele>280.20001220703</ele>
        <time>2016-11-30T13:47:30Z</time>
      </trkpt>
      <trkpt lat="43.39444" lon="6.07904">
        <ele>280</ele>
        <time>2016-11-30T13:47:38Z</time>
      </trkpt>
      <trkpt lat="43.39444" lon="6.07904">
        <ele>280</ele>
        <time>2016-11-30T13:47:40Z</time>
      </trkpt>
      <trkpt lat="43.39443" lon="6.07903">
        <ele>280</ele>
        <time>2016-11-30T13:47:50Z</time>
      </trkpt>
      <trkpt lat="43.39445" lon="6.07903">
        <ele>280</ele>
        <time>2016-11-30T13:48:00Z</time>
      </trkpt>
      <trkpt lat="43.39446" lon="6.07902">
        <ele>280</ele>
        <time>2016-11-30T13:48:10Z</time>
      </trkpt>
      <trkpt lat="43.39446" lon="6.07902">
        <ele>280</ele>
        <time>2016-11-30T13:48:16Z</time>
      </trkpt>
      <trkpt lat="43.39446" lon="6.07902">
        <ele>280</ele>
        <time>2016-11-30T13:48:20Z</time>
      </trkpt>
      <trkpt lat="43.39445" lon="6.07902">
        <ele>280</ele>
        <time>2016-11-30T13:48:30Z</time>
      </trkpt>
      <trkpt lat="43.39445" lon="6.07902">
        <ele>280</ele>
        <time>2016-11-30T13:48:40Z</time>
      </trkpt>
      <trkpt lat="43.39445" lon="6.07902">
        <ele>280</ele>
        <time>2016-11-30T13:48:50Z</time>
      </trkpt>
      <trkpt lat="43.39445" lon="6.07903">
        <ele>280</ele>
        <time>2016-11-30T13:49:00Z</time>
      </trkpt>
      <trkpt lat="43.39443" lon="6.07903">
        <ele>280</ele>
        <time>2016-11-30T13:49:10Z</time>
      </trkpt>
      <trkpt lat="43.39443" lon="6.07903">
        <ele>280</ele>
        <time>2016-11-30T13:49:20Z</time>
      </trkpt>
      <trkpt lat="43.39444" lon="6.07904">
        <ele>280</ele>
        <time>2016-11-30T13:49:30Z</time>
      </trkpt>
      <trkpt lat="43.39444" lon="6.07904">
        <ele>280</ele>
        <time>2016-11-30T13:49:40Z</time>
      </trkpt>
      <trkpt lat="43.39443" lon="6.07904">
        <ele>280</ele>
        <time>2016-11-30T13:49:50Z</time>
      </trkpt>
      <trkpt lat="43.39442" lon="6.07903">
        <ele>280</ele>
        <time>2016-11-30T13:50:00Z</time>
      </trkpt>
      <trkpt lat="43.39442" lon="6.07903">
        <ele>280</ele>
        <time>2016-11-30T13:50:05Z</time>
      </trkpt>
      <trkpt lat="43.39442" lon="6.07903">
        <ele>280</ele>
        <time>2016-11-30T13:50:10Z</time>
      </trkpt>
      <trkpt lat="43.39442" lon="6.07904">
        <ele>280</ele>
        <time>2016-11-30T13:50:20Z</time>
      </trkpt>
      <trkpt lat="43.39442" lon="6.07903">
        <ele>280</ele>
        <time>2016-11-30T13:50:30Z</time>
      </trkpt>
      <trkpt lat="43.39442" lon="6.07904">
        <ele>280</ele>
        <time>2016-11-30T13:50:40Z</time>
      </trkpt>
      <trkpt lat="43.39442" lon="6.07902">
        <ele>280</ele>
        <time>2016-11-30T13:50:50Z</time>
      </trkpt>
      <trkpt lat="43.39443" lon="6.07903">
        <ele>280</ele>
        <time>2016-11-30T13:51:00Z</time>
      </trkpt>
      <trkpt lat="43.39443" lon="6.07902">
        <ele>280</ele>
        <time>2016-11-30T13:51:10Z</time>
      </trkpt>
      <trkpt lat="43.39443" lon="6.07903">
        <ele>280</ele>
        <time>2016-11-30T13:51:13Z</time>
      </trkpt>
      <trkpt lat="43.39443" lon="6.07906">
        <ele>279.39999389648</ele>
        <time>2016-11-30T13:51:16Z</time>
      </trkpt>
      <trkpt lat="43.39444" lon="6.07912">
        <ele>278.79998779297</ele>
        <time>2016-11-30T13:51:20Z</time>
      </trkpt>
      <trkpt lat="43.39439" lon="6.07932">
        <ele>278.20001220703</ele>
        <time>2016-11-30T13:51:28Z</time>
      </trkpt>
      <trkpt lat="43.39436" lon="6.07939">
        <ele>277.79998779297</ele>
        <time>2016-11-30T13:51:30Z</time>
      </trkpt>
      <trkpt lat="43.39412" lon="6.07961">
        <ele>277.79998779297</ele>
        <time>2016-11-30T13:51:39Z</time>
      </trkpt>
      <trkpt lat="43.39409" lon="6.07962">
        <ele>278</ele>
        <time>2016-11-30T13:51:40Z</time>
      </trkpt>
      <trkpt lat="43.39398" lon="6.07962">
        <ele>278.79998779297</ele>
        <time>2016-11-30T13:51:43Z</time>
      </trkpt>
      <trkpt lat="43.39393" lon="6.07962">
        <ele>279.20001220703</ele>
        <time>2016-11-30T13:51:45Z</time>
      </trkpt>
      <trkpt lat="43.39383" lon="6.07965">
        <ele>280.39999389648</ele>
        <time>2016-11-30T13:51:50Z</time>
      </trkpt>
      <trkpt lat="43.39382" lon="6.07966">
        <ele>280.60000610352</ele>
        <time>2016-11-30T13:51:51Z</time>
      </trkpt>
      <trkpt lat="43.39378" lon="6.07967">
        <ele>281</ele>
        <time>2016-11-30T13:51:55Z</time>
      </trkpt>
      <trkpt lat="43.39378" lon="6.07967">
        <ele>281.20001220703</ele>
        <time>2016-11-30T13:51:56Z</time>
      </trkpt>
      <trkpt lat="43.39378" lon="6.07967">
        <ele>281.20001220703</ele>
        <time>2016-11-30T13:51:57Z</time>
      </trkpt>
      <trkpt lat="43.39378" lon="6.07966">
        <ele>281</ele>
        <time>2016-11-30T13:51:59Z</time>
      </trkpt>
      <trkpt lat="43.39378" lon="6.07966">
        <ele>281</ele>
        <time>2016-11-30T13:52:00Z</time>
      </trkpt>
      <trkpt lat="43.39378" lon="6.07966">
        <ele>281</ele>
        <time>2016-11-30T13:52:02Z</time>
      </trkpt>
      <trkpt lat="43.39378" lon="6.07966">
        <ele>281</ele>
        <time>2016-11-30T13:52:05Z</time>
      </trkpt>
      <trkpt lat="43.39378" lon="6.07966">
        <ele>281.20001220703</ele>
        <time>2016-11-30T13:52:08Z</time>
      </trkpt>
      <trkpt lat="43.39378" lon="6.07966">
        <ele>281.20001220703</ele>
        <time>2016-11-30T13:52:10Z</time>
      </trkpt>
      <trkpt lat="43.39376" lon="6.07966">
        <ele>281.20001220703</ele>
        <time>2016-11-30T13:52:15Z</time>
      </trkpt>
      <trkpt lat="43.39376" lon="6.07966">
        <ele>281.39999389648</ele>
        <time>2016-11-30T13:52:19Z</time>
      </trkpt>
      <trkpt lat="43.39376" lon="6.07966">
        <ele>281.60000610352</ele>
        <time>2016-11-30T13:52:25Z</time>
      </trkpt>
      <trkpt lat="43.39376" lon="6.07966">
        <ele>281.39999389648</ele>
        <time>2016-11-30T13:52:30Z</time>
      </trkpt>
      <trkpt lat="43.39376" lon="6.07966">
        <ele>281.39999389648</ele>
        <time>2016-11-30T13:52:37Z</time>
      </trkpt>
      <trkpt lat="43.39376" lon="6.07968">
        <ele>281.39999389648</ele>
        <time>2016-11-30T13:52:44Z</time>
      </trkpt>
      <trkpt lat="43.39374" lon="6.07973">
        <ele>281</ele>
        <time>2016-11-30T13:52:47Z</time>
      </trkpt>
      <trkpt lat="43.39372" lon="6.07984">
        <ele>280.60000610352</ele>
        <time>2016-11-30T13:52:50Z</time>
      </trkpt>
      <trkpt lat="43.39368" lon="6.07996">
        <ele>280.20001220703</ele>
        <time>2016-11-30T13:52:53Z</time>
      </trkpt>
      <trkpt lat="43.39357" lon="6.08025">
        <ele>280.20001220703</ele>
        <time>2016-11-30T13:53:00Z</time>
      </trkpt>
      <trkpt lat="43.39349" lon="6.08036">
        <ele>281</ele>
        <time>2016-11-30T13:53:05Z</time>
      </trkpt>
      <trkpt lat="43.39348" lon="6.08037">
        <ele>281.39999389648</ele>
        <time>2016-11-30T13:53:06Z</time>
      </trkpt>
      <trkpt lat="43.39348" lon="6.08036">
        <ele>281.60000610352</ele>
        <time>2016-11-30T13:53:09Z</time>
      </trkpt>
      <trkpt lat="43.39348" lon="6.08036">
        <ele>281.60000610352</ele>
        <time>2016-11-30T13:53:10Z</time>
      </trkpt>
      <trkpt lat="43.39352" lon="6.08034">
        <ele>281.20001220703</ele>
        <time>2016-11-30T13:53:20Z</time>
      </trkpt>
      <trkpt lat="43.39352" lon="6.08032">
        <ele>280.79998779297</ele>
        <time>2016-11-30T13:53:29Z</time>
      </trkpt>
      <trkpt lat="43.39352" lon="6.08032">
        <ele>280.79998779297</ele>
        <time>2016-11-30T13:53:30Z</time>
      </trkpt>
      <trkpt lat="43.39351" lon="6.08032">
        <ele>281</ele>
        <time>2016-11-30T13:53:37Z</time>
      </trkpt>
      <trkpt lat="43.39351" lon="6.08032">
        <ele>281</ele>
        <time>2016-11-30T13:53:40Z</time>
      </trkpt>
      <trkpt lat="43.39351" lon="6.08032">
        <ele>280.79998779297</ele>
        <time>2016-11-30T13:53:44Z</time>
      </trkpt>
      <trkpt lat="43.39351" lon="6.08032">
        <ele>281</ele>
        <time>2016-11-30T13:53:50Z</time>
      </trkpt>
      <trkpt lat="43.39351" lon="6.08032">
        <ele>281.20001220703</ele>
        <time>2016-11-30T13:53:53Z</time>
      </trkpt>
      <trkpt lat="43.39348" lon="6.08034">
        <ele>281.39999389648</ele>
        <time>2016-11-30T13:53:55Z</time>
      </trkpt>
      <trkpt lat="43.39344" lon="6.08037">
        <ele>281.60000610352</ele>
        <time>2016-11-30T13:53:57Z</time>
      </trkpt>
      <trkpt lat="43.39342" lon="6.08038">
        <ele>281.79998779297</ele>
        <time>2016-11-30T13:53:58Z</time>
      </trkpt>
      <trkpt lat="43.39341" lon="6.08039">
        <ele>282</ele>
        <time>2016-11-30T13:53:59Z</time>
      </trkpt>
      <trkpt lat="43.3934" lon="6.0804">
        <ele>282.20001220703</ele>
        <time>2016-11-30T13:54:00Z</time>
      </trkpt>
      <trkpt lat="43.39339" lon="6.08041">
        <ele>282.39999389648</ele>
        <time>2016-11-30T13:54:01Z</time>
      </trkpt>
      <trkpt lat="43.39339" lon="6.08041">
        <ele>282.60000610352</ele>
        <time>2016-11-30T13:54:04Z</time>
      </trkpt>
      <trkpt lat="43.39339" lon="6.08041">
        <ele>282.60000610352</ele>
        <time>2016-11-30T13:54:07Z</time>
      </trkpt>
      <trkpt lat="43.39339" lon="6.08042">
        <ele>282.60000610352</ele>
        <time>2016-11-30T13:54:09Z</time>
      </trkpt>
      <trkpt lat="43.39339" lon="6.08042">
        <ele>282.60000610352</ele>
        <time>2016-11-30T13:54:10Z</time>
      </trkpt>
      <trkpt lat="43.39339" lon="6.08043">
        <ele>282.60000610352</ele>
        <time>2016-11-30T13:54:13Z</time>
      </trkpt>
      <trkpt lat="43.39337" lon="6.08047">
        <ele>282.60000610352</ele>
        <time>2016-11-30T13:54:15Z</time>
      </trkpt>
      <trkpt lat="43.39332" lon="6.08057">
        <ele>283</ele>
        <time>2016-11-30T13:54:19Z</time>
      </trkpt>
      <trkpt lat="43.39329" lon="6.08062">
        <ele>283.20001220703</ele>
        <time>2016-11-30T13:54:21Z</time>
      </trkpt>
      <trkpt lat="43.39326" lon="6.08067">
        <ele>283.39999389648</ele>
        <time>2016-11-30T13:54:23Z</time>
      </trkpt>
      <trkpt lat="43.39323" lon="6.08072">
        <ele>283.20001220703</ele>
        <time>2016-11-30T13:54:25Z</time>
      </trkpt>
      <trkpt lat="43.39315" lon="6.08083">
        <ele>283.39999389648</ele>
        <time>2016-11-30T13:54:30Z</time>
      </trkpt>
      <trkpt lat="43.39311" lon="6.08089">
        <ele>283.60000610352</ele>
        <time>2016-11-30T13:54:33Z</time>
      </trkpt>
      <trkpt lat="43.39307" lon="6.081">
        <ele>284.20001220703</ele>
        <time>2016-11-30T13:54:40Z</time>
      </trkpt>
      <trkpt lat="43.39304" lon="6.08102">
        <ele>284.60000610352</ele>
        <time>2016-11-30T13:54:42Z</time>
      </trkpt>
      <trkpt lat="43.39304" lon="6.08102">
        <ele>284.79998779297</ele>
        <time>2016-11-30T13:54:43Z</time>
      </trkpt>
      <trkpt lat="43.39303" lon="6.08104">
        <ele>285.20001220703</ele>
        <time>2016-11-30T13:54:49Z</time>
      </trkpt>
      <trkpt lat="43.39302" lon="6.08106">
        <ele>285.39999389648</ele>
        <time>2016-11-30T13:54:50Z</time>
      </trkpt>
      <trkpt lat="43.39299" lon="6.08112">
        <ele>285.39999389648</ele>
        <time>2016-11-30T13:54:53Z</time>
      </trkpt>
      <trkpt lat="43.39291" lon="6.0813">
        <ele>285.79998779297</ele>
        <time>2016-11-30T13:55:00Z</time>
      </trkpt>
      <trkpt lat="43.3929" lon="6.08136">
        <ele>286.60000610352</ele>
        <time>2016-11-30T13:55:07Z</time>
      </trkpt>
      <trkpt lat="43.39289" lon="6.08139">
        <ele>286.60000610352</ele>
        <time>2016-11-30T13:55:10Z</time>
      </trkpt>
      <trkpt lat="43.3929" lon="6.08139">
        <ele>286.60000610352</ele>
        <time>2016-11-30T13:55:17Z</time>
      </trkpt>
      <trkpt lat="43.3929" lon="6.08139">
        <ele>286.60000610352</ele>
        <time>2016-11-30T13:55:20Z</time>
      </trkpt>
      <trkpt lat="43.3929" lon="6.08139">
        <ele>286.60000610352</ele>
        <time>2016-11-30T13:55:23Z</time>
      </trkpt>
      <trkpt lat="43.3929" lon="6.08141">
        <ele>286.79998779297</ele>
        <time>2016-11-30T13:55:27Z</time>
      </trkpt>
      <trkpt lat="43.3929" lon="6.08141">
        <ele>287.20001220703</ele>
        <time>2016-11-30T13:55:30Z</time>
      </trkpt>
      <trkpt lat="43.3929" lon="6.08141">
        <ele>287.20001220703</ele>
        <time>2016-11-30T13:55:34Z</time>
      </trkpt>
      <trkpt lat="43.3929" lon="6.08142">
        <ele>287.20001220703</ele>
        <time>2016-11-30T13:55:43Z</time>
      </trkpt>
      <trkpt lat="43.39289" lon="6.08142">
        <ele>286.60000610352</ele>
        <time>2016-11-30T13:55:50Z</time>
      </trkpt>
      <trkpt lat="43.39288" lon="6.08145">
        <ele>287</ele>
        <time>2016-11-30T13:56:00Z</time>
      </trkpt>
      <trkpt lat="43.39288" lon="6.08146">
        <ele>287.39999389648</ele>
        <time>2016-11-30T13:56:04Z</time>
      </trkpt>
      <trkpt lat="43.39288" lon="6.08149">
        <ele>287.39999389648</ele>
        <time>2016-11-30T13:56:10Z</time>
      </trkpt>
      <trkpt lat="43.39288" lon="6.08153">
        <ele>287.79998779297</ele>
        <time>2016-11-30T13:56:14Z</time>
      </trkpt>
      <trkpt lat="43.39288" lon="6.08155">
        <ele>288.20001220703</ele>
        <time>2016-11-30T13:56:20Z</time>
      </trkpt>
      <trkpt lat="43.39287" lon="6.08157">
        <ele>288.39999389648</ele>
        <time>2016-11-30T13:56:22Z</time>
      </trkpt>
      <trkpt lat="43.39285" lon="6.08165">
        <ele>288.39999389648</ele>
        <time>2016-11-30T13:56:26Z</time>
      </trkpt>
      <trkpt lat="43.39282" lon="6.08172">
        <ele>289</ele>
        <time>2016-11-30T13:56:29Z</time>
      </trkpt>
      <trkpt lat="43.39282" lon="6.08172">
        <ele>289</ele>
        <time>2016-11-30T13:56:30Z</time>
      </trkpt>
      <trkpt lat="43.39281" lon="6.08173">
        <ele>289.79998779297</ele>
        <time>2016-11-30T13:56:38Z</time>
      </trkpt>
      <trkpt lat="43.39281" lon="6.08175">
        <ele>290</ele>
        <time>2016-11-30T13:56:40Z</time>
      </trkpt>
      <trkpt lat="43.3928" lon="6.08177">
        <ele>290</ele>
        <time>2016-11-30T13:56:42Z</time>
      </trkpt>
      <trkpt lat="43.3928" lon="6.0818">
        <ele>290.20001220703</ele>
        <time>2016-11-30T13:56:44Z</time>
      </trkpt>
      <trkpt lat="43.3928" lon="6.08185">
        <ele>290.60000610352</ele>
        <time>2016-11-30T13:56:50Z</time>
      </trkpt>
      <trkpt lat="43.39278" lon="6.08187">
        <ele>291.20001220703</ele>
        <time>2016-11-30T13:56:54Z</time>
      </trkpt>
      <trkpt lat="43.39277" lon="6.08192">
        <ele>291.79998779297</ele>
        <time>2016-11-30T13:57:00Z</time>
      </trkpt>
      <trkpt lat="43.39276" lon="6.08194">
        <ele>291.79998779297</ele>
        <time>2016-11-30T13:57:08Z</time>
      </trkpt>
      <trkpt lat="43.39277" lon="6.08198">
        <ele>291.79998779297</ele>
        <time>2016-11-30T13:57:10Z</time>
      </trkpt>
      <trkpt lat="43.39277" lon="6.08209">
        <ele>292.20001220703</ele>
        <time>2016-11-30T13:57:15Z</time>
      </trkpt>
      <trkpt lat="43.39275" lon="6.0822">
        <ele>292.60000610352</ele>
        <time>2016-11-30T13:57:19Z</time>
      </trkpt>
      <trkpt lat="43.39275" lon="6.08222">
        <ele>292.60000610352</ele>
        <time>2016-11-30T13:57:20Z</time>
      </trkpt>
      <trkpt lat="43.39273" lon="6.08228">
        <ele>293.20001220703</ele>
        <time>2016-11-30T13:57:26Z</time>
      </trkpt>
      <trkpt lat="43.39273" lon="6.08229">
        <ele>293.60000610352</ele>
        <time>2016-11-30T13:57:30Z</time>
      </trkpt>
      <trkpt lat="43.39272" lon="6.0823">
        <ele>293.60000610352</ele>
        <time>2016-11-30T13:57:36Z</time>
      </trkpt>
      <trkpt lat="43.39271" lon="6.08233">
        <ele>294.20001220703</ele>
        <time>2016-11-30T13:57:39Z</time>
      </trkpt>
      <trkpt lat="43.39271" lon="6.08233">
        <ele>294.20001220703</ele>
        <time>2016-11-30T13:57:40Z</time>
      </trkpt>
      <trkpt lat="43.3927" lon="6.08238">
        <ele>294.39999389648</ele>
        <time>2016-11-30T13:57:48Z</time>
      </trkpt>
      <trkpt lat="43.3927" lon="6.08238">
        <ele>294.60000610352</ele>
        <time>2016-11-30T13:57:50Z</time>
      </trkpt>
      <trkpt lat="43.3927" lon="6.08239">
        <ele>294.60000610352</ele>
        <time>2016-11-30T13:57:52Z</time>
      </trkpt>
      <trkpt lat="43.39268" lon="6.08244">
        <ele>294.79998779297</ele>
        <time>2016-11-30T13:57:55Z</time>
      </trkpt>
      <trkpt lat="43.39268" lon="6.08252">
        <ele>295</ele>
        <time>2016-11-30T13:57:58Z</time>
      </trkpt>
      <trkpt lat="43.39266" lon="6.08257">
        <ele>295.20001220703</ele>
        <time>2016-11-30T13:58:00Z</time>
      </trkpt>
      <trkpt lat="43.39259" lon="6.08266">
        <ele>296.39999389648</ele>
        <time>2016-11-30T13:58:07Z</time>
      </trkpt>
      <trkpt lat="43.39258" lon="6.08267">
        <ele>296.39999389648</ele>
        <time>2016-11-30T13:58:08Z</time>
      </trkpt>
      <trkpt lat="43.39257" lon="6.08267">
        <ele>296.39999389648</ele>
        <time>2016-11-30T13:58:10Z</time>
      </trkpt>
      <trkpt lat="43.39255" lon="6.08269">
        <ele>297</ele>
        <time>2016-11-30T13:58:15Z</time>
      </trkpt>
      <trkpt lat="43.39254" lon="6.08271">
        <ele>297.39999389648</ele>
        <time>2016-11-30T13:58:18Z</time>
      </trkpt>
      <trkpt lat="43.39253" lon="6.08272">
        <ele>297.39999389648</ele>
        <time>2016-11-30T13:58:20Z</time>
      </trkpt>
      <trkpt lat="43.39251" lon="6.08273">
        <ele>297.39999389648</ele>
        <time>2016-11-30T13:58:28Z</time>
      </trkpt>
      <trkpt lat="43.39251" lon="6.08274">
        <ele>297.39999389648</ele>
        <time>2016-11-30T13:58:30Z</time>
      </trkpt>
      <trkpt lat="43.39247" lon="6.08277">
        <ele>297.60000610352</ele>
        <time>2016-11-30T13:58:33Z</time>
      </trkpt>
      <trkpt lat="43.39244" lon="6.08284">
        <ele>298.20001220703</ele>
        <time>2016-11-30T13:58:40Z</time>
      </trkpt>
      <trkpt lat="43.39245" lon="6.08285">
        <ele>298.39999389648</ele>
        <time>2016-11-30T13:58:44Z</time>
      </trkpt>
      <trkpt lat="43.39244" lon="6.08288">
        <ele>299.20001220703</ele>
        <time>2016-11-30T13:58:50Z</time>
      </trkpt>
      <trkpt lat="43.39242" lon="6.08291">
        <ele>299.39999389648</ele>
        <time>2016-11-30T13:58:57Z</time>
      </trkpt>
      <trkpt lat="43.39242" lon="6.08291">
        <ele>299.20001220703</ele>
        <time>2016-11-30T13:59:00Z</time>
      </trkpt>
      <trkpt lat="43.39242" lon="6.08291">
        <ele>299.39999389648</ele>
        <time>2016-11-30T13:59:07Z</time>
      </trkpt>
      <trkpt lat="43.39241" lon="6.08292">
        <ele>299.39999389648</ele>
        <time>2016-11-30T13:59:10Z</time>
      </trkpt>
      <trkpt lat="43.39241" lon="6.08292">
        <ele>299.39999389648</ele>
        <time>2016-11-30T13:59:11Z</time>
      </trkpt>
      <trkpt lat="43.3924" lon="6.08295">
        <ele>299.60000610352</ele>
        <time>2016-11-30T13:59:13Z</time>
      </trkpt>
      <trkpt lat="43.39236" lon="6.08304">
        <ele>299.60000610352</ele>
        <time>2016-11-30T13:59:18Z</time>
      </trkpt>
      <trkpt lat="43.39235" lon="6.08307">
        <ele>299.60000610352</ele>
        <time>2016-11-30T13:59:20Z</time>
      </trkpt>
      <trkpt lat="43.39235" lon="6.0831">
        <ele>300.39999389648</ele>
        <time>2016-11-30T13:59:23Z</time>
      </trkpt>
      <trkpt lat="43.39235" lon="6.0831">
        <ele>300.79998779297</ele>
        <time>2016-11-30T13:59:24Z</time>
      </trkpt>
      <trkpt lat="43.39235" lon="6.08311">
        <ele>301.79998779297</ele>
        <time>2016-11-30T13:59:30Z</time>
      </trkpt>
      <trkpt lat="43.39235" lon="6.08312">
        <ele>301.79998779297</ele>
        <time>2016-11-30T13:59:31Z</time>
      </trkpt>
      <trkpt lat="43.39233" lon="6.08317">
        <ele>302.20001220703</ele>
        <time>2016-11-30T13:59:37Z</time>
      </trkpt>
      <trkpt lat="43.39233" lon="6.08319">
        <ele>302.39999389648</ele>
        <time>2016-11-30T13:59:40Z</time>
      </trkpt>
      <trkpt lat="43.39234" lon="6.08322">
        <ele>302.39999389648</ele>
        <time>2016-11-30T13:59:50Z</time>
      </trkpt>
      <trkpt lat="43.39235" lon="6.08324">
        <ele>302.20001220703</ele>
        <time>2016-11-30T13:59:52Z</time>
      </trkpt>
      <trkpt lat="43.39232" lon="6.08327">
        <ele>302.79998779297</ele>
        <time>2016-11-30T13:59:57Z</time>
      </trkpt>
      <trkpt lat="43.39228" lon="6.08327">
        <ele>302.79998779297</ele>
        <time>2016-11-30T14:00:00Z</time>
      </trkpt>
      <trkpt lat="43.39227" lon="6.08328">
        <ele>303</ele>
        <time>2016-11-30T14:00:01Z</time>
      </trkpt>
      <trkpt lat="43.39225" lon="6.08329">
        <ele>303</ele>
        <time>2016-11-30T14:00:02Z</time>
      </trkpt>
      <trkpt lat="43.39223" lon="6.08335">
        <ele>303.39999389648</ele>
        <time>2016-11-30T14:00:05Z</time>
      </trkpt>
      <trkpt lat="43.39223" lon="6.08338">
        <ele>304</ele>
        <time>2016-11-30T14:00:07Z</time>
      </trkpt>
      <trkpt lat="43.39223" lon="6.08342">
        <ele>304.79998779297</ele>
        <time>2016-11-30T14:00:10Z</time>
      </trkpt>
      <trkpt lat="43.39223" lon="6.08343">
        <ele>305</ele>
        <time>2016-11-30T14:00:11Z</time>
      </trkpt>
      <trkpt lat="43.39222" lon="6.08344">
        <ele>305</ele>
        <time>2016-11-30T14:00:12Z</time>
      </trkpt>
      <trkpt lat="43.39222" lon="6.0835">
        <ele>305.20001220703</ele>
        <time>2016-11-30T14:00:15Z</time>
      </trkpt>
      <trkpt lat="43.39221" lon="6.08353">
        <ele>305.20001220703</ele>
        <time>2016-11-30T14:00:17Z</time>
      </trkpt>
      <trkpt lat="43.3922" lon="6.08358">
        <ele>305.39999389648</ele>
        <time>2016-11-30T14:00:20Z</time>
      </trkpt>
      <trkpt lat="43.39219" lon="6.08366">
        <ele>306.20001220703</ele>
        <time>2016-11-30T14:00:24Z</time>
      </trkpt>
      <trkpt lat="43.39218" lon="6.0837">
        <ele>306.39999389648</ele>
        <time>2016-11-30T14:00:27Z</time>
      </trkpt>
      <trkpt lat="43.39218" lon="6.0837">
        <ele>306.39999389648</ele>
        <time>2016-11-30T14:00:30Z</time>
      </trkpt>
      <trkpt lat="43.39218" lon="6.0837">
        <ele>306.39999389648</ele>
        <time>2016-11-30T14:00:34Z</time>
      </trkpt>
      <trkpt lat="43.39218" lon="6.0837">
        <ele>306.60000610352</ele>
        <time>2016-11-30T14:00:42Z</time>
      </trkpt>
      <trkpt lat="43.39218" lon="6.0837">
        <ele>306.60000610352</ele>
        <time>2016-11-30T14:00:43Z</time>
      </trkpt>
      <trkpt lat="43.39218" lon="6.0837">
        <ele>306.60000610352</ele>
        <time>2016-11-30T14:00:45Z</time>
      </trkpt>
      <trkpt lat="43.39218" lon="6.0837">
        <ele>306.60000610352</ele>
        <time>2016-11-30T14:00:47Z</time>
      </trkpt>
      <trkpt lat="43.39216" lon="6.08373">
        <ele>306.79998779297</ele>
        <time>2016-11-30T14:00:50Z</time>
      </trkpt>
      <trkpt lat="43.39214" lon="6.08378">
        <ele>307.20001220703</ele>
        <time>2016-11-30T14:00:52Z</time>
      </trkpt>
      <trkpt lat="43.39214" lon="6.08382">
        <ele>307.79998779297</ele>
        <time>2016-11-30T14:00:55Z</time>
      </trkpt>
      <trkpt lat="43.39214" lon="6.08382">
        <ele>308</ele>
        <time>2016-11-30T14:00:57Z</time>
      </trkpt>
      <trkpt lat="43.39214" lon="6.08383">
        <ele>308.20001220703</ele>
        <time>2016-11-30T14:00:59Z</time>
      </trkpt>
      <trkpt lat="43.39214" lon="6.08383">
        <ele>308.20001220703</ele>
        <time>2016-11-30T14:01:00Z</time>
      </trkpt>
      <trkpt lat="43.39214" lon="6.08384">
        <ele>308.20001220703</ele>
        <time>2016-11-30T14:01:01Z</time>
      </trkpt>
      <trkpt lat="43.39214" lon="6.08385">
        <ele>308.20001220703</ele>
        <time>2016-11-30T14:01:02Z</time>
      </trkpt>
      <trkpt lat="43.39215" lon="6.0839">
        <ele>308.20001220703</ele>
        <time>2016-11-30T14:01:09Z</time>
      </trkpt>
      <trkpt lat="43.39215" lon="6.08392">
        <ele>308.20001220703</ele>
        <time>2016-11-30T14:01:10Z</time>
      </trkpt>
      <trkpt lat="43.39214" lon="6.08399">
        <ele>308.20001220703</ele>
        <time>2016-11-30T14:01:13Z</time>
      </trkpt>
      <trkpt lat="43.39214" lon="6.08405">
        <ele>308.39999389648</ele>
        <time>2016-11-30T14:01:16Z</time>
      </trkpt>
      <trkpt lat="43.39213" lon="6.08408">
        <ele>308.60000610352</ele>
        <time>2016-11-30T14:01:18Z</time>
      </trkpt>
      <trkpt lat="43.39212" lon="6.08409">
        <ele>308.79998779297</ele>
        <time>2016-11-30T14:01:20Z</time>
      </trkpt>
      <trkpt lat="43.39212" lon="6.08409">
        <ele>309</ele>
        <time>2016-11-30T14:01:26Z</time>
      </trkpt>
      <trkpt lat="43.39212" lon="6.08409">
        <ele>309</ele>
        <time>2016-11-30T14:01:29Z</time>
      </trkpt>
      <trkpt lat="43.39212" lon="6.08409">
        <ele>309.20001220703</ele>
        <time>2016-11-30T14:01:31Z</time>
      </trkpt>
      <trkpt lat="43.39212" lon="6.08409">
        <ele>309.79998779297</ele>
        <time>2016-11-30T14:01:40Z</time>
      </trkpt>
      <trkpt lat="43.39211" lon="6.0841">
        <ele>309.79998779297</ele>
        <time>2016-11-30T14:01:46Z</time>
      </trkpt>
      <trkpt lat="43.3921" lon="6.08413">
        <ele>310.20001220703</ele>
        <time>2016-11-30T14:01:50Z</time>
      </trkpt>
      <trkpt lat="43.39209" lon="6.08413">
        <ele>310.20001220703</ele>
        <time>2016-11-30T14:01:51Z</time>
      </trkpt>
      <trkpt lat="43.39209" lon="6.08414">
        <ele>310.60000610352</ele>
        <time>2016-11-30T14:02:00Z</time>
      </trkpt>
      <trkpt lat="43.39209" lon="6.08417">
        <ele>310.60000610352</ele>
        <time>2016-11-30T14:02:02Z</time>
      </trkpt>
      <trkpt lat="43.39208" lon="6.08421">
        <ele>310.60000610352</ele>
        <time>2016-11-30T14:02:04Z</time>
      </trkpt>
      <trkpt lat="43.39207" lon="6.08427">
        <ele>311.20001220703</ele>
        <time>2016-11-30T14:02:06Z</time>
      </trkpt>
      <trkpt lat="43.39207" lon="6.0843">
        <ele>311.60000610352</ele>
        <time>2016-11-30T14:02:07Z</time>
      </trkpt>
      <trkpt lat="43.39207" lon="6.08433">
        <ele>312.79998779297</ele>
        <time>2016-11-30T14:02:09Z</time>
      </trkpt>
      <trkpt lat="43.39207" lon="6.08434">
        <ele>313</ele>
        <time>2016-11-30T14:02:10Z</time>
      </trkpt>
      <trkpt lat="43.39206" lon="6.08439">
        <ele>312.79998779297</ele>
        <time>2016-11-30T14:02:16Z</time>
      </trkpt>
      <trkpt lat="43.39207" lon="6.0844">
        <ele>313.20001220703</ele>
        <time>2016-11-30T14:02:20Z</time>
      </trkpt>
      <trkpt lat="43.39206" lon="6.08442">
        <ele>313.39999389648</ele>
        <time>2016-11-30T14:02:23Z</time>
      </trkpt>
      <trkpt lat="43.39206" lon="6.0845">
        <ele>313.39999389648</ele>
        <time>2016-11-30T14:02:27Z</time>
      </trkpt>
      <trkpt lat="43.39204" lon="6.08455">
        <ele>313.60000610352</ele>
        <time>2016-11-30T14:02:29Z</time>
      </trkpt>
      <trkpt lat="43.39204" lon="6.08457">
        <ele>313.79998779297</ele>
        <time>2016-11-30T14:02:30Z</time>
      </trkpt>
      <trkpt lat="43.39203" lon="6.08459">
        <ele>313.79998779297</ele>
        <time>2016-11-30T14:02:31Z</time>
      </trkpt>
      <trkpt lat="43.39201" lon="6.08471">
        <ele>314.79998779297</ele>
        <time>2016-11-30T14:02:36Z</time>
      </trkpt>
      <trkpt lat="43.392" lon="6.08479">
        <ele>315.39999389648</ele>
        <time>2016-11-30T14:02:40Z</time>
      </trkpt>
      <trkpt lat="43.392" lon="6.08494">
        <ele>316</ele>
        <time>2016-11-30T14:02:47Z</time>
      </trkpt>
      <trkpt lat="43.39199" lon="6.08497">
        <ele>316.39999389648</ele>
        <time>2016-11-30T14:02:50Z</time>
      </trkpt>
      <trkpt lat="43.39197" lon="6.08501">
        <ele>316.20001220703</ele>
        <time>2016-11-30T14:02:55Z</time>
      </trkpt>
      <trkpt lat="43.39197" lon="6.08501">
        <ele>316.39999389648</ele>
        <time>2016-11-30T14:02:59Z</time>
      </trkpt>
      <trkpt lat="43.39197" lon="6.08501">
        <ele>316.60000610352</ele>
        <time>2016-11-30T14:03:00Z</time>
      </trkpt>
      <trkpt lat="43.39197" lon="6.08501">
        <ele>316.79998779297</ele>
        <time>2016-11-30T14:03:04Z</time>
      </trkpt>
      <trkpt lat="43.39197" lon="6.08501">
        <ele>316.79998779297</ele>
        <time>2016-11-30T14:03:08Z</time>
      </trkpt>
      <trkpt lat="43.39196" lon="6.08501">
        <ele>316.79998779297</ele>
        <time>2016-11-30T14:03:10Z</time>
      </trkpt>
      <trkpt lat="43.39196" lon="6.08501">
        <ele>316.79998779297</ele>
        <time>2016-11-30T14:03:12Z</time>
      </trkpt>
      <trkpt lat="43.39196" lon="6.08502">
        <ele>317</ele>
        <time>2016-11-30T14:03:16Z</time>
      </trkpt>
      <trkpt lat="43.39196" lon="6.08502">
        <ele>317</ele>
        <time>2016-11-30T14:03:20Z</time>
      </trkpt>
      <trkpt lat="43.39195" lon="6.08501">
        <ele>316.79998779297</ele>
        <time>2016-11-30T14:03:23Z</time>
      </trkpt>
      <trkpt lat="43.39194" lon="6.085">
        <ele>316.79998779297</ele>
        <time>2016-11-30T14:03:30Z</time>
      </trkpt>
      <trkpt lat="43.39194" lon="6.085">
        <ele>317</ele>
        <time>2016-11-30T14:03:36Z</time>
      </trkpt>
      <trkpt lat="43.39196" lon="6.085">
        <ele>317</ele>
        <time>2016-11-30T14:03:50Z</time>
      </trkpt>
      <trkpt lat="43.39197" lon="6.085">
        <ele>316.60000610352</ele>
        <time>2016-11-30T14:04:10Z</time>
      </trkpt>
      <trkpt lat="43.39196" lon="6.085">
        <ele>316.39999389648</ele>
        <time>2016-11-30T14:04:20Z</time>
      </trkpt>
      <trkpt lat="43.39196" lon="6.08499">
        <ele>316.60000610352</ele>
        <time>2016-11-30T14:04:30Z</time>
      </trkpt>
      <trkpt lat="43.39196" lon="6.08501">
        <ele>316.79998779297</ele>
        <time>2016-11-30T14:04:40Z</time>
      </trkpt>
      <trkpt lat="43.39196" lon="6.08501">
        <ele>316.60000610352</ele>
        <time>2016-11-30T14:04:50Z</time>
      </trkpt>
      <trkpt lat="43.39196" lon="6.08503">
        <ele>316</ele>
        <time>2016-11-30T14:05:00Z</time>
      </trkpt>
      <trkpt lat="43.39194" lon="6.08505">
        <ele>316.20001220703</ele>
        <time>2016-11-30T14:05:04Z</time>
      </trkpt>
      <trkpt lat="43.39192" lon="6.08508">
        <ele>315.60000610352</ele>
        <time>2016-11-30T14:05:07Z</time>
      </trkpt>
      <trkpt lat="43.39191" lon="6.08517">
        <ele>315.20001220703</ele>
        <time>2016-11-30T14:05:10Z</time>
      </trkpt>
      <trkpt lat="43.3919" lon="6.0852">
        <ele>315</ele>
        <time>2016-11-30T14:05:11Z</time>
      </trkpt>
      <trkpt lat="43.39179" lon="6.08555">
        <ele>314.39999389648</ele>
        <time>2016-11-30T14:05:20Z</time>
      </trkpt>
      <trkpt lat="43.39176" lon="6.08565">
        <ele>314</ele>
        <time>2016-11-30T14:05:22Z</time>
      </trkpt>
      <trkpt lat="43.39173" lon="6.08582">
        <ele>313.60000610352</ele>
        <time>2016-11-30T14:05:25Z</time>
      </trkpt>
      <trkpt lat="43.39169" lon="6.08608">
        <ele>312.79998779297</ele>
        <time>2016-11-30T14:05:30Z</time>
      </trkpt>
      <trkpt lat="43.3916" lon="6.08646">
        <ele>312.60000610352</ele>
        <time>2016-11-30T14:05:40Z</time>
      </trkpt>
      <trkpt lat="43.39153" lon="6.08696">
        <ele>313</ele>
        <time>2016-11-30T14:05:50Z</time>
      </trkpt>
      <trkpt lat="43.3915" lon="6.08714">
        <ele>313</ele>
        <time>2016-11-30T14:05:54Z</time>
      </trkpt>
      <trkpt lat="43.39147" lon="6.08728">
        <ele>313.20001220703</ele>
        <time>2016-11-30T14:05:57Z</time>
      </trkpt>
      <trkpt lat="43.39145" lon="6.08741">
        <ele>313.79998779297</ele>
        <time>2016-11-30T14:06:00Z</time>
      </trkpt>
      <trkpt lat="43.39145" lon="6.08745">
        <ele>314</ele>
        <time>2016-11-30T14:06:01Z</time>
      </trkpt>
      <trkpt lat="43.3914" lon="6.08766">
        <ele>314.60000610352</ele>
        <time>2016-11-30T14:06:06Z</time>
      </trkpt>
      <trkpt lat="43.39135" lon="6.08783">
        <ele>314.79998779297</ele>
        <time>2016-11-30T14:06:10Z</time>
      </trkpt>
      <trkpt lat="43.39124" lon="6.08827">
        <ele>315</ele>
        <time>2016-11-30T14:06:20Z</time>
      </trkpt>
      <trkpt lat="43.39118" lon="6.0886">
        <ele>316</ele>
        <time>2016-11-30T14:06:28Z</time>
      </trkpt>
      <trkpt lat="43.39116" lon="6.08867">
        <ele>316.20001220703</ele>
        <time>2016-11-30T14:06:30Z</time>
      </trkpt>
      <trkpt lat="43.39109" lon="6.08903">
        <ele>316.60000610352</ele>
        <time>2016-11-30T14:06:40Z</time>
      </trkpt>
      <trkpt lat="43.39104" lon="6.08922">
        <ele>316.79998779297</ele>
        <time>2016-11-30T14:06:45Z</time>
      </trkpt>
      <trkpt lat="43.39101" lon="6.08934">
        <ele>317</ele>
        <time>2016-11-30T14:06:48Z</time>
      </trkpt>
      <trkpt lat="43.39099" lon="6.08942">
        <ele>317.20001220703</ele>
        <time>2016-11-30T14:06:50Z</time>
      </trkpt>
      <trkpt lat="43.39094" lon="6.08959">
        <ele>318</ele>
        <time>2016-11-30T14:06:55Z</time>
      </trkpt>
      <trkpt lat="43.39088" lon="6.08975">
        <ele>318.20001220703</ele>
        <time>2016-11-30T14:07:00Z</time>
      </trkpt>
      <trkpt lat="43.39076" lon="6.09002">
        <ele>318.79998779297</ele>
        <time>2016-11-30T14:07:10Z</time>
      </trkpt>
      <trkpt lat="43.39062" lon="6.09035">
        <ele>319</ele>
        <time>2016-11-30T14:07:19Z</time>
      </trkpt>
      <trkpt lat="43.3906" lon="6.09038">
        <ele>319.20001220703</ele>
        <time>2016-11-30T14:07:20Z</time>
      </trkpt>
      <trkpt lat="43.39045" lon="6.09071">
        <ele>319.79998779297</ele>
        <time>2016-11-30T14:07:30Z</time>
      </trkpt>
      <trkpt lat="43.39036" lon="6.09097">
        <ele>320.20001220703</ele>
        <time>2016-11-30T14:07:38Z</time>
      </trkpt>
      <trkpt lat="43.39034" lon="6.09102">
        <ele>320.60000610352</ele>
        <time>2016-11-30T14:07:40Z</time>
      </trkpt>
      <trkpt lat="43.39029" lon="6.09125">
        <ele>321</ele>
        <time>2016-11-30T14:07:47Z</time>
      </trkpt>
      <trkpt lat="43.39027" lon="6.09133">
        <ele>321</ele>
        <time>2016-11-30T14:07:49Z</time>
      </trkpt>
      <trkpt lat="43.39025" lon="6.09137">
        <ele>321.20001220703</ele>
        <time>2016-11-30T14:07:50Z</time>
      </trkpt>
      <trkpt lat="43.39024" lon="6.09145">
        <ele>321.20001220703</ele>
        <time>2016-11-30T14:07:52Z</time>
      </trkpt>
      <trkpt lat="43.39022" lon="6.09153">
        <ele>321.60000610352</ele>
        <time>2016-11-30T14:07:54Z</time>
      </trkpt>
      <trkpt lat="43.39018" lon="6.09166">
        <ele>321.79998779297</ele>
        <time>2016-11-30T14:07:58Z</time>
      </trkpt>
      <trkpt lat="43.39016" lon="6.09173">
        <ele>322</ele>
        <time>2016-11-30T14:08:00Z</time>
      </trkpt>
      <trkpt lat="43.39014" lon="6.09182">
        <ele>322.39999389648</ele>
        <time>2016-11-30T14:08:03Z</time>
      </trkpt>
      <trkpt lat="43.39009" lon="6.09208">
        <ele>322.60000610352</ele>
        <time>2016-11-30T14:08:10Z</time>
      </trkpt>
      <trkpt lat="43.39001" lon="6.09245">
        <ele>322.79998779297</ele>
        <time>2016-11-30T14:08:19Z</time>
      </trkpt>
      <trkpt lat="43.39" lon="6.0925">
        <ele>322.79998779297</ele>
        <time>2016-11-30T14:08:20Z</time>
      </trkpt>
      <trkpt lat="43.38992" lon="6.09277">
        <ele>323.79998779297</ele>
        <time>2016-11-30T14:08:28Z</time>
      </trkpt>
      <trkpt lat="43.38988" lon="6.09283">
        <ele>324.20001220703</ele>
        <time>2016-11-30T14:08:30Z</time>
      </trkpt>
      <trkpt lat="43.38981" lon="6.09294">
        <ele>325</ele>
        <time>2016-11-30T14:08:34Z</time>
      </trkpt>
      <trkpt lat="43.38971" lon="6.09309">
        <ele>326</ele>
        <time>2016-11-30T14:08:40Z</time>
      </trkpt>
      <trkpt lat="43.38956" lon="6.09337">
        <ele>326.60000610352</ele>
        <time>2016-11-30T14:08:50Z</time>
      </trkpt>
      <trkpt lat="43.38944" lon="6.09348">
        <ele>327</ele>
        <time>2016-11-30T14:08:56Z</time>
      </trkpt>
      <trkpt lat="43.38935" lon="6.09357">
        <ele>327</ele>
        <time>2016-11-30T14:09:00Z</time>
      </trkpt>
      <trkpt lat="43.38918" lon="6.09374">
        <ele>328</ele>
        <time>2016-11-30T14:09:09Z</time>
      </trkpt>
      <trkpt lat="43.38915" lon="6.09377">
        <ele>329</ele>
        <time>2016-11-30T14:09:11Z</time>
      </trkpt>
      <trkpt lat="43.38911" lon="6.09383">
        <ele>329.39999389648</ele>
        <time>2016-11-30T14:09:14Z</time>
      </trkpt>
      <trkpt lat="43.3891" lon="6.09385">
        <ele>329.60000610352</ele>
        <time>2016-11-30T14:09:15Z</time>
      </trkpt>
      <trkpt lat="43.38908" lon="6.09387">
        <ele>329.79998779297</ele>
        <time>2016-11-30T14:09:16Z</time>
      </trkpt>
      <trkpt lat="43.38907" lon="6.09389">
        <ele>330.20001220703</ele>
        <time>2016-11-30T14:09:17Z</time>
      </trkpt>
      <trkpt lat="43.38902" lon="6.09392">
        <ele>330.79998779297</ele>
        <time>2016-11-30T14:09:20Z</time>
      </trkpt>
      <trkpt lat="43.38901" lon="6.09394">
        <ele>331</ele>
        <time>2016-11-30T14:09:21Z</time>
      </trkpt>
      <trkpt lat="43.389" lon="6.09395">
        <ele>331</ele>
        <time>2016-11-30T14:09:23Z</time>
      </trkpt>
      <trkpt lat="43.389" lon="6.09396">
        <ele>331</ele>
        <time>2016-11-30T14:09:24Z</time>
      </trkpt>
      <trkpt lat="43.389" lon="6.09397">
        <ele>331</ele>
        <time>2016-11-30T14:09:30Z</time>
      </trkpt>
      <trkpt lat="43.389" lon="6.09397">
        <ele>331</ele>
        <time>2016-11-30T14:09:35Z</time>
      </trkpt>
      <trkpt lat="43.389" lon="6.09397">
        <ele>331</ele>
        <time>2016-11-30T14:09:36Z</time>
      </trkpt>
      <trkpt lat="43.389" lon="6.09397">
        <ele>331</ele>
        <time>2016-11-30T14:09:37Z</time>
      </trkpt>
      <trkpt lat="43.389" lon="6.09397">
        <ele>331</ele>
        <time>2016-11-30T14:09:38Z</time>
      </trkpt>
      <trkpt lat="43.389" lon="6.09397">
        <ele>331</ele>
        <time>2016-11-30T14:09:39Z</time>
      </trkpt>
      <trkpt lat="43.389" lon="6.09398">
        <ele>331</ele>
        <time>2016-11-30T14:09:40Z</time>
      </trkpt>
      <trkpt lat="43.38899" lon="6.09398">
        <ele>331</ele>
        <time>2016-11-30T14:09:42Z</time>
      </trkpt>
      <trkpt lat="43.389" lon="6.09398">
        <ele>331</ele>
        <time>2016-11-30T14:09:45Z</time>
      </trkpt>
      <trkpt lat="43.389" lon="6.09398">
        <ele>331</ele>
        <time>2016-11-30T14:09:47Z</time>
      </trkpt>
      <trkpt lat="43.38897" lon="6.09401">
        <ele>331.20001220703</ele>
        <time>2016-11-30T14:09:55Z</time>
      </trkpt>
      <trkpt lat="43.38895" lon="6.09403">
        <ele>331.39999389648</ele>
        <time>2016-11-30T14:09:57Z</time>
      </trkpt>
      <trkpt lat="43.38892" lon="6.09405">
        <ele>331.60000610352</ele>
        <time>2016-11-30T14:10:00Z</time>
      </trkpt>
      <trkpt lat="43.38892" lon="6.09409">
        <ele>332.20001220703</ele>
        <time>2016-11-30T14:10:10Z</time>
      </trkpt>
      <trkpt lat="43.38892" lon="6.0941">
        <ele>332.39999389648</ele>
        <time>2016-11-30T14:10:13Z</time>
      </trkpt>
      <trkpt lat="43.38892" lon="6.09412">
        <ele>332</ele>
        <time>2016-11-30T14:10:20Z</time>
      </trkpt>
      <trkpt lat="43.3889" lon="6.09412">
        <ele>332.20001220703</ele>
        <time>2016-11-30T14:10:24Z</time>
      </trkpt>
      <trkpt lat="43.38891" lon="6.09413">
        <ele>332.20001220703</ele>
        <time>2016-11-30T14:10:30Z</time>
      </trkpt>
      <trkpt lat="43.38892" lon="6.09417">
        <ele>332.20001220703</ele>
        <time>2016-11-30T14:10:35Z</time>
      </trkpt>
      <trkpt lat="43.3889" lon="6.0942">
        <ele>332.60000610352</ele>
        <time>2016-11-30T14:10:40Z</time>
      </trkpt>
      <trkpt lat="43.38889" lon="6.0942">
        <ele>333</ele>
        <time>2016-11-30T14:10:44Z</time>
      </trkpt>
      <trkpt lat="43.38888" lon="6.09421">
        <ele>333.20001220703</ele>
        <time>2016-11-30T14:10:50Z</time>
      </trkpt>
      <trkpt lat="43.38888" lon="6.09421">
        <ele>333.20001220703</ele>
        <time>2016-11-30T14:10:51Z</time>
      </trkpt>
      <trkpt lat="43.38886" lon="6.09422">
        <ele>333.39999389648</ele>
        <time>2016-11-30T14:11:00Z</time>
      </trkpt>
      <trkpt lat="43.38885" lon="6.09421">
        <ele>334.20001220703</ele>
        <time>2016-11-30T14:11:10Z</time>
      </trkpt>
      <trkpt lat="43.38883" lon="6.09426">
        <ele>334.20001220703</ele>
        <time>2016-11-30T14:11:20Z</time>
      </trkpt>
      <trkpt lat="43.38881" lon="6.09426">
        <ele>334.39999389648</ele>
        <time>2016-11-30T14:11:22Z</time>
      </trkpt>
      <trkpt lat="43.3888" lon="6.09429">
        <ele>335.20001220703</ele>
        <time>2016-11-30T14:11:30Z</time>
      </trkpt>
      <trkpt lat="43.38879" lon="6.09431">
        <ele>335</ele>
        <time>2016-11-30T14:11:40Z</time>
      </trkpt>
      <trkpt lat="43.38879" lon="6.09431">
        <ele>335</ele>
        <time>2016-11-30T14:11:43Z</time>
      </trkpt>
      <trkpt lat="43.38877" lon="6.09432">
        <ele>335</ele>
        <time>2016-11-30T14:11:50Z</time>
      </trkpt>
      <trkpt lat="43.38877" lon="6.09432">
        <ele>335</ele>
        <time>2016-11-30T14:11:51Z</time>
      </trkpt>
      <trkpt lat="43.38874" lon="6.09436">
        <ele>334.39999389648</ele>
        <time>2016-11-30T14:11:55Z</time>
      </trkpt>
      <trkpt lat="43.38875" lon="6.09436">
        <ele>334.39999389648</ele>
        <time>2016-11-30T14:11:58Z</time>
      </trkpt>
      <trkpt lat="43.38875" lon="6.09435">
        <ele>334.39999389648</ele>
        <time>2016-11-30T14:12:00Z</time>
      </trkpt>
      <trkpt lat="43.38875" lon="6.09434">
        <ele>334.20001220703</ele>
        <time>2016-11-30T14:12:04Z</time>
      </trkpt>
      <trkpt lat="43.38877" lon="6.09432">
        <ele>333.79998779297</ele>
        <time>2016-11-30T14:12:08Z</time>
      </trkpt>
      <trkpt lat="43.38877" lon="6.09432">
        <ele>333.79998779297</ele>
        <time>2016-11-30T14:12:10Z</time>
      </trkpt>
      <trkpt lat="43.38877" lon="6.09432">
        <ele>334.20001220703</ele>
        <time>2016-11-30T14:12:20Z</time>
      </trkpt>
      <trkpt lat="43.38878" lon="6.09431">
        <ele>333.79998779297</ele>
        <time>2016-11-30T14:12:30Z</time>
      </trkpt>
      <trkpt lat="43.38877" lon="6.09434">
        <ele>333.79998779297</ele>
        <time>2016-11-30T14:12:40Z</time>
      </trkpt>
      <trkpt lat="43.38876" lon="6.09435">
        <ele>334.39999389648</ele>
        <time>2016-11-30T14:12:50Z</time>
      </trkpt>
      <trkpt lat="43.38874" lon="6.09434">
        <ele>334.20001220703</ele>
        <time>2016-11-30T14:13:00Z</time>
      </trkpt>
      <trkpt lat="43.38875" lon="6.09433">
        <ele>334</ele>
        <time>2016-11-30T14:13:04Z</time>
      </trkpt>
      <trkpt lat="43.38875" lon="6.09433">
        <ele>334</ele>
        <time>2016-11-30T14:13:10Z</time>
      </trkpt>
      <trkpt lat="43.38875" lon="6.09432">
        <ele>334.20001220703</ele>
        <time>2016-11-30T14:13:20Z</time>
      </trkpt>
      <trkpt lat="43.38875" lon="6.09432">
        <ele>334</ele>
        <time>2016-11-30T14:13:25Z</time>
      </trkpt>
      <trkpt lat="43.38875" lon="6.09432">
        <ele>334</ele>
        <time>2016-11-30T14:13:28Z</time>
      </trkpt>
      <trkpt lat="43.38875" lon="6.09432">
        <ele>334.20001220703</ele>
        <time>2016-11-30T14:13:30Z</time>
      </trkpt>
      <trkpt lat="43.38875" lon="6.09433">
        <ele>334</ele>
        <time>2016-11-30T14:13:40Z</time>
      </trkpt>
      <trkpt lat="43.38876" lon="6.09432">
        <ele>333.79998779297</ele>
        <time>2016-11-30T14:13:44Z</time>
      </trkpt>
      <trkpt lat="43.38876" lon="6.09432">
        <ele>333.79998779297</ele>
        <time>2016-11-30T14:13:50Z</time>
      </trkpt>
      <trkpt lat="43.38877" lon="6.0943">
        <ele>334</ele>
        <time>2016-11-30T14:13:58Z</time>
      </trkpt>
      <trkpt lat="43.38877" lon="6.09431">
        <ele>333.79998779297</ele>
        <time>2016-11-30T14:14:00Z</time>
      </trkpt>
      <trkpt lat="43.38876" lon="6.09433">
        <ele>333.79998779297</ele>
        <time>2016-11-30T14:14:10Z</time>
      </trkpt>
      <trkpt lat="43.38877" lon="6.09434">
        <ele>333.79998779297</ele>
        <time>2016-11-30T14:14:20Z</time>
      </trkpt>
      <trkpt lat="43.38876" lon="6.09433">
        <ele>333.79998779297</ele>
        <time>2016-11-30T14:14:27Z</time>
      </trkpt>
      <trkpt lat="43.38876" lon="6.09433">
        <ele>333.79998779297</ele>
        <time>2016-11-30T14:14:30Z</time>
      </trkpt>
      <trkpt lat="43.38878" lon="6.09432">
        <ele>333.79998779297</ele>
        <time>2016-11-30T14:14:40Z</time>
      </trkpt>
      <trkpt lat="43.38878" lon="6.09432">
        <ele>333.79998779297</ele>
        <time>2016-11-30T14:14:47Z</time>
      </trkpt>
      <trkpt lat="43.38877" lon="6.09433">
        <ele>333.79998779297</ele>
        <time>2016-11-30T14:14:50Z</time>
      </trkpt>
      <trkpt lat="43.38877" lon="6.09433">
        <ele>333.79998779297</ele>
        <time>2016-11-30T14:15:00Z</time>
      </trkpt>
      <trkpt lat="43.38878" lon="6.09432">
        <ele>333.79998779297</ele>
        <time>2016-11-30T14:15:10Z</time>
      </trkpt>
      <trkpt lat="43.38878" lon="6.09433">
        <ele>333.79998779297</ele>
        <time>2016-11-30T14:15:20Z</time>
      </trkpt>
      <trkpt lat="43.38879" lon="6.09433">
        <ele>333.79998779297</ele>
        <time>2016-11-30T14:15:30Z</time>
      </trkpt>
      <trkpt lat="43.38879" lon="6.09433">
        <ele>333.79998779297</ele>
        <time>2016-11-30T14:15:40Z</time>
      </trkpt>
      <trkpt lat="43.38879" lon="6.09433">
        <ele>333.79998779297</ele>
        <time>2016-11-30T14:15:50Z</time>
      </trkpt>
      <trkpt lat="43.38879" lon="6.09433">
        <ele>333.79998779297</ele>
        <time>2016-11-30T14:16:00Z</time>
      </trkpt>
      <trkpt lat="43.38877" lon="6.09434">
        <ele>333.79998779297</ele>
        <time>2016-11-30T14:16:10Z</time>
      </trkpt>
      <trkpt lat="43.38878" lon="6.09434">
        <ele>333.79998779297</ele>
        <time>2016-11-30T14:16:20Z</time>
      </trkpt>
      <trkpt lat="43.38877" lon="6.09436">
        <ele>333.79998779297</ele>
        <time>2016-11-30T14:16:30Z</time>
      </trkpt>
      <trkpt lat="43.38876" lon="6.09436">
        <ele>333.79998779297</ele>
        <time>2016-11-30T14:16:44Z</time>
      </trkpt>
      <trkpt lat="43.38875" lon="6.09436">
        <ele>333.79998779297</ele>
        <time>2016-11-30T14:17:00Z</time>
      </trkpt>
      <trkpt lat="43.38875" lon="6.09435">
        <ele>333.79998779297</ele>
        <time>2016-11-30T14:17:10Z</time>
      </trkpt>
      <trkpt lat="43.38875" lon="6.09432">
        <ele>333.79998779297</ele>
        <time>2016-11-30T14:17:16Z</time>
      </trkpt>
      <trkpt lat="43.38874" lon="6.09431">
        <ele>333.79998779297</ele>
        <time>2016-11-30T14:17:20Z</time>
      </trkpt>
      <trkpt lat="43.38873" lon="6.0943">
        <ele>333.79998779297</ele>
        <time>2016-11-30T14:17:30Z</time>
      </trkpt>
      <trkpt lat="43.3887" lon="6.09431">
        <ele>333.79998779297</ele>
        <time>2016-11-30T14:17:40Z</time>
      </trkpt>
      <trkpt lat="43.38872" lon="6.09431">
        <ele>333.79998779297</ele>
        <time>2016-11-30T14:17:50Z</time>
      </trkpt>
      <trkpt lat="43.38872" lon="6.09431">
        <ele>333.79998779297</ele>
        <time>2016-11-30T14:18:00Z</time>
      </trkpt>
      <trkpt lat="43.38872" lon="6.09431">
        <ele>333.79998779297</ele>
        <time>2016-11-30T14:18:03Z</time>
      </trkpt>
      <trkpt lat="43.38871" lon="6.09429">
        <ele>333.79998779297</ele>
        <time>2016-11-30T14:18:09Z</time>
      </trkpt>
      <trkpt lat="43.3887" lon="6.09428">
        <ele>333.79998779297</ele>
        <time>2016-11-30T14:18:10Z</time>
      </trkpt>
      <trkpt lat="43.38869" lon="6.09428">
        <ele>333</ele>
        <time>2016-11-30T14:18:11Z</time>
      </trkpt>
      <trkpt lat="43.38868" lon="6.09425">
        <ele>331.79998779297</ele>
        <time>2016-11-30T14:18:13Z</time>
      </trkpt>
      <trkpt lat="43.3886" lon="6.09413">
        <ele>331.60000610352</ele>
        <time>2016-11-30T14:18:20Z</time>
      </trkpt>
      <trkpt lat="43.38857" lon="6.09409">
        <ele>330.79998779297</ele>
        <time>2016-11-30T14:18:22Z</time>
      </trkpt>
      <trkpt lat="43.38854" lon="6.09405">
        <ele>329.60000610352</ele>
        <time>2016-11-30T14:18:24Z</time>
      </trkpt>
      <trkpt lat="43.38848" lon="6.09394">
        <ele>328.39999389648</ele>
        <time>2016-11-30T14:18:28Z</time>
      </trkpt>
      <trkpt lat="43.38847" lon="6.09393">
        <ele>328.20001220703</ele>
        <time>2016-11-30T14:18:29Z</time>
      </trkpt>
      <trkpt lat="43.38845" lon="6.09391">
        <ele>328</ele>
        <time>2016-11-30T14:18:30Z</time>
      </trkpt>
      <trkpt lat="43.38842" lon="6.09397">
        <ele>327</ele>
        <time>2016-11-30T14:18:33Z</time>
      </trkpt>
      <trkpt lat="43.38841" lon="6.09404">
        <ele>325.60000610352</ele>
        <time>2016-11-30T14:18:35Z</time>
      </trkpt>
      <trkpt lat="43.38839" lon="6.0941">
        <ele>324.60000610352</ele>
        <time>2016-11-30T14:18:37Z</time>
      </trkpt>
      <trkpt lat="43.38838" lon="6.09418">
        <ele>323.60000610352</ele>
        <time>2016-11-30T14:18:40Z</time>
      </trkpt>
      <trkpt lat="43.38836" lon="6.0942">
        <ele>323.39999389648</ele>
        <time>2016-11-30T14:18:41Z</time>
      </trkpt>
      <trkpt lat="43.38833" lon="6.09433">
        <ele>323</ele>
        <time>2016-11-30T14:18:46Z</time>
      </trkpt>
      <trkpt lat="43.38831" lon="6.09442">
        <ele>323.39999389648</ele>
        <time>2016-11-30T14:18:50Z</time>
      </trkpt>
      <trkpt lat="43.3883" lon="6.09445">
        <ele>323.60000610352</ele>
        <time>2016-11-30T14:18:55Z</time>
      </trkpt>
      <trkpt lat="43.38829" lon="6.09446">
        <ele>323.60000610352</ele>
        <time>2016-11-30T14:19:00Z</time>
      </trkpt>
      <trkpt lat="43.38828" lon="6.0945">
        <ele>323.60000610352</ele>
        <time>2016-11-30T14:19:10Z</time>
      </trkpt>
      <trkpt lat="43.38829" lon="6.09452">
        <ele>323.60000610352</ele>
        <time>2016-11-30T14:19:20Z</time>
      </trkpt>
      <trkpt lat="43.38829" lon="6.09452">
        <ele>323.79998779297</ele>
        <time>2016-11-30T14:19:24Z</time>
      </trkpt>
      <trkpt lat="43.3883" lon="6.09453">
        <ele>323.79998779297</ele>
        <time>2016-11-30T14:19:30Z</time>
      </trkpt>
      <trkpt lat="43.38833" lon="6.09456">
        <ele>323.79998779297</ele>
        <time>2016-11-30T14:19:33Z</time>
      </trkpt>
      <trkpt lat="43.38842" lon="6.09458">
        <ele>325</ele>
        <time>2016-11-30T14:19:41Z</time>
      </trkpt>
      <trkpt lat="43.38844" lon="6.09461">
        <ele>325.60000610352</ele>
        <time>2016-11-30T14:19:43Z</time>
      </trkpt>
      <trkpt lat="43.38845" lon="6.09462">
        <ele>325.79998779297</ele>
        <time>2016-11-30T14:19:44Z</time>
      </trkpt>
      <trkpt lat="43.38846" lon="6.09463">
        <ele>326</ele>
        <time>2016-11-30T14:19:45Z</time>
      </trkpt>
      <trkpt lat="43.38846" lon="6.09464">
        <ele>326.39999389648</ele>
        <time>2016-11-30T14:19:46Z</time>
      </trkpt>
      <trkpt lat="43.38846" lon="6.09464">
        <ele>326.60000610352</ele>
        <time>2016-11-30T14:19:47Z</time>
      </trkpt>
      <trkpt lat="43.38847" lon="6.09464">
        <ele>326.79998779297</ele>
        <time>2016-11-30T14:19:49Z</time>
      </trkpt>
      <trkpt lat="43.38847" lon="6.09464">
        <ele>327</ele>
        <time>2016-11-30T14:19:51Z</time>
      </trkpt>
      <trkpt lat="43.38848" lon="6.09463">
        <ele>327.20001220703</ele>
        <time>2016-11-30T14:19:55Z</time>
      </trkpt>
      <trkpt lat="43.38849" lon="6.09463">
        <ele>327.60000610352</ele>
        <time>2016-11-30T14:20:00Z</time>
      </trkpt>
      <trkpt lat="43.3885" lon="6.09463">
        <ele>327.60000610352</ele>
        <time>2016-11-30T14:20:03Z</time>
      </trkpt>
      <trkpt lat="43.3885" lon="6.09462">
        <ele>328</ele>
        <time>2016-11-30T14:20:10Z</time>
      </trkpt>
      <trkpt lat="43.3885" lon="6.0946">
        <ele>327.20001220703</ele>
        <time>2016-11-30T14:20:15Z</time>
      </trkpt>
      <trkpt lat="43.3885" lon="6.0946">
        <ele>327.20001220703</ele>
        <time>2016-11-30T14:20:19Z</time>
      </trkpt>
      <trkpt lat="43.3885" lon="6.0946">
        <ele>327.39999389648</ele>
        <time>2016-11-30T14:20:25Z</time>
      </trkpt>
      <trkpt lat="43.3885" lon="6.0946">
        <ele>327.20001220703</ele>
        <time>2016-11-30T14:20:27Z</time>
      </trkpt>
      <trkpt lat="43.38849" lon="6.0946">
        <ele>327</ele>
        <time>2016-11-30T14:20:30Z</time>
      </trkpt>
      <trkpt lat="43.3885" lon="6.09458">
        <ele>327</ele>
        <time>2016-11-30T14:20:40Z</time>
      </trkpt>
      <trkpt lat="43.38848" lon="6.09459">
        <ele>327.39999389648</ele>
        <time>2016-11-30T14:20:46Z</time>
      </trkpt>
      <trkpt lat="43.38847" lon="6.09459">
        <ele>327.79998779297</ele>
        <time>2016-11-30T14:20:50Z</time>
      </trkpt>
      <trkpt lat="43.38847" lon="6.09461">
        <ele>328</ele>
        <time>2016-11-30T14:20:59Z</time>
      </trkpt>
      <trkpt lat="43.38846" lon="6.09461">
        <ele>328</ele>
        <time>2016-11-30T14:21:00Z</time>
      </trkpt>
      <trkpt lat="43.38846" lon="6.09461">
        <ele>328.20001220703</ele>
        <time>2016-11-30T14:21:04Z</time>
      </trkpt>
      <trkpt lat="43.38846" lon="6.09462">
        <ele>328.20001220703</ele>
        <time>2016-11-30T14:21:08Z</time>
      </trkpt>
      <trkpt lat="43.38846" lon="6.09462">
        <ele>328</ele>
        <time>2016-11-30T14:21:10Z</time>
      </trkpt>
      <trkpt lat="43.38847" lon="6.09462">
        <ele>326.79998779297</ele>
        <time>2016-11-30T14:21:17Z</time>
      </trkpt>
      <trkpt lat="43.38847" lon="6.09462">
        <ele>327</ele>
        <time>2016-11-30T14:21:20Z</time>
      </trkpt>
      <trkpt lat="43.38848" lon="6.09462">
        <ele>327</ele>
        <time>2016-11-30T14:21:30Z</time>
      </trkpt>
      <trkpt lat="43.38851" lon="6.0946">
        <ele>326.79998779297</ele>
        <time>2016-11-30T14:21:40Z</time>
      </trkpt>
      <trkpt lat="43.3885" lon="6.0946">
        <ele>327.39999389648</ele>
        <time>2016-11-30T14:21:50Z</time>
      </trkpt>
      <trkpt lat="43.3885" lon="6.09459">
        <ele>327.79998779297</ele>
        <time>2016-11-30T14:21:54Z</time>
      </trkpt>
      <trkpt lat="43.38851" lon="6.09459">
        <ele>327.79998779297</ele>
        <time>2016-11-30T14:22:00Z</time>
      </trkpt>
      <trkpt lat="43.3885" lon="6.09459">
        <ele>327.79998779297</ele>
        <time>2016-11-30T14:22:10Z</time>
      </trkpt>
      <trkpt lat="43.3885" lon="6.09459">
        <ele>327.79998779297</ele>
        <time>2016-11-30T14:22:13Z</time>
      </trkpt>
      <trkpt lat="43.38849" lon="6.09459">
        <ele>327.79998779297</ele>
        <time>2016-11-30T14:22:20Z</time>
      </trkpt>
      <trkpt lat="43.3885" lon="6.09459">
        <ele>327.79998779297</ele>
        <time>2016-11-30T14:22:30Z</time>
      </trkpt>
      <trkpt lat="43.38848" lon="6.09459">
        <ele>327.79998779297</ele>
        <time>2016-11-30T14:22:40Z</time>
      </trkpt>
      <trkpt lat="43.38847" lon="6.09461">
        <ele>327.79998779297</ele>
        <time>2016-11-30T14:22:50Z</time>
      </trkpt>
      <trkpt lat="43.38847" lon="6.09462">
        <ele>327.79998779297</ele>
        <time>2016-11-30T14:22:57Z</time>
      </trkpt>
      <trkpt lat="43.38848" lon="6.09463">
        <ele>327.79998779297</ele>
        <time>2016-11-30T14:23:00Z</time>
      </trkpt>
      <trkpt lat="43.3885" lon="6.09464">
        <ele>327.79998779297</ele>
        <time>2016-11-30T14:23:10Z</time>
      </trkpt>
      <trkpt lat="43.3885" lon="6.09464">
        <ele>327.79998779297</ele>
        <time>2016-11-30T14:23:20Z</time>
      </trkpt>
      <trkpt lat="43.38849" lon="6.09461">
        <ele>327.79998779297</ele>
        <time>2016-11-30T14:23:28Z</time>
      </trkpt>
      <trkpt lat="43.38849" lon="6.09461">
        <ele>327.79998779297</ele>
        <time>2016-11-30T14:23:30Z</time>
      </trkpt>
      <trkpt lat="43.38848" lon="6.09462">
        <ele>327.79998779297</ele>
        <time>2016-11-30T14:23:35Z</time>
      </trkpt>
      <trkpt lat="43.3885" lon="6.09463">
        <ele>327.79998779297</ele>
        <time>2016-11-30T14:23:40Z</time>
      </trkpt>
      <trkpt lat="43.3885" lon="6.09463">
        <ele>327.79998779297</ele>
        <time>2016-11-30T14:23:50Z</time>
      </trkpt>
      <trkpt lat="43.38851" lon="6.09461">
        <ele>327.79998779297</ele>
        <time>2016-11-30T14:23:57Z</time>
      </trkpt>
      <trkpt lat="43.38851" lon="6.09461">
        <ele>327.79998779297</ele>
        <time>2016-11-30T14:24:00Z</time>
      </trkpt>
      <trkpt lat="43.38851" lon="6.09461">
        <ele>327.79998779297</ele>
        <time>2016-11-30T14:24:10Z</time>
      </trkpt>
      <trkpt lat="43.38851" lon="6.09461">
        <ele>327.79998779297</ele>
        <time>2016-11-30T14:24:20Z</time>
      </trkpt>
      <trkpt lat="43.38852" lon="6.09461">
        <ele>327.79998779297</ele>
        <time>2016-11-30T14:24:29Z</time>
      </trkpt>
      <trkpt lat="43.38851" lon="6.0946">
        <ele>327.79998779297</ele>
        <time>2016-11-30T14:24:39Z</time>
      </trkpt>
      <trkpt lat="43.38851" lon="6.09461">
        <ele>327.79998779297</ele>
        <time>2016-11-30T14:24:50Z</time>
      </trkpt>
      <trkpt lat="43.38852" lon="6.09461">
        <ele>327.79998779297</ele>
        <time>2016-11-30T14:25:00Z</time>
      </trkpt>
      <trkpt lat="43.38855" lon="6.09462">
        <ele>327.79998779297</ele>
        <time>2016-11-30T14:25:10Z</time>
      </trkpt>
      <trkpt lat="43.38857" lon="6.09459">
        <ele>327.79998779297</ele>
        <time>2016-11-30T14:25:20Z</time>
      </trkpt>
      <trkpt lat="43.38858" lon="6.09458">
        <ele>327.79998779297</ele>
        <time>2016-11-30T14:25:24Z</time>
      </trkpt>
      <trkpt lat="43.38859" lon="6.0946">
        <ele>327.79998779297</ele>
        <time>2016-11-30T14:25:30Z</time>
      </trkpt>
      <trkpt lat="43.3886" lon="6.09461">
        <ele>327.79998779297</ele>
        <time>2016-11-30T14:25:37Z</time>
      </trkpt>
      <trkpt lat="43.38861" lon="6.09463">
        <ele>330.79998779297</ele>
        <time>2016-11-30T14:25:39Z</time>
      </trkpt>
      <trkpt lat="43.38862" lon="6.09464">
        <ele>331.79998779297</ele>
        <time>2016-11-30T14:25:40Z</time>
      </trkpt>
      <trkpt lat="43.38863" lon="6.09465">
        <ele>332.39999389648</ele>
        <time>2016-11-30T14:25:41Z</time>
      </trkpt>
      <trkpt lat="43.38864" lon="6.09466">
        <ele>332.79998779297</ele>
        <time>2016-11-30T14:25:42Z</time>
      </trkpt>
      <trkpt lat="43.38865" lon="6.09466">
        <ele>333.60000610352</ele>
        <time>2016-11-30T14:25:43Z</time>
      </trkpt>
      <trkpt lat="43.38866" lon="6.09467">
        <ele>333.39999389648</ele>
        <time>2016-11-30T14:25:44Z</time>
      </trkpt>
      <trkpt lat="43.38868" lon="6.09469">
        <ele>333.39999389648</ele>
        <time>2016-11-30T14:25:45Z</time>
      </trkpt>
      <trkpt lat="43.38869" lon="6.0947">
        <ele>333.39999389648</ele>
        <time>2016-11-30T14:25:46Z</time>
      </trkpt>
      <trkpt lat="43.38871" lon="6.09472">
        <ele>333.79998779297</ele>
        <time>2016-11-30T14:25:48Z</time>
      </trkpt>
      <trkpt lat="43.38872" lon="6.09472">
        <ele>334</ele>
        <time>2016-11-30T14:25:49Z</time>
      </trkpt>
      <trkpt lat="43.38872" lon="6.09472">
        <ele>334.20001220703</ele>
        <time>2016-11-30T14:25:50Z</time>
      </trkpt>
      <trkpt lat="43.38872" lon="6.09472">
        <ele>334.20001220703</ele>
        <time>2016-11-30T14:25:51Z</time>
      </trkpt>
      <trkpt lat="43.38872" lon="6.09472">
        <ele>334.20001220703</ele>
        <time>2016-11-30T14:25:52Z</time>
      </trkpt>
      <trkpt lat="43.38872" lon="6.09472">
        <ele>334.20001220703</ele>
        <time>2016-11-30T14:25:54Z</time>
      </trkpt>
      <trkpt lat="43.38872" lon="6.09473">
        <ele>334.20001220703</ele>
        <time>2016-11-30T14:25:56Z</time>
      </trkpt>
      <trkpt lat="43.38874" lon="6.09476">
        <ele>334.20001220703</ele>
        <time>2016-11-30T14:26:00Z</time>
      </trkpt>
      <trkpt lat="43.38874" lon="6.09477">
        <ele>334</ele>
        <time>2016-11-30T14:26:05Z</time>
      </trkpt>
      <trkpt lat="43.38874" lon="6.09476">
        <ele>334</ele>
        <time>2016-11-30T14:26:08Z</time>
      </trkpt>
      <trkpt lat="43.38873" lon="6.09476">
        <ele>334.20001220703</ele>
        <time>2016-11-30T14:26:29Z</time>
      </trkpt>
      <trkpt lat="43.38873" lon="6.09477">
        <ele>334.20001220703</ele>
        <time>2016-11-30T14:26:30Z</time>
      </trkpt>
      <trkpt lat="43.38874" lon="6.09477">
        <ele>334.20001220703</ele>
        <time>2016-11-30T14:26:32Z</time>
      </trkpt>
      <trkpt lat="43.38874" lon="6.09477">
        <ele>333.79998779297</ele>
        <time>2016-11-30T14:26:34Z</time>
      </trkpt>
      <trkpt lat="43.38874" lon="6.09477">
        <ele>333.60000610352</ele>
        <time>2016-11-30T14:26:36Z</time>
      </trkpt>
      <trkpt lat="43.38874" lon="6.09477">
        <ele>333.60000610352</ele>
        <time>2016-11-30T14:26:38Z</time>
      </trkpt>
      <trkpt lat="43.38874" lon="6.09477">
        <ele>333.39999389648</ele>
        <time>2016-11-30T14:26:50Z</time>
      </trkpt>
      <trkpt lat="43.38874" lon="6.09477">
        <ele>333.39999389648</ele>
        <time>2016-11-30T14:26:56Z</time>
      </trkpt>
      <trkpt lat="43.38873" lon="6.09477">
        <ele>334</ele>
        <time>2016-11-30T14:27:08Z</time>
      </trkpt>
      <trkpt lat="43.38873" lon="6.09477">
        <ele>334</ele>
        <time>2016-11-30T14:27:10Z</time>
      </trkpt>
      <trkpt lat="43.38873" lon="6.09477">
        <ele>334</ele>
        <time>2016-11-30T14:27:20Z</time>
      </trkpt>
      <trkpt lat="43.38873" lon="6.09478">
        <ele>334</ele>
        <time>2016-11-30T14:27:40Z</time>
      </trkpt>
      <trkpt lat="43.38874" lon="6.09478">
        <ele>334</ele>
        <time>2016-11-30T14:27:50Z</time>
      </trkpt>
      <trkpt lat="43.38874" lon="6.09477">
        <ele>334</ele>
        <time>2016-11-30T14:28:10Z</time>
      </trkpt>
      <trkpt lat="43.38874" lon="6.09476">
        <ele>334</ele>
        <time>2016-11-30T14:28:20Z</time>
      </trkpt>
      <trkpt lat="43.38874" lon="6.09475">
        <ele>334</ele>
        <time>2016-11-30T14:28:25Z</time>
      </trkpt>
      <trkpt lat="43.38874" lon="6.09475">
        <ele>334</ele>
        <time>2016-11-30T14:28:30Z</time>
      </trkpt>
      <trkpt lat="43.38875" lon="6.09475">
        <ele>334</ele>
        <time>2016-11-30T14:28:40Z</time>
      </trkpt>
      <trkpt lat="43.38876" lon="6.09474">
        <ele>334</ele>
        <time>2016-11-30T14:28:50Z</time>
      </trkpt>
      <trkpt lat="43.38876" lon="6.09475">
        <ele>334</ele>
        <time>2016-11-30T14:29:00Z</time>
      </trkpt>
      <trkpt lat="43.38876" lon="6.09471">
        <ele>334</ele>
        <time>2016-11-30T14:29:20Z</time>
      </trkpt>
      <trkpt lat="43.38876" lon="6.09471">
        <ele>334</ele>
        <time>2016-11-30T14:29:30Z</time>
      </trkpt>
      <trkpt lat="43.38876" lon="6.0947">
        <ele>334</ele>
        <time>2016-11-30T14:29:40Z</time>
      </trkpt>
      <trkpt lat="43.38875" lon="6.09469">
        <ele>334</ele>
        <time>2016-11-30T14:29:50Z</time>
      </trkpt>
      <trkpt lat="43.38874" lon="6.0947">
        <ele>334</ele>
        <time>2016-11-30T14:30:00Z</time>
      </trkpt>
      <trkpt lat="43.38874" lon="6.0947">
        <ele>334</ele>
        <time>2016-11-30T14:30:10Z</time>
      </trkpt>
      <trkpt lat="43.38873" lon="6.0947">
        <ele>334</ele>
        <time>2016-11-30T14:30:30Z</time>
      </trkpt>
      <trkpt lat="43.38874" lon="6.09473">
        <ele>334</ele>
        <time>2016-11-30T14:30:40Z</time>
      </trkpt>
      <trkpt lat="43.38873" lon="6.09474">
        <ele>334</ele>
        <time>2016-11-30T14:30:50Z</time>
      </trkpt>
      <trkpt lat="43.38873" lon="6.09474">
        <ele>334</ele>
        <time>2016-11-30T14:31:00Z</time>
      </trkpt>
      <trkpt lat="43.38873" lon="6.09476">
        <ele>334</ele>
        <time>2016-11-30T14:31:10Z</time>
      </trkpt>
      <trkpt lat="43.38873" lon="6.09476">
        <ele>334</ele>
        <time>2016-11-30T14:31:20Z</time>
      </trkpt>
      <trkpt lat="43.38873" lon="6.09476">
        <ele>334</ele>
        <time>2016-11-30T14:31:23Z</time>
      </trkpt>
      <trkpt lat="43.38873" lon="6.09476">
        <ele>334</ele>
        <time>2016-11-30T14:31:30Z</time>
      </trkpt>
      <trkpt lat="43.38873" lon="6.09476">
        <ele>334</ele>
        <time>2016-11-30T14:31:40Z</time>
      </trkpt>
      <trkpt lat="43.38874" lon="6.09477">
        <ele>334</ele>
        <time>2016-11-30T14:31:45Z</time>
      </trkpt>
      <trkpt lat="43.38874" lon="6.09482">
        <ele>333.39999389648</ele>
        <time>2016-11-30T14:31:48Z</time>
      </trkpt>
      <trkpt lat="43.38874" lon="6.09485">
        <ele>334</ele>
        <time>2016-11-30T14:31:50Z</time>
      </trkpt>
      <trkpt lat="43.38876" lon="6.09505">
        <ele>333.39999389648</ele>
        <time>2016-11-30T14:32:00Z</time>
      </trkpt>
      <trkpt lat="43.38877" lon="6.09532">
        <ele>333</ele>
        <time>2016-11-30T14:32:08Z</time>
      </trkpt>
      <trkpt lat="43.38877" lon="6.09536">
        <ele>333</ele>
        <time>2016-11-30T14:32:09Z</time>
      </trkpt>
      <trkpt lat="43.38877" lon="6.0954">
        <ele>333</ele>
        <time>2016-11-30T14:32:10Z</time>
      </trkpt>
      <trkpt lat="43.38881" lon="6.09588">
        <ele>332.20001220703</ele>
        <time>2016-11-30T14:32:20Z</time>
      </trkpt>
      <trkpt lat="43.38884" lon="6.09609">
        <ele>331.79998779297</ele>
        <time>2016-11-30T14:32:23Z</time>
      </trkpt>
      <trkpt lat="43.38897" lon="6.09635">
        <ele>331</ele>
        <time>2016-11-30T14:32:28Z</time>
      </trkpt>
      <trkpt lat="43.389" lon="6.09646">
        <ele>330.79998779297</ele>
        <time>2016-11-30T14:32:30Z</time>
      </trkpt>
      <trkpt lat="43.389" lon="6.09652">
        <ele>330.79998779297</ele>
        <time>2016-11-30T14:32:31Z</time>
      </trkpt>
      <trkpt lat="43.389" lon="6.09673">
        <ele>329.39999389648</ele>
        <time>2016-11-30T14:32:34Z</time>
      </trkpt>
      <trkpt lat="43.38902" lon="6.09706">
        <ele>328.20001220703</ele>
        <time>2016-11-30T14:32:38Z</time>
      </trkpt>
      <trkpt lat="43.38905" lon="6.09723">
        <ele>327.60000610352</ele>
        <time>2016-11-30T14:32:40Z</time>
      </trkpt>
      <trkpt lat="43.38906" lon="6.09742">
        <ele>326.79998779297</ele>
        <time>2016-11-30T14:32:42Z</time>
      </trkpt>
      <trkpt lat="43.38903" lon="6.09771">
        <ele>325.39999389648</ele>
        <time>2016-11-30T14:32:45Z</time>
      </trkpt>
      <trkpt lat="43.38902" lon="6.09782">
        <ele>324.79998779297</ele>
        <time>2016-11-30T14:32:46Z</time>
      </trkpt>
      <trkpt lat="43.38897" lon="6.09805">
        <ele>323.39999389648</ele>
        <time>2016-11-30T14:32:48Z</time>
      </trkpt>
      <trkpt lat="43.38893" lon="6.09828">
        <ele>321.60000610352</ele>
        <time>2016-11-30T14:32:50Z</time>
      </trkpt>
      <trkpt lat="43.38892" lon="6.09838">
        <ele>320.20001220703</ele>
        <time>2016-11-30T14:32:51Z</time>
      </trkpt>
      <trkpt lat="43.38891" lon="6.09849">
        <ele>319</ele>
        <time>2016-11-30T14:32:52Z</time>
      </trkpt>
      <trkpt lat="43.3889" lon="6.09861">
        <ele>317.60000610352</ele>
        <time>2016-11-30T14:32:53Z</time>
      </trkpt>
      <trkpt lat="43.38888" lon="6.09873">
        <ele>316.39999389648</ele>
        <time>2016-11-30T14:32:54Z</time>
      </trkpt>
      <trkpt lat="43.38886" lon="6.09885">
        <ele>315.20001220703</ele>
        <time>2016-11-30T14:32:55Z</time>
      </trkpt>
      <trkpt lat="43.3888" lon="6.09911">
        <ele>314</ele>
        <time>2016-11-30T14:32:57Z</time>
      </trkpt>
      <trkpt lat="43.38873" lon="6.09936">
        <ele>312</ele>
        <time>2016-11-30T14:32:59Z</time>
      </trkpt>
      <trkpt lat="43.38871" lon="6.09949">
        <ele>310.39999389648</ele>
        <time>2016-11-30T14:33:00Z</time>
      </trkpt>
      <trkpt lat="43.38868" lon="6.09962">
        <ele>309</ele>
        <time>2016-11-30T14:33:01Z</time>
      </trkpt>
      <trkpt lat="43.38867" lon="6.09975">
        <ele>307.60000610352</ele>
        <time>2016-11-30T14:33:02Z</time>
      </trkpt>
      <trkpt lat="43.38865" lon="6.10001">
        <ele>306.20001220703</ele>
        <time>2016-11-30T14:33:04Z</time>
      </trkpt>
      <trkpt lat="43.38863" lon="6.10013">
        <ele>305.60000610352</ele>
        <time>2016-11-30T14:33:05Z</time>
      </trkpt>
      <trkpt lat="43.3886" lon="6.10024">
        <ele>305</ele>
        <time>2016-11-30T14:33:06Z</time>
      </trkpt>
      <trkpt lat="43.38852" lon="6.10057">
        <ele>303.60000610352</ele>
        <time>2016-11-30T14:33:09Z</time>
      </trkpt>
      <trkpt lat="43.38848" lon="6.10068">
        <ele>302.60000610352</ele>
        <time>2016-11-30T14:33:10Z</time>
      </trkpt>
      <trkpt lat="43.38845" lon="6.10078">
        <ele>301.79998779297</ele>
        <time>2016-11-30T14:33:11Z</time>
      </trkpt>
      <trkpt lat="43.38842" lon="6.10089">
        <ele>301.20001220703</ele>
        <time>2016-11-30T14:33:12Z</time>
      </trkpt>
      <trkpt lat="43.38839" lon="6.10101">
        <ele>300.60000610352</ele>
        <time>2016-11-30T14:33:13Z</time>
      </trkpt>
      <trkpt lat="43.38833" lon="6.10121">
        <ele>299.60000610352</ele>
        <time>2016-11-30T14:33:15Z</time>
      </trkpt>
      <trkpt lat="43.38828" lon="6.10139">
        <ele>298.39999389648</ele>
        <time>2016-11-30T14:33:18Z</time>
      </trkpt>
      <trkpt lat="43.38827" lon="6.10146">
        <ele>298</ele>
        <time>2016-11-30T14:33:20Z</time>
      </trkpt>
      <trkpt lat="43.38827" lon="6.10149">
        <ele>298</ele>
        <time>2016-11-30T14:33:21Z</time>
      </trkpt>
      <trkpt lat="43.38827" lon="6.10152">
        <ele>297.79998779297</ele>
        <time>2016-11-30T14:33:23Z</time>
      </trkpt>
      <trkpt lat="43.38828" lon="6.10158">
        <ele>297.79998779297</ele>
        <time>2016-11-30T14:33:26Z</time>
      </trkpt>
      <trkpt lat="43.38828" lon="6.10162">
        <ele>297.79998779297</ele>
        <time>2016-11-30T14:33:30Z</time>
      </trkpt>
      <trkpt lat="43.38829" lon="6.10162">
        <ele>298</ele>
        <time>2016-11-30T14:33:40Z</time>
      </trkpt>
      <trkpt lat="43.38829" lon="6.10162">
        <ele>298</ele>
        <time>2016-11-30T14:33:45Z</time>
      </trkpt>
      <trkpt lat="43.38829" lon="6.10169">
        <ele>297.60000610352</ele>
        <time>2016-11-30T14:33:48Z</time>
      </trkpt>
      <trkpt lat="43.38829" lon="6.10172">
        <ele>297.39999389648</ele>
        <time>2016-11-30T14:33:49Z</time>
      </trkpt>
      <trkpt lat="43.3883" lon="6.10176">
        <ele>297.39999389648</ele>
        <time>2016-11-30T14:33:50Z</time>
      </trkpt>
      <trkpt lat="43.38828" lon="6.10184">
        <ele>297.39999389648</ele>
        <time>2016-11-30T14:33:52Z</time>
      </trkpt>
      <trkpt lat="43.38824" lon="6.10191">
        <ele>297.79998779297</ele>
        <time>2016-11-30T14:33:55Z</time>
      </trkpt>
      <trkpt lat="43.38822" lon="6.10195">
        <ele>298.39999389648</ele>
        <time>2016-11-30T14:33:58Z</time>
      </trkpt>
      <trkpt lat="43.38821" lon="6.10197">
        <ele>298.60000610352</ele>
        <time>2016-11-30T14:33:59Z</time>
      </trkpt>
      <trkpt lat="43.38821" lon="6.10198">
        <ele>298.79998779297</ele>
        <time>2016-11-30T14:34:00Z</time>
      </trkpt>
      <trkpt lat="43.38821" lon="6.10203">
        <ele>299.20001220703</ele>
        <time>2016-11-30T14:34:02Z</time>
      </trkpt>
      <trkpt lat="43.3882" lon="6.10206">
        <ele>299.60000610352</ele>
        <time>2016-11-30T14:34:04Z</time>
      </trkpt>
      <trkpt lat="43.3882" lon="6.10214">
        <ele>299.79998779297</ele>
        <time>2016-11-30T14:34:07Z</time>
      </trkpt>
      <trkpt lat="43.38821" lon="6.10224">
        <ele>300.20001220703</ele>
        <time>2016-11-30T14:34:10Z</time>
      </trkpt>
      <trkpt lat="43.38826" lon="6.10242">
        <ele>299.20001220703</ele>
        <time>2016-11-30T14:34:16Z</time>
      </trkpt>
      <trkpt lat="43.38828" lon="6.10249">
        <ele>298.60000610352</ele>
        <time>2016-11-30T14:34:18Z</time>
      </trkpt>
      <trkpt lat="43.38829" lon="6.10259">
        <ele>298.20001220703</ele>
        <time>2016-11-30T14:34:20Z</time>
      </trkpt>
      <trkpt lat="43.38832" lon="6.10277">
        <ele>297.60000610352</ele>
        <time>2016-11-30T14:34:23Z</time>
      </trkpt>
      <trkpt lat="43.38832" lon="6.10284">
        <ele>297.20001220703</ele>
        <time>2016-11-30T14:34:24Z</time>
      </trkpt>
      <trkpt lat="43.38833" lon="6.10305">
        <ele>296.60000610352</ele>
        <time>2016-11-30T14:34:27Z</time>
      </trkpt>
      <trkpt lat="43.38833" lon="6.10311">
        <ele>296.20001220703</ele>
        <time>2016-11-30T14:34:28Z</time>
      </trkpt>
      <trkpt lat="43.38833" lon="6.10324">
        <ele>295.79998779297</ele>
        <time>2016-11-30T14:34:30Z</time>
      </trkpt>
      <trkpt lat="43.38833" lon="6.10342">
        <ele>295.20001220703</ele>
        <time>2016-11-30T14:34:33Z</time>
      </trkpt>
      <trkpt lat="43.38834" lon="6.10385">
        <ele>294.20001220703</ele>
        <time>2016-11-30T14:34:40Z</time>
      </trkpt>
      <trkpt lat="43.38834" lon="6.10392">
        <ele>294</ele>
        <time>2016-11-30T14:34:41Z</time>
      </trkpt>
      <trkpt lat="43.38833" lon="6.10414">
        <ele>293</ele>
        <time>2016-11-30T14:34:44Z</time>
      </trkpt>
      <trkpt lat="43.38832" lon="6.10421">
        <ele>292.79998779297</ele>
        <time>2016-11-30T14:34:45Z</time>
      </trkpt>
      <trkpt lat="43.38831" lon="6.10434">
        <ele>292.20001220703</ele>
        <time>2016-11-30T14:34:47Z</time>
      </trkpt>
      <trkpt lat="43.38829" lon="6.10446">
        <ele>292</ele>
        <time>2016-11-30T14:34:49Z</time>
      </trkpt>
      <trkpt lat="43.38829" lon="6.10452">
        <ele>291.79998779297</ele>
        <time>2016-11-30T14:34:50Z</time>
      </trkpt>
      <trkpt lat="43.38828" lon="6.10464">
        <ele>291.39999389648</ele>
        <time>2016-11-30T14:34:53Z</time>
      </trkpt>
      <trkpt lat="43.38828" lon="6.10479">
        <ele>290.60000610352</ele>
        <time>2016-11-30T14:34:56Z</time>
      </trkpt>
      <trkpt lat="43.38826" lon="6.10485">
        <ele>290.20001220703</ele>
        <time>2016-11-30T14:34:57Z</time>
      </trkpt>
      <trkpt lat="43.38825" lon="6.10491">
        <ele>290.20001220703</ele>
        <time>2016-11-30T14:34:58Z</time>
      </trkpt>
      <trkpt lat="43.38823" lon="6.10503">
        <ele>290</ele>
        <time>2016-11-30T14:35:00Z</time>
      </trkpt>
      <trkpt lat="43.38819" lon="6.10515">
        <ele>289.39999389648</ele>
        <time>2016-11-30T14:35:02Z</time>
      </trkpt>
      <trkpt lat="43.38817" lon="6.1052">
        <ele>289.20001220703</ele>
        <time>2016-11-30T14:35:03Z</time>
      </trkpt>
      <trkpt lat="43.38813" lon="6.10548">
        <ele>288.20001220703</ele>
        <time>2016-11-30T14:35:10Z</time>
      </trkpt>
      <trkpt lat="43.38811" lon="6.10556">
        <ele>288.20001220703</ele>
        <time>2016-11-30T14:35:12Z</time>
      </trkpt>
      <trkpt lat="43.38808" lon="6.10562">
        <ele>288.20001220703</ele>
        <time>2016-11-30T14:35:14Z</time>
      </trkpt>
      <trkpt lat="43.38807" lon="6.10579">
        <ele>287.60000610352</ele>
        <time>2016-11-30T14:35:18Z</time>
      </trkpt>
      <trkpt lat="43.38806" lon="6.10585">
        <ele>287</ele>
        <time>2016-11-30T14:35:19Z</time>
      </trkpt>
      <trkpt lat="43.38805" lon="6.10591">
        <ele>286.60000610352</ele>
        <time>2016-11-30T14:35:20Z</time>
      </trkpt>
      <trkpt lat="43.38803" lon="6.10601">
        <ele>286</ele>
        <time>2016-11-30T14:35:22Z</time>
      </trkpt>
      <trkpt lat="43.38797" lon="6.10637">
        <ele>284.79998779297</ele>
        <time>2016-11-30T14:35:30Z</time>
      </trkpt>
      <trkpt lat="43.38793" lon="6.10657">
        <ele>283.79998779297</ele>
        <time>2016-11-30T14:35:39Z</time>
      </trkpt>
      <trkpt lat="43.38792" lon="6.10661">
        <ele>283.60000610352</ele>
        <time>2016-11-30T14:35:40Z</time>
      </trkpt>
      <trkpt lat="43.38779" lon="6.10711">
        <ele>282.60000610352</ele>
        <time>2016-11-30T14:35:51Z</time>
      </trkpt>
      <trkpt lat="43.38776" lon="6.10728">
        <ele>281.60000610352</ele>
        <time>2016-11-30T14:35:54Z</time>
      </trkpt>
      <trkpt lat="43.38775" lon="6.10733">
        <ele>281.60000610352</ele>
        <time>2016-11-30T14:35:55Z</time>
      </trkpt>
      <trkpt lat="43.38773" lon="6.10751">
        <ele>281.20001220703</ele>
        <time>2016-11-30T14:36:00Z</time>
      </trkpt>
      <trkpt lat="43.38773" lon="6.10752">
        <ele>281.20001220703</ele>
        <time>2016-11-30T14:36:10Z</time>
      </trkpt>
      <trkpt lat="43.38773" lon="6.10752">
        <ele>281</ele>
        <time>2016-11-30T14:36:20Z</time>
      </trkpt>
      <trkpt lat="43.38773" lon="6.10751">
        <ele>280.79998779297</ele>
        <time>2016-11-30T14:36:30Z</time>
      </trkpt>
      <trkpt lat="43.38773" lon="6.10751">
        <ele>280.60000610352</ele>
        <time>2016-11-30T14:36:40Z</time>
      </trkpt>
      <trkpt lat="43.3877" lon="6.10758">
        <ele>281</ele>
        <time>2016-11-30T14:36:47Z</time>
      </trkpt>
      <trkpt lat="43.38765" lon="6.10763">
        <ele>281</ele>
        <time>2016-11-30T14:36:50Z</time>
      </trkpt>
      <trkpt lat="43.38761" lon="6.10766">
        <ele>281.20001220703</ele>
        <time>2016-11-30T14:36:52Z</time>
      </trkpt>
      <trkpt lat="43.38755" lon="6.10767">
        <ele>281.79998779297</ele>
        <time>2016-11-30T14:36:55Z</time>
      </trkpt>
      <trkpt lat="43.38748" lon="6.10769">
        <ele>282.60000610352</ele>
        <time>2016-11-30T14:36:58Z</time>
      </trkpt>
      <trkpt lat="43.38745" lon="6.10771">
        <ele>282.60000610352</ele>
        <time>2016-11-30T14:36:59Z</time>
      </trkpt>
      <trkpt lat="43.38742" lon="6.10772">
        <ele>282.60000610352</ele>
        <time>2016-11-30T14:37:00Z</time>
      </trkpt>
      <trkpt lat="43.3874" lon="6.10774">
        <ele>282.79998779297</ele>
        <time>2016-11-30T14:37:02Z</time>
      </trkpt>
      <trkpt lat="43.38731" lon="6.10798">
        <ele>282</ele>
        <time>2016-11-30T14:37:09Z</time>
      </trkpt>
      <trkpt lat="43.38729" lon="6.108">
        <ele>282</ele>
        <time>2016-11-30T14:37:10Z</time>
      </trkpt>
      <trkpt lat="43.38715" lon="6.10804">
        <ele>282.79998779297</ele>
        <time>2016-11-30T14:37:16Z</time>
      </trkpt>
      <trkpt lat="43.38707" lon="6.1081">
        <ele>283.39999389648</ele>
        <time>2016-11-30T14:37:20Z</time>
      </trkpt>
      <trkpt lat="43.38702" lon="6.10816">
        <ele>283.60000610352</ele>
        <time>2016-11-30T14:37:23Z</time>
      </trkpt>
      <trkpt lat="43.38697" lon="6.10825">
        <ele>284</ele>
        <time>2016-11-30T14:37:26Z</time>
      </trkpt>
      <trkpt lat="43.38696" lon="6.10833">
        <ele>284.20001220703</ele>
        <time>2016-11-30T14:37:29Z</time>
      </trkpt>
      <trkpt lat="43.38695" lon="6.10835">
        <ele>284.20001220703</ele>
        <time>2016-11-30T14:37:30Z</time>
      </trkpt>
      <trkpt lat="43.38692" lon="6.10841">
        <ele>284.20001220703</ele>
        <time>2016-11-30T14:37:32Z</time>
      </trkpt>
      <trkpt lat="43.38691" lon="6.10849">
        <ele>284</ele>
        <time>2016-11-30T14:37:34Z</time>
      </trkpt>
      <trkpt lat="43.38686" lon="6.10874">
        <ele>283.20001220703</ele>
        <time>2016-11-30T14:37:40Z</time>
      </trkpt>
      <trkpt lat="43.38683" lon="6.10883">
        <ele>283</ele>
        <time>2016-11-30T14:37:42Z</time>
      </trkpt>
      <trkpt lat="43.38674" lon="6.10921">
        <ele>283.39999389648</ele>
        <time>2016-11-30T14:37:50Z</time>
      </trkpt>
      <trkpt lat="43.38665" lon="6.1096">
        <ele>284.20001220703</ele>
        <time>2016-11-30T14:38:00Z</time>
      </trkpt>
      <trkpt lat="43.38662" lon="6.10997">
        <ele>284.20001220703</ele>
        <time>2016-11-30T14:38:10Z</time>
      </trkpt>
      <trkpt lat="43.38652" lon="6.11004">
        <ele>284.79998779297</ele>
        <time>2016-11-30T14:38:17Z</time>
      </trkpt>
      <trkpt lat="43.38649" lon="6.11003">
        <ele>285.39999389648</ele>
        <time>2016-11-30T14:38:20Z</time>
      </trkpt>
      <trkpt lat="43.38646" lon="6.11003">
        <ele>285.79998779297</ele>
        <time>2016-11-30T14:38:22Z</time>
      </trkpt>
      <trkpt lat="43.38643" lon="6.11013">
        <ele>286.20001220703</ele>
        <time>2016-11-30T14:38:30Z</time>
      </trkpt>
      <trkpt lat="43.38645" lon="6.11016">
        <ele>286.39999389648</ele>
        <time>2016-11-30T14:38:35Z</time>
      </trkpt>
      <trkpt lat="43.38646" lon="6.11016">
        <ele>286.60000610352</ele>
        <time>2016-11-30T14:38:40Z</time>
      </trkpt>
      <trkpt lat="43.38646" lon="6.11016">
        <ele>286.39999389648</ele>
        <time>2016-11-30T14:38:45Z</time>
      </trkpt>
      <trkpt lat="43.38646" lon="6.11016">
        <ele>285.79998779297</ele>
        <time>2016-11-30T14:39:06Z</time>
      </trkpt>
      <trkpt lat="43.38649" lon="6.11018">
        <ele>285.60000610352</ele>
        <time>2016-11-30T14:39:08Z</time>
      </trkpt>
      <trkpt lat="43.38652" lon="6.11021">
        <ele>285.39999389648</ele>
        <time>2016-11-30T14:39:09Z</time>
      </trkpt>
      <trkpt lat="43.38654" lon="6.11023">
        <ele>285.20001220703</ele>
        <time>2016-11-30T14:39:10Z</time>
      </trkpt>
      <trkpt lat="43.3866" lon="6.11029">
        <ele>284.60000610352</ele>
        <time>2016-11-30T14:39:12Z</time>
      </trkpt>
      <trkpt lat="43.38668" lon="6.11036">
        <ele>284.20001220703</ele>
        <time>2016-11-30T14:39:14Z</time>
      </trkpt>
      <trkpt lat="43.38676" lon="6.11043">
        <ele>283.60000610352</ele>
        <time>2016-11-30T14:39:16Z</time>
      </trkpt>
      <trkpt lat="43.38684" lon="6.11049">
        <ele>283.20001220703</ele>
        <time>2016-11-30T14:39:18Z</time>
      </trkpt>
      <trkpt lat="43.38692" lon="6.11057">
        <ele>282.79998779297</ele>
        <time>2016-11-30T14:39:20Z</time>
      </trkpt>
      <trkpt lat="43.387" lon="6.11062">
        <ele>282.60000610352</ele>
        <time>2016-11-30T14:39:22Z</time>
      </trkpt>
      <trkpt lat="43.38706" lon="6.11066">
        <ele>282.39999389648</ele>
        <time>2016-11-30T14:39:24Z</time>
      </trkpt>
      <trkpt lat="43.38708" lon="6.11069">
        <ele>282</ele>
        <time>2016-11-30T14:39:25Z</time>
      </trkpt>
      <trkpt lat="43.3871" lon="6.11094">
        <ele>281.60000610352</ele>
        <time>2016-11-30T14:39:30Z</time>
      </trkpt>
      <trkpt lat="43.38735" lon="6.11111">
        <ele>281.79998779297</ele>
        <time>2016-11-30T14:39:40Z</time>
      </trkpt>
      <trkpt lat="43.38764" lon="6.1112">
        <ele>281.60000610352</ele>
        <time>2016-11-30T14:39:50Z</time>
      </trkpt>
      <trkpt lat="43.38774" lon="6.11123">
        <ele>281.39999389648</ele>
        <time>2016-11-30T14:39:53Z</time>
      </trkpt>
      <trkpt lat="43.38802" lon="6.11139">
        <ele>280.60000610352</ele>
        <time>2016-11-30T14:40:00Z</time>
      </trkpt>
      <trkpt lat="43.38806" lon="6.11141">
        <ele>280.39999389648</ele>
        <time>2016-11-30T14:40:01Z</time>
      </trkpt>
      <trkpt lat="43.38815" lon="6.11146">
        <ele>280.20001220703</ele>
        <time>2016-11-30T14:40:03Z</time>
      </trkpt>
      <trkpt lat="43.38844" lon="6.11166">
        <ele>279.20001220703</ele>
        <time>2016-11-30T14:40:10Z</time>
      </trkpt>
      <trkpt lat="43.38863" lon="6.11173">
        <ele>278.20001220703</ele>
        <time>2016-11-30T14:40:14Z</time>
      </trkpt>
      <trkpt lat="43.3888" lon="6.11178">
        <ele>277.60000610352</ele>
        <time>2016-11-30T14:40:20Z</time>
      </trkpt>
      <trkpt lat="43.38884" lon="6.11179">
        <ele>277.39999389648</ele>
        <time>2016-11-30T14:40:25Z</time>
      </trkpt>
      <trkpt lat="43.38889" lon="6.11178">
        <ele>277.20001220703</ele>
        <time>2016-11-30T14:40:30Z</time>
      </trkpt>
      <trkpt lat="43.38891" lon="6.11177">
        <ele>277.20001220703</ele>
        <time>2016-11-30T14:40:32Z</time>
      </trkpt>
      <trkpt lat="43.38895" lon="6.11179">
        <ele>277.20001220703</ele>
        <time>2016-11-30T14:40:40Z</time>
      </trkpt>
      <trkpt lat="43.38895" lon="6.11179">
        <ele>277.20001220703</ele>
        <time>2016-11-30T14:40:50Z</time>
      </trkpt>
      <trkpt lat="43.38895" lon="6.11179">
        <ele>277.39999389648</ele>
        <time>2016-11-30T14:41:00Z</time>
      </trkpt>
      <trkpt lat="43.38895" lon="6.11181">
        <ele>277.20001220703</ele>
        <time>2016-11-30T14:41:08Z</time>
      </trkpt>
      <trkpt lat="43.38896" lon="6.11183">
        <ele>277</ele>
        <time>2016-11-30T14:41:10Z</time>
      </trkpt>
      <trkpt lat="43.38896" lon="6.11185">
        <ele>276.79998779297</ele>
        <time>2016-11-30T14:41:12Z</time>
      </trkpt>
      <trkpt lat="43.38896" lon="6.11188">
        <ele>276.79998779297</ele>
        <time>2016-11-30T14:41:14Z</time>
      </trkpt>
      <trkpt lat="43.38898" lon="6.11191">
        <ele>276.60000610352</ele>
        <time>2016-11-30T14:41:19Z</time>
      </trkpt>
      <trkpt lat="43.389" lon="6.11192">
        <ele>276.39999389648</ele>
        <time>2016-11-30T14:41:20Z</time>
      </trkpt>
      <trkpt lat="43.389" lon="6.11192">
        <ele>276.20001220703</ele>
        <time>2016-11-30T14:41:21Z</time>
      </trkpt>
      <trkpt lat="43.38902" lon="6.11193">
        <ele>276</ele>
        <time>2016-11-30T14:41:22Z</time>
      </trkpt>
      <trkpt lat="43.38903" lon="6.11193">
        <ele>276</ele>
        <time>2016-11-30T14:41:23Z</time>
      </trkpt>
      <trkpt lat="43.38909" lon="6.11189">
        <ele>276.20001220703</ele>
        <time>2016-11-30T14:41:29Z</time>
      </trkpt>
      <trkpt lat="43.38914" lon="6.11184">
        <ele>276.79998779297</ele>
        <time>2016-11-30T14:41:37Z</time>
      </trkpt>
      <trkpt lat="43.38914" lon="6.11183">
        <ele>276.79998779297</ele>
        <time>2016-11-30T14:41:40Z</time>
      </trkpt>
      <trkpt lat="43.38915" lon="6.11183">
        <ele>276.79998779297</ele>
        <time>2016-11-30T14:41:50Z</time>
      </trkpt>
      <trkpt lat="43.38916" lon="6.11184">
        <ele>276.79998779297</ele>
        <time>2016-11-30T14:41:55Z</time>
      </trkpt>
      <trkpt lat="43.3892" lon="6.11185">
        <ele>277</ele>
        <time>2016-11-30T14:41:58Z</time>
      </trkpt>
      <trkpt lat="43.38924" lon="6.11186">
        <ele>277</ele>
        <time>2016-11-30T14:42:00Z</time>
      </trkpt>
      <trkpt lat="43.38926" lon="6.11186">
        <ele>277</ele>
        <time>2016-11-30T14:42:01Z</time>
      </trkpt>
      <trkpt lat="43.38947" lon="6.11193">
        <ele>277.79998779297</ele>
        <time>2016-11-30T14:42:10Z</time>
      </trkpt>
      <trkpt lat="43.38954" lon="6.11194">
        <ele>278.20001220703</ele>
        <time>2016-11-30T14:42:13Z</time>
      </trkpt>
      <trkpt lat="43.3896" lon="6.11192">
        <ele>278.39999389648</ele>
        <time>2016-11-30T14:42:16Z</time>
      </trkpt>
      <trkpt lat="43.38967" lon="6.11192">
        <ele>278.79998779297</ele>
        <time>2016-11-30T14:42:20Z</time>
      </trkpt>
      <trkpt lat="43.38971" lon="6.11192">
        <ele>279.60000610352</ele>
        <time>2016-11-30T14:42:22Z</time>
      </trkpt>
      <trkpt lat="43.38972" lon="6.11192">
        <ele>280</ele>
        <time>2016-11-30T14:42:23Z</time>
      </trkpt>
      <trkpt lat="43.38974" lon="6.11192">
        <ele>280.20001220703</ele>
        <time>2016-11-30T14:42:24Z</time>
      </trkpt>
      <trkpt lat="43.38983" lon="6.11191">
        <ele>281.39999389648</ele>
        <time>2016-11-30T14:42:30Z</time>
      </trkpt>
      <trkpt lat="43.38986" lon="6.11191">
        <ele>282</ele>
        <time>2016-11-30T14:42:32Z</time>
      </trkpt>
      <trkpt lat="43.38988" lon="6.1119">
        <ele>282.20001220703</ele>
        <time>2016-11-30T14:42:33Z</time>
      </trkpt>
      <trkpt lat="43.38989" lon="6.1119">
        <ele>282.39999389648</ele>
        <time>2016-11-30T14:42:34Z</time>
      </trkpt>
      <trkpt lat="43.38992" lon="6.11189">
        <ele>282.79998779297</ele>
        <time>2016-11-30T14:42:36Z</time>
      </trkpt>
      <trkpt lat="43.38998" lon="6.11188">
        <ele>283.79998779297</ele>
        <time>2016-11-30T14:42:39Z</time>
      </trkpt>
      <trkpt lat="43.39" lon="6.11188">
        <ele>284.20001220703</ele>
        <time>2016-11-30T14:42:40Z</time>
      </trkpt>
      <trkpt lat="43.39012" lon="6.11193">
        <ele>285</ele>
        <time>2016-11-30T14:42:47Z</time>
      </trkpt>
      <trkpt lat="43.39016" lon="6.11196">
        <ele>285.79998779297</ele>
        <time>2016-11-30T14:42:50Z</time>
      </trkpt>
      <trkpt lat="43.39019" lon="6.11198">
        <ele>286</ele>
        <time>2016-11-30T14:42:52Z</time>
      </trkpt>
      <trkpt lat="43.39024" lon="6.11203">
        <ele>286.39999389648</ele>
        <time>2016-11-30T14:42:55Z</time>
      </trkpt>
      <trkpt lat="43.39029" lon="6.11207">
        <ele>287.20001220703</ele>
        <time>2016-11-30T14:42:58Z</time>
      </trkpt>
      <trkpt lat="43.39032" lon="6.11211">
        <ele>287.20001220703</ele>
        <time>2016-11-30T14:43:00Z</time>
      </trkpt>
      <trkpt lat="43.39037" lon="6.11222">
        <ele>288.20001220703</ele>
        <time>2016-11-30T14:43:05Z</time>
      </trkpt>
      <trkpt lat="43.39042" lon="6.11232">
        <ele>288.60000610352</ele>
        <time>2016-11-30T14:43:10Z</time>
      </trkpt>
      <trkpt lat="43.39047" lon="6.11238">
        <ele>289</ele>
        <time>2016-11-30T14:43:14Z</time>
      </trkpt>
      <trkpt lat="43.39049" lon="6.11242">
        <ele>289</ele>
        <time>2016-11-30T14:43:16Z</time>
      </trkpt>
      <trkpt lat="43.39051" lon="6.11245">
        <ele>289.20001220703</ele>
        <time>2016-11-30T14:43:19Z</time>
      </trkpt>
      <trkpt lat="43.39051" lon="6.11246">
        <ele>289.20001220703</ele>
        <time>2016-11-30T14:43:20Z</time>
      </trkpt>
      <trkpt lat="43.39056" lon="6.11255">
        <ele>289.20001220703</ele>
        <time>2016-11-30T14:43:25Z</time>
      </trkpt>
      <trkpt lat="43.39059" lon="6.1126">
        <ele>289.39999389648</ele>
        <time>2016-11-30T14:43:28Z</time>
      </trkpt>
      <trkpt lat="43.39061" lon="6.11264">
        <ele>289.39999389648</ele>
        <time>2016-11-30T14:43:30Z</time>
      </trkpt>
      <trkpt lat="43.39063" lon="6.11266">
        <ele>289.39999389648</ele>
        <time>2016-11-30T14:43:31Z</time>
      </trkpt>
      <trkpt lat="43.39065" lon="6.1127">
        <ele>289.20001220703</ele>
        <time>2016-11-30T14:43:33Z</time>
      </trkpt>
      <trkpt lat="43.39068" lon="6.11275">
        <ele>289</ele>
        <time>2016-11-30T14:43:35Z</time>
      </trkpt>
      <trkpt lat="43.39073" lon="6.11285">
        <ele>288.79998779297</ele>
        <time>2016-11-30T14:43:38Z</time>
      </trkpt>
      <trkpt lat="43.39076" lon="6.11291">
        <ele>288.39999389648</ele>
        <time>2016-11-30T14:43:40Z</time>
      </trkpt>
      <trkpt lat="43.39079" lon="6.11297">
        <ele>288</ele>
        <time>2016-11-30T14:43:42Z</time>
      </trkpt>
      <trkpt lat="43.39083" lon="6.11304">
        <ele>287.79998779297</ele>
        <time>2016-11-30T14:43:45Z</time>
      </trkpt>
      <trkpt lat="43.39084" lon="6.11305">
        <ele>287.79998779297</ele>
        <time>2016-11-30T14:43:46Z</time>
      </trkpt>
      <trkpt lat="43.39086" lon="6.11304">
        <ele>287.60000610352</ele>
        <time>2016-11-30T14:43:49Z</time>
      </trkpt>
      <trkpt lat="43.39086" lon="6.11303">
        <ele>287.60000610352</ele>
        <time>2016-11-30T14:43:50Z</time>
      </trkpt>
      <trkpt lat="43.39087" lon="6.11303">
        <ele>287.60000610352</ele>
        <time>2016-11-30T14:43:54Z</time>
      </trkpt>
      <trkpt lat="43.39087" lon="6.11303">
        <ele>288</ele>
        <time>2016-11-30T14:44:00Z</time>
      </trkpt>
      <trkpt lat="43.39086" lon="6.11304">
        <ele>287.60000610352</ele>
        <time>2016-11-30T14:44:20Z</time>
      </trkpt>
      <trkpt lat="43.39086" lon="6.11308">
        <ele>287.60000610352</ele>
        <time>2016-11-30T14:44:30Z</time>
      </trkpt>
      <trkpt lat="43.39088" lon="6.11312">
        <ele>287.60000610352</ele>
        <time>2016-11-30T14:44:33Z</time>
      </trkpt>
      <trkpt lat="43.39095" lon="6.11326">
        <ele>287</ele>
        <time>2016-11-30T14:44:43Z</time>
      </trkpt>
      <trkpt lat="43.39096" lon="6.11329">
        <ele>287</ele>
        <time>2016-11-30T14:44:45Z</time>
      </trkpt>
      <trkpt lat="43.39099" lon="6.11335">
        <ele>287</ele>
        <time>2016-11-30T14:44:48Z</time>
      </trkpt>
      <trkpt lat="43.39101" lon="6.11338">
        <ele>286.79998779297</ele>
        <time>2016-11-30T14:44:50Z</time>
      </trkpt>
      <trkpt lat="43.39105" lon="6.11346">
        <ele>286.60000610352</ele>
        <time>2016-11-30T14:44:54Z</time>
      </trkpt>
      <trkpt lat="43.39114" lon="6.11361">
        <ele>286.20001220703</ele>
        <time>2016-11-30T14:45:00Z</time>
      </trkpt>
      <trkpt lat="43.3912" lon="6.11366">
        <ele>285.79998779297</ele>
        <time>2016-11-30T14:45:02Z</time>
      </trkpt>
      <trkpt lat="43.39133" lon="6.11377">
        <ele>284.79998779297</ele>
        <time>2016-11-30T14:45:07Z</time>
      </trkpt>
      <trkpt lat="43.39138" lon="6.11382">
        <ele>284.79998779297</ele>
        <time>2016-11-30T14:45:09Z</time>
      </trkpt>
      <trkpt lat="43.3914" lon="6.11385">
        <ele>284.79998779297</ele>
        <time>2016-11-30T14:45:10Z</time>
      </trkpt>
      <trkpt lat="43.39153" lon="6.11397">
        <ele>285</ele>
        <time>2016-11-30T14:45:15Z</time>
      </trkpt>
      <trkpt lat="43.39162" lon="6.11407">
        <ele>285</ele>
        <time>2016-11-30T14:45:19Z</time>
      </trkpt>
      <trkpt lat="43.39165" lon="6.11409">
        <ele>285.20001220703</ele>
        <time>2016-11-30T14:45:20Z</time>
      </trkpt>
      <trkpt lat="43.39181" lon="6.11419">
        <ele>285.39999389648</ele>
        <time>2016-11-30T14:45:26Z</time>
      </trkpt>
      <trkpt lat="43.39192" lon="6.11424">
        <ele>285.39999389648</ele>
        <time>2016-11-30T14:45:30Z</time>
      </trkpt>
      <trkpt lat="43.39203" lon="6.11429">
        <ele>285.79998779297</ele>
        <time>2016-11-30T14:45:34Z</time>
      </trkpt>
      <trkpt lat="43.39207" lon="6.1143">
        <ele>285.79998779297</ele>
        <time>2016-11-30T14:45:35Z</time>
      </trkpt>
      <trkpt lat="43.39215" lon="6.11434">
        <ele>286</ele>
        <time>2016-11-30T14:45:38Z</time>
      </trkpt>
      <trkpt lat="43.3922" lon="6.11436">
        <ele>286.20001220703</ele>
        <time>2016-11-30T14:45:40Z</time>
      </trkpt>
      <trkpt lat="43.39228" lon="6.11439">
        <ele>286.60000610352</ele>
        <time>2016-11-30T14:45:43Z</time>
      </trkpt>
      <trkpt lat="43.39233" lon="6.1144">
        <ele>287</ele>
        <time>2016-11-30T14:45:45Z</time>
      </trkpt>
      <trkpt lat="43.39241" lon="6.11444">
        <ele>287.39999389648</ele>
        <time>2016-11-30T14:45:48Z</time>
      </trkpt>
      <trkpt lat="43.39246" lon="6.11446">
        <ele>287.60000610352</ele>
        <time>2016-11-30T14:45:50Z</time>
      </trkpt>
      <trkpt lat="43.39252" lon="6.11451">
        <ele>288</ele>
        <time>2016-11-30T14:45:54Z</time>
      </trkpt>
      <trkpt lat="43.39258" lon="6.11453">
        <ele>288.79998779297</ele>
        <time>2016-11-30T14:46:00Z</time>
      </trkpt>
      <trkpt lat="43.39267" lon="6.11453">
        <ele>288.79998779297</ele>
        <time>2016-11-30T14:46:10Z</time>
      </trkpt>
      <trkpt lat="43.39276" lon="6.11454">
        <ele>288.79998779297</ele>
        <time>2016-11-30T14:46:16Z</time>
      </trkpt>
      <trkpt lat="43.39281" lon="6.1146">
        <ele>288.60000610352</ele>
        <time>2016-11-30T14:46:20Z</time>
      </trkpt>
      <trkpt lat="43.39297" lon="6.11466">
        <ele>289.20001220703</ele>
        <time>2016-11-30T14:46:30Z</time>
      </trkpt>
      <trkpt lat="43.39321" lon="6.11473">
        <ele>289.20001220703</ele>
        <time>2016-11-30T14:46:40Z</time>
      </trkpt>
      <trkpt lat="43.39344" lon="6.11478">
        <ele>290</ele>
        <time>2016-11-30T14:46:50Z</time>
      </trkpt>
      <trkpt lat="43.39349" lon="6.11479">
        <ele>290.20001220703</ele>
        <time>2016-11-30T14:46:52Z</time>
      </trkpt>
      <trkpt lat="43.39358" lon="6.11481">
        <ele>291</ele>
        <time>2016-11-30T14:46:57Z</time>
      </trkpt>
      <trkpt lat="43.39367" lon="6.11483">
        <ele>291.39999389648</ele>
        <time>2016-11-30T14:47:01Z</time>
      </trkpt>
      <trkpt lat="43.39381" lon="6.11487">
        <ele>292.39999389648</ele>
        <time>2016-11-30T14:47:08Z</time>
      </trkpt>
      <trkpt lat="43.39385" lon="6.11488">
        <ele>293</ele>
        <time>2016-11-30T14:47:10Z</time>
      </trkpt>
      <trkpt lat="43.39396" lon="6.11491">
        <ele>293.60000610352</ele>
        <time>2016-11-30T14:47:15Z</time>
      </trkpt>
      <trkpt lat="43.39405" lon="6.11493">
        <ele>293.79998779297</ele>
        <time>2016-11-30T14:47:20Z</time>
      </trkpt>
      <trkpt lat="43.39415" lon="6.11495">
        <ele>294.79998779297</ele>
        <time>2016-11-30T14:47:27Z</time>
      </trkpt>
      <trkpt lat="43.3942" lon="6.11495">
        <ele>295.20001220703</ele>
        <time>2016-11-30T14:47:30Z</time>
      </trkpt>
      <trkpt lat="43.39421" lon="6.11496">
        <ele>295.39999389648</ele>
        <time>2016-11-30T14:47:31Z</time>
      </trkpt>
      <trkpt lat="43.39426" lon="6.11497">
        <ele>295.79998779297</ele>
        <time>2016-11-30T14:47:34Z</time>
      </trkpt>
      <trkpt lat="43.39429" lon="6.11498">
        <ele>296.20001220703</ele>
        <time>2016-11-30T14:47:36Z</time>
      </trkpt>
      <trkpt lat="43.39434" lon="6.11498">
        <ele>297</ele>
        <time>2016-11-30T14:47:39Z</time>
      </trkpt>
      <trkpt lat="43.39436" lon="6.11498">
        <ele>297</ele>
        <time>2016-11-30T14:47:40Z</time>
      </trkpt>
      <trkpt lat="43.39447" lon="6.11496">
        <ele>297.20001220703</ele>
        <time>2016-11-30T14:47:46Z</time>
      </trkpt>
      <trkpt lat="43.39454" lon="6.11497">
        <ele>298</ele>
        <time>2016-11-30T14:47:50Z</time>
      </trkpt>
      <trkpt lat="43.39473" lon="6.11496">
        <ele>299.60000610352</ele>
        <time>2016-11-30T14:48:00Z</time>
      </trkpt>
      <trkpt lat="43.39482" lon="6.11496">
        <ele>300.20001220703</ele>
        <time>2016-11-30T14:48:05Z</time>
      </trkpt>
      <trkpt lat="43.39492" lon="6.11501">
        <ele>300.60000610352</ele>
        <time>2016-11-30T14:48:10Z</time>
      </trkpt>
      <trkpt lat="43.39502" lon="6.11503">
        <ele>301.39999389648</ele>
        <time>2016-11-30T14:48:16Z</time>
      </trkpt>
      <trkpt lat="43.39506" lon="6.11501">
        <ele>302</ele>
        <time>2016-11-30T14:48:20Z</time>
      </trkpt>
      <trkpt lat="43.39505" lon="6.11501">
        <ele>302.20001220703</ele>
        <time>2016-11-30T14:48:30Z</time>
      </trkpt>
      <trkpt lat="43.39505" lon="6.11501">
        <ele>302</ele>
        <time>2016-11-30T14:48:36Z</time>
      </trkpt>
      <trkpt lat="43.39505" lon="6.11501">
        <ele>302.39999389648</ele>
        <time>2016-11-30T14:48:56Z</time>
      </trkpt>
      <trkpt lat="43.39506" lon="6.11502">
        <ele>302.20001220703</ele>
        <time>2016-11-30T14:49:00Z</time>
      </trkpt>
      <trkpt lat="43.39506" lon="6.11502">
        <ele>302</ele>
        <time>2016-11-30T14:49:10Z</time>
      </trkpt>
      <trkpt lat="43.39507" lon="6.11505">
        <ele>302</ele>
        <time>2016-11-30T14:49:18Z</time>
      </trkpt>
      <trkpt lat="43.39508" lon="6.11507">
        <ele>301.79998779297</ele>
        <time>2016-11-30T14:49:20Z</time>
      </trkpt>
      <trkpt lat="43.39516" lon="6.11513">
        <ele>302.20001220703</ele>
        <time>2016-11-30T14:49:29Z</time>
      </trkpt>
      <trkpt lat="43.39516" lon="6.11513">
        <ele>302.20001220703</ele>
        <time>2016-11-30T14:49:30Z</time>
      </trkpt>
      <trkpt lat="43.39528" lon="6.11517">
        <ele>302.60000610352</ele>
        <time>2016-11-30T14:49:38Z</time>
      </trkpt>
      <trkpt lat="43.39531" lon="6.1152">
        <ele>302.79998779297</ele>
        <time>2016-11-30T14:49:40Z</time>
      </trkpt>
      <trkpt lat="43.39559" lon="6.11529">
        <ele>302.20001220703</ele>
        <time>2016-11-30T14:49:50Z</time>
      </trkpt>
      <trkpt lat="43.3957" lon="6.11526">
        <ele>302.20001220703</ele>
        <time>2016-11-30T14:49:54Z</time>
      </trkpt>
      <trkpt lat="43.39576" lon="6.11522">
        <ele>302.39999389648</ele>
        <time>2016-11-30T14:49:57Z</time>
      </trkpt>
      <trkpt lat="43.39583" lon="6.11517">
        <ele>303</ele>
        <time>2016-11-30T14:50:00Z</time>
      </trkpt>
      <trkpt lat="43.39592" lon="6.11508">
        <ele>303.60000610352</ele>
        <time>2016-11-30T14:50:04Z</time>
      </trkpt>
      <trkpt lat="43.39602" lon="6.11491">
        <ele>304</ele>
        <time>2016-11-30T14:50:10Z</time>
      </trkpt>
      <trkpt lat="43.39609" lon="6.11474">
        <ele>304.79998779297</ele>
        <time>2016-11-30T14:50:16Z</time>
      </trkpt>
      <trkpt lat="43.39611" lon="6.11462">
        <ele>305.20001220703</ele>
        <time>2016-11-30T14:50:20Z</time>
      </trkpt>
      <trkpt lat="43.39612" lon="6.11456">
        <ele>305.79998779297</ele>
        <time>2016-11-30T14:50:22Z</time>
      </trkpt>
      <trkpt lat="43.39615" lon="6.11444">
        <ele>306</ele>
        <time>2016-11-30T14:50:26Z</time>
      </trkpt>
      <trkpt lat="43.39619" lon="6.11431">
        <ele>306.39999389648</ele>
        <time>2016-11-30T14:50:30Z</time>
      </trkpt>
      <trkpt lat="43.39624" lon="6.11419">
        <ele>306.79998779297</ele>
        <time>2016-11-30T14:50:34Z</time>
      </trkpt>
      <trkpt lat="43.39627" lon="6.11408">
        <ele>307.20001220703</ele>
        <time>2016-11-30T14:50:38Z</time>
      </trkpt>
      <trkpt lat="43.3963" lon="6.11393">
        <ele>307.79998779297</ele>
        <time>2016-11-30T14:50:43Z</time>
      </trkpt>
      <trkpt lat="43.39632" lon="6.1138">
        <ele>309</ele>
        <time>2016-11-30T14:50:48Z</time>
      </trkpt>
      <trkpt lat="43.39633" lon="6.11375">
        <ele>309.39999389648</ele>
        <time>2016-11-30T14:50:50Z</time>
      </trkpt>
      <trkpt lat="43.39633" lon="6.11368">
        <ele>309.79998779297</ele>
        <time>2016-11-30T14:50:53Z</time>
      </trkpt>
      <trkpt lat="43.39634" lon="6.1135">
        <ele>310.79998779297</ele>
        <time>2016-11-30T14:51:00Z</time>
      </trkpt>
      <trkpt lat="43.39636" lon="6.11337">
        <ele>311.39999389648</ele>
        <time>2016-11-30T14:51:05Z</time>
      </trkpt>
      <trkpt lat="43.39639" lon="6.11322">
        <ele>311.39999389648</ele>
        <time>2016-11-30T14:51:10Z</time>
      </trkpt>
      <trkpt lat="43.39643" lon="6.11306">
        <ele>311.20001220703</ele>
        <time>2016-11-30T14:51:15Z</time>
      </trkpt>
      <trkpt lat="43.39645" lon="6.11295">
        <ele>311</ele>
        <time>2016-11-30T14:51:18Z</time>
      </trkpt>
      <trkpt lat="43.39647" lon="6.11288">
        <ele>311</ele>
        <time>2016-11-30T14:51:20Z</time>
      </trkpt>
      <trkpt lat="43.3965" lon="6.11272">
        <ele>310.20001220703</ele>
        <time>2016-11-30T14:51:24Z</time>
      </trkpt>
      <trkpt lat="43.39654" lon="6.11251">
        <ele>309.39999389648</ele>
        <time>2016-11-30T14:51:29Z</time>
      </trkpt>
      <trkpt lat="43.39655" lon="6.11247">
        <ele>309.39999389648</ele>
        <time>2016-11-30T14:51:30Z</time>
      </trkpt>
      <trkpt lat="43.39655" lon="6.11243">
        <ele>309.20001220703</ele>
        <time>2016-11-30T14:51:31Z</time>
      </trkpt>
      <trkpt lat="43.39657" lon="6.11234">
        <ele>308.79998779297</ele>
        <time>2016-11-30T14:51:35Z</time>
      </trkpt>
      <trkpt lat="43.39658" lon="6.11232">
        <ele>308.60000610352</ele>
        <time>2016-11-30T14:51:40Z</time>
      </trkpt>
      <trkpt lat="43.39659" lon="6.11231">
        <ele>308.79998779297</ele>
        <time>2016-11-30T14:51:44Z</time>
      </trkpt>
      <trkpt lat="43.39659" lon="6.11231">
        <ele>308.79998779297</ele>
        <time>2016-11-30T14:51:50Z</time>
      </trkpt>
      <trkpt lat="43.3966" lon="6.11229">
        <ele>308.60000610352</ele>
        <time>2016-11-30T14:52:20Z</time>
      </trkpt>
      <trkpt lat="43.3966" lon="6.11229">
        <ele>309</ele>
        <time>2016-11-30T14:52:40Z</time>
      </trkpt>
      <trkpt lat="43.3966" lon="6.11229">
        <ele>308.79998779297</ele>
        <time>2016-11-30T14:53:10Z</time>
      </trkpt>
      <trkpt lat="43.3966" lon="6.11227">
        <ele>308.79998779297</ele>
        <time>2016-11-30T14:53:15Z</time>
      </trkpt>
      <trkpt lat="43.39662" lon="6.11221">
        <ele>308.39999389648</ele>
        <time>2016-11-30T14:53:17Z</time>
      </trkpt>
      <trkpt lat="43.39664" lon="6.11212">
        <ele>308</ele>
        <time>2016-11-30T14:53:19Z</time>
      </trkpt>
      <trkpt lat="43.39665" lon="6.11207">
        <ele>307.79998779297</ele>
        <time>2016-11-30T14:53:20Z</time>
      </trkpt>
      <trkpt lat="43.39668" lon="6.11199">
        <ele>306.79998779297</ele>
        <time>2016-11-30T14:53:22Z</time>
      </trkpt>
      <trkpt lat="43.39671" lon="6.11191">
        <ele>305.79998779297</ele>
        <time>2016-11-30T14:53:24Z</time>
      </trkpt>
      <trkpt lat="43.39672" lon="6.11179">
        <ele>304.60000610352</ele>
        <time>2016-11-30T14:53:27Z</time>
      </trkpt>
      <trkpt lat="43.39673" lon="6.11165">
        <ele>303.79998779297</ele>
        <time>2016-11-30T14:53:30Z</time>
      </trkpt>
      <trkpt lat="43.39674" lon="6.11157">
        <ele>303.39999389648</ele>
        <time>2016-11-30T14:53:32Z</time>
      </trkpt>
      <trkpt lat="43.39679" lon="6.11133">
        <ele>302.20001220703</ele>
        <time>2016-11-30T14:53:37Z</time>
      </trkpt>
      <trkpt lat="43.39685" lon="6.11116">
        <ele>300.79998779297</ele>
        <time>2016-11-30T14:53:40Z</time>
      </trkpt>
      <trkpt lat="43.39687" lon="6.11088">
        <ele>300.20001220703</ele>
        <time>2016-11-30T14:53:44Z</time>
      </trkpt>
      <trkpt lat="43.39686" lon="6.11079">
        <ele>300</ele>
        <time>2016-11-30T14:53:45Z</time>
      </trkpt>
      <trkpt lat="43.39685" lon="6.11071">
        <ele>299.60000610352</ele>
        <time>2016-11-30T14:53:46Z</time>
      </trkpt>
      <trkpt lat="43.39685" lon="6.11053">
        <ele>298.60000610352</ele>
        <time>2016-11-30T14:53:49Z</time>
      </trkpt>
      <trkpt lat="43.39685" lon="6.11047">
        <ele>298.39999389648</ele>
        <time>2016-11-30T14:53:50Z</time>
      </trkpt>
      <trkpt lat="43.39684" lon="6.11034">
        <ele>298</ele>
        <time>2016-11-30T14:53:52Z</time>
      </trkpt>
      <trkpt lat="43.39681" lon="6.11016">
        <ele>297.79998779297</ele>
        <time>2016-11-30T14:53:55Z</time>
      </trkpt>
      <trkpt lat="43.39676" lon="6.11001">
        <ele>297.39999389648</ele>
        <time>2016-11-30T14:53:58Z</time>
      </trkpt>
      <trkpt lat="43.39674" lon="6.10991">
        <ele>296.79998779297</ele>
        <time>2016-11-30T14:54:00Z</time>
      </trkpt>
      <trkpt lat="43.3967" lon="6.10968">
        <ele>296.39999389648</ele>
        <time>2016-11-30T14:54:04Z</time>
      </trkpt>
      <trkpt lat="43.39659" lon="6.10939">
        <ele>295.39999389648</ele>
        <time>2016-11-30T14:54:10Z</time>
      </trkpt>
      <trkpt lat="43.39656" lon="6.10917">
        <ele>294.39999389648</ele>
        <time>2016-11-30T14:54:13Z</time>
      </trkpt>
      <trkpt lat="43.39649" lon="6.10896">
        <ele>293.39999389648</ele>
        <time>2016-11-30T14:54:16Z</time>
      </trkpt>
      <trkpt lat="43.39647" lon="6.10889">
        <ele>292.79998779297</ele>
        <time>2016-11-30T14:54:17Z</time>
      </trkpt>
      <trkpt lat="43.39639" lon="6.10872">
        <ele>291.79998779297</ele>
        <time>2016-11-30T14:54:20Z</time>
      </trkpt>
      <trkpt lat="43.39637" lon="6.10867">
        <ele>291.20001220703</ele>
        <time>2016-11-30T14:54:21Z</time>
      </trkpt>
      <trkpt lat="43.39634" lon="6.10853">
        <ele>290.20001220703</ele>
        <time>2016-11-30T14:54:25Z</time>
      </trkpt>
      <trkpt lat="43.39632" lon="6.10849">
        <ele>290</ele>
        <time>2016-11-30T14:54:26Z</time>
      </trkpt>
      <trkpt lat="43.39622" lon="6.10825">
        <ele>289.79998779297</ele>
        <time>2016-11-30T14:54:30Z</time>
      </trkpt>
      <trkpt lat="43.39616" lon="6.10806">
        <ele>289</ele>
        <time>2016-11-30T14:54:33Z</time>
      </trkpt>
      <trkpt lat="43.39607" lon="6.10776">
        <ele>287.60000610352</ele>
        <time>2016-11-30T14:54:39Z</time>
      </trkpt>
      <trkpt lat="43.39605" lon="6.10771">
        <ele>287.39999389648</ele>
        <time>2016-11-30T14:54:40Z</time>
      </trkpt>
      <trkpt lat="43.39603" lon="6.10761">
        <ele>286.60000610352</ele>
        <time>2016-11-30T14:54:42Z</time>
      </trkpt>
      <trkpt lat="43.39598" lon="6.10744">
        <ele>285.60000610352</ele>
        <time>2016-11-30T14:54:45Z</time>
      </trkpt>
      <trkpt lat="43.39595" lon="6.10728">
        <ele>284.79998779297</ele>
        <time>2016-11-30T14:54:50Z</time>
      </trkpt>
      <trkpt lat="43.39594" lon="6.10725">
        <ele>284.60000610352</ele>
        <time>2016-11-30T14:54:51Z</time>
      </trkpt>
      <trkpt lat="43.39594" lon="6.10722">
        <ele>284.39999389648</ele>
        <time>2016-11-30T14:54:52Z</time>
      </trkpt>
      <trkpt lat="43.39592" lon="6.10715">
        <ele>283.60000610352</ele>
        <time>2016-11-30T14:54:56Z</time>
      </trkpt>
      <trkpt lat="43.39591" lon="6.10713">
        <ele>283.60000610352</ele>
        <time>2016-11-30T14:55:00Z</time>
      </trkpt>
      <trkpt lat="43.39591" lon="6.10713">
        <ele>283.60000610352</ele>
        <time>2016-11-30T14:55:10Z</time>
      </trkpt>
      <trkpt lat="43.39592" lon="6.10713">
        <ele>283.60000610352</ele>
        <time>2016-11-30T14:56:59Z</time>
      </trkpt>
      <trkpt lat="43.39592" lon="6.10713">
        <ele>283.79998779297</ele>
        <time>2016-11-30T14:57:10Z</time>
      </trkpt>
      <trkpt lat="43.39592" lon="6.10713">
        <ele>283.39999389648</ele>
        <time>2016-11-30T14:58:09Z</time>
      </trkpt>
      <trkpt lat="43.39591" lon="6.10712">
        <ele>283.39999389648</ele>
        <time>2016-11-30T14:58:10Z</time>
      </trkpt>
      <trkpt lat="43.39591" lon="6.1071">
        <ele>283.39999389648</ele>
        <time>2016-11-30T14:58:11Z</time>
      </trkpt>
      <trkpt lat="43.39591" lon="6.10707">
        <ele>283.39999389648</ele>
        <time>2016-11-30T14:58:12Z</time>
      </trkpt>
      <trkpt lat="43.39591" lon="6.107">
        <ele>281.79998779297</ele>
        <time>2016-11-30T14:58:14Z</time>
      </trkpt>
      <trkpt lat="43.3959" lon="6.10688">
        <ele>280.20001220703</ele>
        <time>2016-11-30T14:58:17Z</time>
      </trkpt>
      <trkpt lat="43.39589" lon="6.10674">
        <ele>281.20001220703</ele>
        <time>2016-11-30T14:58:21Z</time>
      </trkpt>
      <trkpt lat="43.39589" lon="6.10658">
        <ele>280</ele>
        <time>2016-11-30T14:58:26Z</time>
      </trkpt>
      <trkpt lat="43.39586" lon="6.10641">
        <ele>279.20001220703</ele>
        <time>2016-11-30T14:58:30Z</time>
      </trkpt>
      <trkpt lat="43.39584" lon="6.10632">
        <ele>279</ele>
        <time>2016-11-30T14:58:32Z</time>
      </trkpt>
      <trkpt lat="43.39583" lon="6.10628">
        <ele>279</ele>
        <time>2016-11-30T14:58:33Z</time>
      </trkpt>
      <trkpt lat="43.39582" lon="6.10624">
        <ele>279</ele>
        <time>2016-11-30T14:58:34Z</time>
      </trkpt>
      <trkpt lat="43.39581" lon="6.10614">
        <ele>278</ele>
        <time>2016-11-30T14:58:37Z</time>
      </trkpt>
      <trkpt lat="43.39579" lon="6.1061">
        <ele>277.79998779297</ele>
        <time>2016-11-30T14:58:39Z</time>
      </trkpt>
      <trkpt lat="43.39579" lon="6.10606">
        <ele>277.60000610352</ele>
        <time>2016-11-30T14:58:40Z</time>
      </trkpt>
      <trkpt lat="43.39568" lon="6.1058">
        <ele>277</ele>
        <time>2016-11-30T14:58:48Z</time>
      </trkpt>
      <trkpt lat="43.39568" lon="6.10577">
        <ele>276.20001220703</ele>
        <time>2016-11-30T14:58:50Z</time>
      </trkpt>
      <trkpt lat="43.39567" lon="6.10575">
        <ele>275.79998779297</ele>
        <time>2016-11-30T14:58:52Z</time>
      </trkpt>
      <trkpt lat="43.39566" lon="6.10568">
        <ele>275.39999389648</ele>
        <time>2016-11-30T14:58:55Z</time>
      </trkpt>
      <trkpt lat="43.39565" lon="6.10561">
        <ele>274.79998779297</ele>
        <time>2016-11-30T14:58:59Z</time>
      </trkpt>
      <trkpt lat="43.39565" lon="6.10561">
        <ele>274.79998779297</ele>
        <time>2016-11-30T14:59:00Z</time>
      </trkpt>
      <trkpt lat="43.39566" lon="6.10559">
        <ele>274.79998779297</ele>
        <time>2016-11-30T14:59:03Z</time>
      </trkpt>
      <trkpt lat="43.39565" lon="6.10555">
        <ele>274.79998779297</ele>
        <time>2016-11-30T14:59:05Z</time>
      </trkpt>
      <trkpt lat="43.3956" lon="6.10539">
        <ele>274.60000610352</ele>
        <time>2016-11-30T14:59:10Z</time>
      </trkpt>
      <trkpt lat="43.39558" lon="6.10514">
        <ele>273.39999389648</ele>
        <time>2016-11-30T14:59:15Z</time>
      </trkpt>
      <trkpt lat="43.39558" lon="6.10501">
        <ele>272.20001220703</ele>
        <time>2016-11-30T14:59:19Z</time>
      </trkpt>
      <trkpt lat="43.39558" lon="6.10497">
        <ele>272</ele>
        <time>2016-11-30T14:59:20Z</time>
      </trkpt>
      <trkpt lat="43.39556" lon="6.10482">
        <ele>271.20001220703</ele>
        <time>2016-11-30T14:59:24Z</time>
      </trkpt>
      <trkpt lat="43.39553" lon="6.10466">
        <ele>270.39999389648</ele>
        <time>2016-11-30T14:59:30Z</time>
      </trkpt>
      <trkpt lat="43.3955" lon="6.10457">
        <ele>270.60000610352</ele>
        <time>2016-11-30T14:59:33Z</time>
      </trkpt>
      <trkpt lat="43.3955" lon="6.10455">
        <ele>270.60000610352</ele>
        <time>2016-11-30T14:59:34Z</time>
      </trkpt>
      <trkpt lat="43.39549" lon="6.10444">
        <ele>270</ele>
        <time>2016-11-30T14:59:39Z</time>
      </trkpt>
      <trkpt lat="43.39548" lon="6.10441">
        <ele>269.79998779297</ele>
        <time>2016-11-30T14:59:40Z</time>
      </trkpt>
      <trkpt lat="43.39546" lon="6.1043">
        <ele>269</ele>
        <time>2016-11-30T14:59:43Z</time>
      </trkpt>
      <trkpt lat="43.39545" lon="6.10426">
        <ele>268.60000610352</ele>
        <time>2016-11-30T14:59:44Z</time>
      </trkpt>
      <trkpt lat="43.39541" lon="6.10411">
        <ele>268.20001220703</ele>
        <time>2016-11-30T14:59:50Z</time>
      </trkpt>
      <trkpt lat="43.39541" lon="6.10403">
        <ele>267.79998779297</ele>
        <time>2016-11-30T14:59:53Z</time>
      </trkpt>
      <trkpt lat="43.3954" lon="6.10395">
        <ele>267.39999389648</ele>
        <time>2016-11-30T14:59:55Z</time>
      </trkpt>
      <trkpt lat="43.39527" lon="6.10384">
        <ele>266.79998779297</ele>
        <time>2016-11-30T15:00:00Z</time>
      </trkpt>
      <trkpt lat="43.39498" lon="6.1038">
        <ele>265.60000610352</ele>
        <time>2016-11-30T15:00:11Z</time>
      </trkpt>
      <trkpt lat="43.39483" lon="6.10379">
        <ele>264.39999389648</ele>
        <time>2016-11-30T15:00:17Z</time>
      </trkpt>
      <trkpt lat="43.39478" lon="6.10379">
        <ele>264.20001220703</ele>
        <time>2016-11-30T15:00:20Z</time>
      </trkpt>
      <trkpt lat="43.39476" lon="6.10379">
        <ele>264</ele>
        <time>2016-11-30T15:00:21Z</time>
      </trkpt>
      <trkpt lat="43.39469" lon="6.10375">
        <ele>263.39999389648</ele>
        <time>2016-11-30T15:00:26Z</time>
      </trkpt>
      <trkpt lat="43.3946" lon="6.10373">
        <ele>263.39999389648</ele>
        <time>2016-11-30T15:00:30Z</time>
      </trkpt>
      <trkpt lat="43.39452" lon="6.10376">
        <ele>263</ele>
        <time>2016-11-30T15:00:33Z</time>
      </trkpt>
      <trkpt lat="43.39448" lon="6.10378">
        <ele>262.39999389648</ele>
        <time>2016-11-30T15:00:38Z</time>
      </trkpt>
      <trkpt lat="43.39448" lon="6.10377">
        <ele>262.39999389648</ele>
        <time>2016-11-30T15:00:40Z</time>
      </trkpt>
      <trkpt lat="43.39448" lon="6.10377">
        <ele>262.60000610352</ele>
        <time>2016-11-30T15:00:50Z</time>
      </trkpt>
      <trkpt lat="43.39448" lon="6.10377">
        <ele>262.60000610352</ele>
        <time>2016-11-30T15:01:10Z</time>
      </trkpt>
      <trkpt lat="43.39448" lon="6.10377">
        <ele>262.60000610352</ele>
        <time>2016-11-30T15:01:15Z</time>
      </trkpt>
      <trkpt lat="43.39447" lon="6.10378">
        <ele>262.60000610352</ele>
        <time>2016-11-30T15:01:20Z</time>
      </trkpt>
      <trkpt lat="43.39447" lon="6.10378">
        <ele>262.60000610352</ele>
        <time>2016-11-30T15:01:30Z</time>
      </trkpt>
      <trkpt lat="43.39447" lon="6.10378">
        <ele>262.60000610352</ele>
        <time>2016-11-30T15:01:40Z</time>
      </trkpt>
      <trkpt lat="43.39447" lon="6.10378">
        <ele>262.60000610352</ele>
        <time>2016-11-30T15:01:59Z</time>
      </trkpt>
      <trkpt lat="43.39447" lon="6.10378">
        <ele>262.60000610352</ele>
        <time>2016-11-30T15:04:50Z</time>
      </trkpt>
      <trkpt lat="43.39447" lon="6.10378">
        <ele>262.60000610352</ele>
        <time>2016-11-30T15:04:58Z</time>
      </trkpt>
      <trkpt lat="43.39447" lon="6.10378">
        <ele>262.60000610352</ele>
        <time>2016-11-30T15:05:00Z</time>
      </trkpt>
      <trkpt lat="43.39447" lon="6.10378">
        <ele>262.60000610352</ele>
        <time>2016-11-30T15:05:10Z</time>
      </trkpt>
      <trkpt lat="43.39447" lon="6.10378">
        <ele>262.60000610352</ele>
        <time>2016-11-30T15:05:12Z</time>
      </trkpt>
      <trkpt lat="43.39446" lon="6.10377">
        <ele>262.60000610352</ele>
        <time>2016-11-30T15:05:14Z</time>
      </trkpt>
      <trkpt lat="43.39446" lon="6.10377">
        <ele>262.60000610352</ele>
        <time>2016-11-30T15:05:20Z</time>
      </trkpt>
      <trkpt lat="43.39446" lon="6.10377">
        <ele>262.60000610352</ele>
        <time>2016-11-30T15:05:26Z</time>
      </trkpt>
      <trkpt lat="43.39446" lon="6.10377">
        <ele>262.60000610352</ele>
        <time>2016-11-30T15:05:30Z</time>
      </trkpt>
      <trkpt lat="43.39447" lon="6.10377">
        <ele>262.60000610352</ele>
        <time>2016-11-30T15:05:40Z</time>
      </trkpt>
      <trkpt lat="43.39447" lon="6.10377">
        <ele>262.60000610352</ele>
        <time>2016-11-30T15:05:50Z</time>
      </trkpt>
      <trkpt lat="43.39447" lon="6.10378">
        <ele>262.60000610352</ele>
        <time>2016-11-30T15:06:00Z</time>
      </trkpt>
      <trkpt lat="43.39446" lon="6.1038">
        <ele>262.60000610352</ele>
        <time>2016-11-30T15:06:20Z</time>
      </trkpt>
      <trkpt lat="43.39446" lon="6.1038">
        <ele>262.60000610352</ele>
        <time>2016-11-30T15:06:30Z</time>
      </trkpt>
      <trkpt lat="43.39446" lon="6.10378">
        <ele>262.60000610352</ele>
        <time>2016-11-30T15:06:40Z</time>
      </trkpt>
      <trkpt lat="43.39446" lon="6.10378">
        <ele>262.60000610352</ele>
        <time>2016-11-30T15:06:42Z</time>
      </trkpt>
      <trkpt lat="43.39446" lon="6.10379">
        <ele>262.60000610352</ele>
        <time>2016-11-30T15:06:44Z</time>
      </trkpt>
      <trkpt lat="43.39446" lon="6.10379">
        <ele>262.60000610352</ele>
        <time>2016-11-30T15:06:50Z</time>
      </trkpt>
      <trkpt lat="43.39446" lon="6.10378">
        <ele>262.60000610352</ele>
        <time>2016-11-30T15:07:00Z</time>
      </trkpt>
      <trkpt lat="43.39446" lon="6.10378">
        <ele>262.60000610352</ele>
        <time>2016-11-30T15:07:30Z</time>
      </trkpt>
      <trkpt lat="43.39446" lon="6.10377">
        <ele>262.60000610352</ele>
        <time>2016-11-30T15:07:40Z</time>
      </trkpt>
      <trkpt lat="43.39444" lon="6.1038">
        <ele>262.60000610352</ele>
        <time>2016-11-30T15:07:42Z</time>
      </trkpt>
      <trkpt lat="43.39442" lon="6.10383">
        <ele>262.39999389648</ele>
        <time>2016-11-30T15:07:44Z</time>
      </trkpt>
      <trkpt lat="43.39431" lon="6.10396">
        <ele>262.60000610352</ele>
        <time>2016-11-30T15:07:50Z</time>
      </trkpt>
      <trkpt lat="43.39416" lon="6.10415">
        <ele>262.39999389648</ele>
        <time>2016-11-30T15:07:59Z</time>
      </trkpt>
      <trkpt lat="43.39415" lon="6.10415">
        <ele>262.39999389648</ele>
        <time>2016-11-30T15:08:00Z</time>
      </trkpt>
      <trkpt lat="43.39407" lon="6.10408">
        <ele>262.39999389648</ele>
        <time>2016-11-30T15:08:06Z</time>
      </trkpt>
      <trkpt lat="43.394" lon="6.10404">
        <ele>262.79998779297</ele>
        <time>2016-11-30T15:08:09Z</time>
      </trkpt>
      <trkpt lat="43.39397" lon="6.10403">
        <ele>263</ele>
        <time>2016-11-30T15:08:10Z</time>
      </trkpt>
      <trkpt lat="43.3939" lon="6.10398">
        <ele>263.20001220703</ele>
        <time>2016-11-30T15:08:13Z</time>
      </trkpt>
      <trkpt lat="43.39378" lon="6.10384">
        <ele>263.39999389648</ele>
        <time>2016-11-30T15:08:20Z</time>
      </trkpt>
      <trkpt lat="43.39378" lon="6.10382">
        <ele>263.60000610352</ele>
        <time>2016-11-30T15:08:21Z</time>
      </trkpt>
      <trkpt lat="43.39388" lon="6.10357">
        <ele>263.39999389648</ele>
        <time>2016-11-30T15:08:30Z</time>
      </trkpt>
      <trkpt lat="43.394" lon="6.10333">
        <ele>263.20001220703</ele>
        <time>2016-11-30T15:08:40Z</time>
      </trkpt>
      <trkpt lat="43.39416" lon="6.10309">
        <ele>263</ele>
        <time>2016-11-30T15:08:50Z</time>
      </trkpt>
      <trkpt lat="43.39442" lon="6.1029">
        <ele>262.39999389648</ele>
        <time>2016-11-30T15:08:59Z</time>
      </trkpt>
      <trkpt lat="43.39445" lon="6.10287">
        <ele>262.60000610352</ele>
        <time>2016-11-30T15:09:00Z</time>
      </trkpt>
      <trkpt lat="43.3946" lon="6.10274">
        <ele>261.39999389648</ele>
        <time>2016-11-30T15:09:05Z</time>
      </trkpt>
      <trkpt lat="43.39473" lon="6.1026">
        <ele>260.39999389648</ele>
        <time>2016-11-30T15:09:09Z</time>
      </trkpt>
      <trkpt lat="43.39476" lon="6.10257">
        <ele>259.79998779297</ele>
        <time>2016-11-30T15:09:10Z</time>
      </trkpt>
      <trkpt lat="43.39479" lon="6.10254">
        <ele>259.60000610352</ele>
        <time>2016-11-30T15:09:11Z</time>
      </trkpt>
      <trkpt lat="43.3949" lon="6.10237">
        <ele>259.20001220703</ele>
        <time>2016-11-30T15:09:15Z</time>
      </trkpt>
      <trkpt lat="43.39497" lon="6.10219">
        <ele>258.60000610352</ele>
        <time>2016-11-30T15:09:19Z</time>
      </trkpt>
      <trkpt lat="43.39499" lon="6.10213">
        <ele>258.39999389648</ele>
        <time>2016-11-30T15:09:20Z</time>
      </trkpt>
      <trkpt lat="43.39502" lon="6.10203">
        <ele>258</ele>
        <time>2016-11-30T15:09:22Z</time>
      </trkpt>
      <trkpt lat="43.39509" lon="6.10174">
        <ele>257.20001220703</ele>
        <time>2016-11-30T15:09:27Z</time>
      </trkpt>
      <trkpt lat="43.39513" lon="6.10161">
        <ele>257.20001220703</ele>
        <time>2016-11-30T15:09:29Z</time>
      </trkpt>
      <trkpt lat="43.39515" lon="6.10154">
        <ele>257</ele>
        <time>2016-11-30T15:09:30Z</time>
      </trkpt>
      <trkpt lat="43.39517" lon="6.10148">
        <ele>257</ele>
        <time>2016-11-30T15:09:31Z</time>
      </trkpt>
      <trkpt lat="43.39519" lon="6.10141">
        <ele>257</ele>
        <time>2016-11-30T15:09:32Z</time>
      </trkpt>
      <trkpt lat="43.3952" lon="6.10134">
        <ele>257</ele>
        <time>2016-11-30T15:09:33Z</time>
      </trkpt>
      <trkpt lat="43.39531" lon="6.10103">
        <ele>255.60000610352</ele>
        <time>2016-11-30T15:09:38Z</time>
      </trkpt>
      <trkpt lat="43.39536" lon="6.10093">
        <ele>255</ele>
        <time>2016-11-30T15:09:40Z</time>
      </trkpt>
      <trkpt lat="43.39539" lon="6.10089">
        <ele>254.60000610352</ele>
        <time>2016-11-30T15:09:41Z</time>
      </trkpt>
      <trkpt lat="43.39542" lon="6.10084">
        <ele>254.60000610352</ele>
        <time>2016-11-30T15:09:42Z</time>
      </trkpt>
      <trkpt lat="43.39544" lon="6.10079">
        <ele>254.39999389648</ele>
        <time>2016-11-30T15:09:43Z</time>
      </trkpt>
      <trkpt lat="43.39546" lon="6.10068">
        <ele>254.39999389648</ele>
        <time>2016-11-30T15:09:45Z</time>
      </trkpt>
      <trkpt lat="43.39549" lon="6.10059">
        <ele>254.19999694824</ele>
        <time>2016-11-30T15:09:47Z</time>
      </trkpt>
      <trkpt lat="43.39551" lon="6.10051">
        <ele>254.19999694824</ele>
        <time>2016-11-30T15:09:49Z</time>
      </trkpt>
      <trkpt lat="43.39552" lon="6.10046">
        <ele>254</ele>
        <time>2016-11-30T15:09:50Z</time>
      </trkpt>
      <trkpt lat="43.39557" lon="6.10032">
        <ele>254.19999694824</ele>
        <time>2016-11-30T15:09:54Z</time>
      </trkpt>
      <trkpt lat="43.39558" lon="6.10024">
        <ele>254.19999694824</ele>
        <time>2016-11-30T15:09:57Z</time>
      </trkpt>
      <trkpt lat="43.3956" lon="6.10017">
        <ele>254</ele>
        <time>2016-11-30T15:10:00Z</time>
      </trkpt>
      <trkpt lat="43.39554" lon="6.09998">
        <ele>254</ele>
        <time>2016-11-30T15:10:09Z</time>
      </trkpt>
      <trkpt lat="43.39554" lon="6.09996">
        <ele>254</ele>
        <time>2016-11-30T15:10:10Z</time>
      </trkpt>
      <trkpt lat="43.39555" lon="6.09976">
        <ele>254.39999389648</ele>
        <time>2016-11-30T15:10:18Z</time>
      </trkpt>
      <trkpt lat="43.39555" lon="6.0997">
        <ele>254.60000610352</ele>
        <time>2016-11-30T15:10:20Z</time>
      </trkpt>
      <trkpt lat="43.39554" lon="6.09951">
        <ele>254.80000305176</ele>
        <time>2016-11-30T15:10:26Z</time>
      </trkpt>
      <trkpt lat="43.39552" lon="6.09941">
        <ele>255.19999694824</ele>
        <time>2016-11-30T15:10:29Z</time>
      </trkpt>
      <trkpt lat="43.39551" lon="6.09938">
        <ele>255.39999389648</ele>
        <time>2016-11-30T15:10:30Z</time>
      </trkpt>
      <trkpt lat="43.3955" lon="6.09934">
        <ele>255.80000305176</ele>
        <time>2016-11-30T15:10:32Z</time>
      </trkpt>
      <trkpt lat="43.3955" lon="6.09931">
        <ele>256.79998779297</ele>
        <time>2016-11-30T15:10:34Z</time>
      </trkpt>
      <trkpt lat="43.39549" lon="6.09929">
        <ele>257.20001220703</ele>
        <time>2016-11-30T15:10:35Z</time>
      </trkpt>
      <trkpt lat="43.39547" lon="6.09926">
        <ele>257.60000610352</ele>
        <time>2016-11-30T15:10:37Z</time>
      </trkpt>
      <trkpt lat="43.39546" lon="6.09924">
        <ele>257.79998779297</ele>
        <time>2016-11-30T15:10:38Z</time>
      </trkpt>
      <trkpt lat="43.39545" lon="6.09921">
        <ele>257.79998779297</ele>
        <time>2016-11-30T15:10:40Z</time>
      </trkpt>
      <trkpt lat="43.39545" lon="6.0992">
        <ele>258</ele>
        <time>2016-11-30T15:10:49Z</time>
      </trkpt>
      <trkpt lat="43.39545" lon="6.0992">
        <ele>258.20001220703</ele>
        <time>2016-11-30T15:10:55Z</time>
      </trkpt>
      <trkpt lat="43.39545" lon="6.0992">
        <ele>258.20001220703</ele>
        <time>2016-11-30T15:11:00Z</time>
      </trkpt>
      <trkpt lat="43.39545" lon="6.09916">
        <ele>258.20001220703</ele>
        <time>2016-11-30T15:11:09Z</time>
      </trkpt>
      <trkpt lat="43.39545" lon="6.09907">
        <ele>258.39999389648</ele>
        <time>2016-11-30T15:11:12Z</time>
      </trkpt>
      <trkpt lat="43.39552" lon="6.0989">
        <ele>259.20001220703</ele>
        <time>2016-11-30T15:11:17Z</time>
      </trkpt>
      <trkpt lat="43.39553" lon="6.09886">
        <ele>259.20001220703</ele>
        <time>2016-11-30T15:11:18Z</time>
      </trkpt>
      <trkpt lat="43.39555" lon="6.09878">
        <ele>259.20001220703</ele>
        <time>2016-11-30T15:11:20Z</time>
      </trkpt>
      <trkpt lat="43.3956" lon="6.0984">
        <ele>259</ele>
        <time>2016-11-30T15:11:27Z</time>
      </trkpt>
      <trkpt lat="43.39562" lon="6.09826">
        <ele>259</ele>
        <time>2016-11-30T15:11:30Z</time>
      </trkpt>
      <trkpt lat="43.39563" lon="6.09818">
        <ele>259</ele>
        <time>2016-11-30T15:11:32Z</time>
      </trkpt>
      <trkpt lat="43.39564" lon="6.0981">
        <ele>259.20001220703</ele>
        <time>2016-11-30T15:11:35Z</time>
      </trkpt>
      <trkpt lat="43.39566" lon="6.09803">
        <ele>259.20001220703</ele>
        <time>2016-11-30T15:11:38Z</time>
      </trkpt>
      <trkpt lat="43.39566" lon="6.09799">
        <ele>259</ele>
        <time>2016-11-30T15:11:40Z</time>
      </trkpt>
      <trkpt lat="43.39568" lon="6.09794">
        <ele>259</ele>
        <time>2016-11-30T15:11:43Z</time>
      </trkpt>
      <trkpt lat="43.3957" lon="6.09782">
        <ele>259.39999389648</ele>
        <time>2016-11-30T15:11:49Z</time>
      </trkpt>
      <trkpt lat="43.39571" lon="6.09779">
        <ele>259.60000610352</ele>
        <time>2016-11-30T15:11:50Z</time>
      </trkpt>
      <trkpt lat="43.39582" lon="6.09743">
        <ele>259.20001220703</ele>
        <time>2016-11-30T15:12:00Z</time>
      </trkpt>
      <trkpt lat="43.39595" lon="6.09695">
        <ele>258.60000610352</ele>
        <time>2016-11-30T15:12:10Z</time>
      </trkpt>
      <trkpt lat="43.39606" lon="6.09643">
        <ele>258.79998779297</ele>
        <time>2016-11-30T15:12:20Z</time>
      </trkpt>
      <trkpt lat="43.39616" lon="6.09599">
        <ele>258.79998779297</ele>
        <time>2016-11-30T15:12:29Z</time>
      </trkpt>
      <trkpt lat="43.39617" lon="6.09596">
        <ele>258.79998779297</ele>
        <time>2016-11-30T15:12:30Z</time>
      </trkpt>
      <trkpt lat="43.39621" lon="6.09581">
        <ele>258.79998779297</ele>
        <time>2016-11-30T15:12:36Z</time>
      </trkpt>
      <trkpt lat="43.3962" lon="6.09581">
        <ele>259</ele>
        <time>2016-11-30T15:12:40Z</time>
      </trkpt>
      <trkpt lat="43.3962" lon="6.09581">
        <ele>259</ele>
        <time>2016-11-30T15:12:54Z</time>
      </trkpt>
      <trkpt lat="43.3962" lon="6.09582">
        <ele>259.20001220703</ele>
        <time>2016-11-30T15:13:40Z</time>
      </trkpt>
      <trkpt lat="43.3962" lon="6.09582">
        <ele>259.20001220703</ele>
        <time>2016-11-30T15:13:50Z</time>
      </trkpt>
      <trkpt lat="43.3962" lon="6.09582">
        <ele>259.20001220703</ele>
        <time>2016-11-30T15:14:00Z</time>
      </trkpt>
      <trkpt lat="43.39621" lon="6.09579">
        <ele>259.20001220703</ele>
        <time>2016-11-30T15:14:06Z</time>
      </trkpt>
      <trkpt lat="43.39624" lon="6.09567">
        <ele>257.79998779297</ele>
        <time>2016-11-30T15:14:09Z</time>
      </trkpt>
      <trkpt lat="43.39625" lon="6.09562">
        <ele>257.60000610352</ele>
        <time>2016-11-30T15:14:10Z</time>
      </trkpt>
      <trkpt lat="43.39627" lon="6.09557">
        <ele>257.79998779297</ele>
        <time>2016-11-30T15:14:11Z</time>
      </trkpt>
      <trkpt lat="43.39631" lon="6.09546">
        <ele>257.79998779297</ele>
        <time>2016-11-30T15:14:13Z</time>
      </trkpt>
      <trkpt lat="43.39646" lon="6.09525">
        <ele>256.20001220703</ele>
        <time>2016-11-30T15:14:17Z</time>
      </trkpt>
      <trkpt lat="43.39656" lon="6.09507">
        <ele>254.80000305176</ele>
        <time>2016-11-30T15:14:20Z</time>
      </trkpt>
      <trkpt lat="43.39661" lon="6.09495">
        <ele>253.80000305176</ele>
        <time>2016-11-30T15:14:22Z</time>
      </trkpt>
      <trkpt lat="43.39665" lon="6.09484">
        <ele>252.60000610352</ele>
        <time>2016-11-30T15:14:24Z</time>
      </trkpt>
      <trkpt lat="43.39666" lon="6.09478">
        <ele>252</ele>
        <time>2016-11-30T15:14:25Z</time>
      </trkpt>
      <trkpt lat="43.39668" lon="6.09472">
        <ele>251.19999694824</ele>
        <time>2016-11-30T15:14:26Z</time>
      </trkpt>
      <trkpt lat="43.39669" lon="6.09463">
        <ele>249.80000305176</ele>
        <time>2016-11-30T15:14:28Z</time>
      </trkpt>
      <trkpt lat="43.3967" lon="6.0946">
        <ele>249.19999694824</ele>
        <time>2016-11-30T15:14:30Z</time>
      </trkpt>
      <trkpt lat="43.39674" lon="6.09461">
        <ele>248.80000305176</ele>
        <time>2016-11-30T15:14:34Z</time>
      </trkpt>
      <trkpt lat="43.39677" lon="6.09461">
        <ele>248.80000305176</ele>
        <time>2016-11-30T15:14:35Z</time>
      </trkpt>
      <trkpt lat="43.39682" lon="6.09462">
        <ele>248.39999389648</ele>
        <time>2016-11-30T15:14:36Z</time>
      </trkpt>
      <trkpt lat="43.39687" lon="6.09462">
        <ele>247.39999389648</ele>
        <time>2016-11-30T15:14:37Z</time>
      </trkpt>
      <trkpt lat="43.39691" lon="6.09462">
        <ele>246.19999694824</ele>
        <time>2016-11-30T15:14:38Z</time>
      </trkpt>
      <trkpt lat="43.39694" lon="6.09458">
        <ele>245</ele>
        <time>2016-11-30T15:14:39Z</time>
      </trkpt>
      <trkpt lat="43.39699" lon="6.0945">
        <ele>243.80000305176</ele>
        <time>2016-11-30T15:14:41Z</time>
      </trkpt>
      <trkpt lat="43.39716" lon="6.09426">
        <ele>243</ele>
        <time>2016-11-30T15:14:47Z</time>
      </trkpt>
      <trkpt lat="43.39724" lon="6.09412">
        <ele>242.60000610352</ele>
        <time>2016-11-30T15:14:50Z</time>
      </trkpt>
      <trkpt lat="43.39753" lon="6.09362">
        <ele>241.80000305176</ele>
        <time>2016-11-30T15:15:00Z</time>
      </trkpt>
      <trkpt lat="43.39758" lon="6.0935">
        <ele>241.80000305176</ele>
        <time>2016-11-30T15:15:02Z</time>
      </trkpt>
      <trkpt lat="43.39765" lon="6.0934">
        <ele>241.80000305176</ele>
        <time>2016-11-30T15:15:04Z</time>
      </trkpt>
      <trkpt lat="43.39781" lon="6.09304">
        <ele>241.80000305176</ele>
        <time>2016-11-30T15:15:10Z</time>
      </trkpt>
      <trkpt lat="43.39783" lon="6.09298">
        <ele>241.80000305176</ele>
        <time>2016-11-30T15:15:11Z</time>
      </trkpt>
      <trkpt lat="43.39787" lon="6.09279">
        <ele>241.80000305176</ele>
        <time>2016-11-30T15:15:14Z</time>
      </trkpt>
      <trkpt lat="43.3979" lon="6.09266">
        <ele>241.60000610352</ele>
        <time>2016-11-30T15:15:16Z</time>
      </trkpt>
      <trkpt lat="43.39792" lon="6.09253">
        <ele>241.60000610352</ele>
        <time>2016-11-30T15:15:18Z</time>
      </trkpt>
      <trkpt lat="43.39794" lon="6.09239">
        <ele>241.60000610352</ele>
        <time>2016-11-30T15:15:20Z</time>
      </trkpt>
      <trkpt lat="43.39795" lon="6.09226">
        <ele>241.60000610352</ele>
        <time>2016-11-30T15:15:22Z</time>
      </trkpt>
      <trkpt lat="43.39796" lon="6.09181">
        <ele>242.80000305176</ele>
        <time>2016-11-30T15:15:29Z</time>
      </trkpt>
      <trkpt lat="43.39796" lon="6.09175">
        <ele>243.19999694824</ele>
        <time>2016-11-30T15:15:30Z</time>
      </trkpt>
      <trkpt lat="43.39797" lon="6.09158">
        <ele>243.80000305176</ele>
        <time>2016-11-30T15:15:33Z</time>
      </trkpt>
      <trkpt lat="43.39801" lon="6.09122">
        <ele>244.60000610352</ele>
        <time>2016-11-30T15:15:40Z</time>
      </trkpt>
      <trkpt lat="43.39803" lon="6.09114">
        <ele>245</ele>
        <time>2016-11-30T15:15:42Z</time>
      </trkpt>
      <trkpt lat="43.39809" lon="6.09093">
        <ele>245.60000610352</ele>
        <time>2016-11-30T15:15:48Z</time>
      </trkpt>
      <trkpt lat="43.39811" lon="6.09088">
        <ele>245.60000610352</ele>
        <time>2016-11-30T15:15:50Z</time>
      </trkpt>
      <trkpt lat="43.39813" lon="6.0908">
        <ele>245.60000610352</ele>
        <time>2016-11-30T15:15:53Z</time>
      </trkpt>
      <trkpt lat="43.39815" lon="6.09073">
        <ele>245.60000610352</ele>
        <time>2016-11-30T15:15:56Z</time>
      </trkpt>
      <trkpt lat="43.3982" lon="6.09062">
        <ele>245.80000305176</ele>
        <time>2016-11-30T15:16:00Z</time>
      </trkpt>
      <trkpt lat="43.39832" lon="6.09043">
        <ele>245</ele>
        <time>2016-11-30T15:16:05Z</time>
      </trkpt>
      <trkpt lat="43.39845" lon="6.09031">
        <ele>244</ele>
        <time>2016-11-30T15:16:08Z</time>
      </trkpt>
      <trkpt lat="43.39849" lon="6.09027">
        <ele>243.19999694824</ele>
        <time>2016-11-30T15:16:09Z</time>
      </trkpt>
      <trkpt lat="43.39854" lon="6.09022">
        <ele>242.80000305176</ele>
        <time>2016-11-30T15:16:10Z</time>
      </trkpt>
      <trkpt lat="43.39861" lon="6.09011">
        <ele>242.19999694824</ele>
        <time>2016-11-30T15:16:12Z</time>
      </trkpt>
      <trkpt lat="43.39874" lon="6.08997">
        <ele>241.39999389648</ele>
        <time>2016-11-30T15:16:15Z</time>
      </trkpt>
      <trkpt lat="43.39888" lon="6.08988">
        <ele>241.39999389648</ele>
        <time>2016-11-30T15:16:18Z</time>
      </trkpt>
      <trkpt lat="43.39898" lon="6.08986">
        <ele>241.39999389648</ele>
        <time>2016-11-30T15:16:20Z</time>
      </trkpt>
      <trkpt lat="43.39909" lon="6.08985">
        <ele>241.19999694824</ele>
        <time>2016-11-30T15:16:22Z</time>
      </trkpt>
      <trkpt lat="43.39923" lon="6.08986">
        <ele>240.19999694824</ele>
        <time>2016-11-30T15:16:25Z</time>
      </trkpt>
      <trkpt lat="43.39935" lon="6.08985">
        <ele>239.19999694824</ele>
        <time>2016-11-30T15:16:27Z</time>
      </trkpt>
      <trkpt lat="43.39941" lon="6.08984">
        <ele>239</ele>
        <time>2016-11-30T15:16:28Z</time>
      </trkpt>
      <trkpt lat="43.39953" lon="6.08981">
        <ele>238.60000610352</ele>
        <time>2016-11-30T15:16:30Z</time>
      </trkpt>
      <trkpt lat="43.39972" lon="6.08977">
        <ele>237.60000610352</ele>
        <time>2016-11-30T15:16:33Z</time>
      </trkpt>
      <trkpt lat="43.39996" lon="6.0897">
        <ele>237</ele>
        <time>2016-11-30T15:16:37Z</time>
      </trkpt>
      <trkpt lat="43.40014" lon="6.0896">
        <ele>237.19999694824</ele>
        <time>2016-11-30T15:16:40Z</time>
      </trkpt>
      <trkpt lat="43.40025" lon="6.08947">
        <ele>237.19999694824</ele>
        <time>2016-11-30T15:16:42Z</time>
      </trkpt>
      <trkpt lat="43.40031" lon="6.0893">
        <ele>237.39999389648</ele>
        <time>2016-11-30T15:16:44Z</time>
      </trkpt>
      <trkpt lat="43.40035" lon="6.08912">
        <ele>237.39999389648</ele>
        <time>2016-11-30T15:16:46Z</time>
      </trkpt>
      <trkpt lat="43.40044" lon="6.08887">
        <ele>237</ele>
        <time>2016-11-30T15:16:49Z</time>
      </trkpt>
      <trkpt lat="43.40049" lon="6.0887">
        <ele>236.60000610352</ele>
        <time>2016-11-30T15:16:51Z</time>
      </trkpt>
      <trkpt lat="43.4006" lon="6.08836">
        <ele>236.19999694824</ele>
        <time>2016-11-30T15:16:55Z</time>
      </trkpt>
      <trkpt lat="43.4008" lon="6.08786">
        <ele>236.39999389648</ele>
        <time>2016-11-30T15:17:01Z</time>
      </trkpt>
      <trkpt lat="43.40096" lon="6.08731">
        <ele>236.19999694824</ele>
        <time>2016-11-30T15:17:07Z</time>
      </trkpt>
      <trkpt lat="43.40101" lon="6.08701">
        <ele>236.19999694824</ele>
        <time>2016-11-30T15:17:10Z</time>
      </trkpt>
      <trkpt lat="43.40102" lon="6.08691">
        <ele>236.19999694824</ele>
        <time>2016-11-30T15:17:11Z</time>
      </trkpt>
      <trkpt lat="43.40102" lon="6.08682">
        <ele>236</ele>
        <time>2016-11-30T15:17:12Z</time>
      </trkpt>
      <trkpt lat="43.40098" lon="6.08657">
        <ele>235.60000610352</ele>
        <time>2016-11-30T15:17:15Z</time>
      </trkpt>
      <trkpt lat="43.40097" lon="6.0865">
        <ele>235</ele>
        <time>2016-11-30T15:17:16Z</time>
      </trkpt>
      <trkpt lat="43.40098" lon="6.08642">
        <ele>234.80000305176</ele>
        <time>2016-11-30T15:17:17Z</time>
      </trkpt>
      <trkpt lat="43.401" lon="6.08635">
        <ele>234.19999694824</ele>
        <time>2016-11-30T15:17:18Z</time>
      </trkpt>
      <trkpt lat="43.40104" lon="6.0863">
        <ele>234</ele>
        <time>2016-11-30T15:17:19Z</time>
      </trkpt>
      <trkpt lat="43.40108" lon="6.08625">
        <ele>233.80000305176</ele>
        <time>2016-11-30T15:17:20Z</time>
      </trkpt>
      <trkpt lat="43.40117" lon="6.08617">
        <ele>233.60000610352</ele>
        <time>2016-11-30T15:17:22Z</time>
      </trkpt>
      <trkpt lat="43.40125" lon="6.0861">
        <ele>233.19999694824</ele>
        <time>2016-11-30T15:17:24Z</time>
      </trkpt>
      <trkpt lat="43.40132" lon="6.08602">
        <ele>233</ele>
        <time>2016-11-30T15:17:26Z</time>
      </trkpt>
      <trkpt lat="43.40148" lon="6.0859">
        <ele>232.60000610352</ele>
        <time>2016-11-30T15:17:30Z</time>
      </trkpt>
      <trkpt lat="43.40161" lon="6.08585">
        <ele>232.39999389648</ele>
        <time>2016-11-30T15:17:33Z</time>
      </trkpt>
      <trkpt lat="43.40164" lon="6.08582">
        <ele>232.39999389648</ele>
        <time>2016-11-30T15:17:34Z</time>
      </trkpt>
      <trkpt lat="43.40168" lon="6.0856">
        <ele>232.60000610352</ele>
        <time>2016-11-30T15:17:39Z</time>
      </trkpt>
      <trkpt lat="43.40168" lon="6.08557">
        <ele>232.80000305176</ele>
        <time>2016-11-30T15:17:40Z</time>
      </trkpt>
      <trkpt lat="43.40167" lon="6.08526">
        <ele>233.60000610352</ele>
        <time>2016-11-30T15:17:49Z</time>
      </trkpt>
      <trkpt lat="43.40167" lon="6.08523">
        <ele>233.80000305176</ele>
        <time>2016-11-30T15:17:50Z</time>
      </trkpt>
      <trkpt lat="43.40169" lon="6.08509">
        <ele>234</ele>
        <time>2016-11-30T15:17:54Z</time>
      </trkpt>
      <trkpt lat="43.40171" lon="6.08486">
        <ele>234.60000610352</ele>
        <time>2016-11-30T15:18:00Z</time>
      </trkpt>
      <trkpt lat="43.40175" lon="6.08447">
        <ele>234.80000305176</ele>
        <time>2016-11-30T15:18:10Z</time>
      </trkpt>
      <trkpt lat="43.40179" lon="6.08404">
        <ele>234.60000610352</ele>
        <time>2016-11-30T15:18:20Z</time>
      </trkpt>
      <trkpt lat="43.40183" lon="6.0835">
        <ele>234</ele>
        <time>2016-11-30T15:18:30Z</time>
      </trkpt>
      <trkpt lat="43.40186" lon="6.08305">
        <ele>233.80000305176</ele>
        <time>2016-11-30T15:18:38Z</time>
      </trkpt>
      <trkpt lat="43.40187" lon="6.08294">
        <ele>233.60000610352</ele>
        <time>2016-11-30T15:18:40Z</time>
      </trkpt>
      <trkpt lat="43.40189" lon="6.08276">
        <ele>233.60000610352</ele>
        <time>2016-11-30T15:18:44Z</time>
      </trkpt>
      <trkpt lat="43.40189" lon="6.08266">
        <ele>233.39999389648</ele>
        <time>2016-11-30T15:18:50Z</time>
      </trkpt>
      <trkpt lat="43.40189" lon="6.08266">
        <ele>233</ele>
        <time>2016-11-30T15:18:54Z</time>
      </trkpt>
      <trkpt lat="43.40189" lon="6.08266">
        <ele>233.19999694824</ele>
        <time>2016-11-30T15:19:00Z</time>
      </trkpt>
      <trkpt lat="43.40189" lon="6.08266">
        <ele>233.19999694824</ele>
        <time>2016-11-30T15:19:10Z</time>
      </trkpt>
      <trkpt lat="43.40189" lon="6.08259">
        <ele>233</ele>
        <time>2016-11-30T15:19:13Z</time>
      </trkpt>
      <trkpt lat="43.40185" lon="6.08237">
        <ele>232.60000610352</ele>
        <time>2016-11-30T15:19:18Z</time>
      </trkpt>
      <trkpt lat="43.40186" lon="6.08227">
        <ele>232.60000610352</ele>
        <time>2016-11-30T15:19:20Z</time>
      </trkpt>
      <trkpt lat="43.40187" lon="6.08221">
        <ele>232.60000610352</ele>
        <time>2016-11-30T15:19:21Z</time>
      </trkpt>
      <trkpt lat="43.40199" lon="6.08164">
        <ele>232.19999694824</ele>
        <time>2016-11-30T15:19:30Z</time>
      </trkpt>
      <trkpt lat="43.402" lon="6.08141">
        <ele>231.39999389648</ele>
        <time>2016-11-30T15:19:33Z</time>
      </trkpt>
      <trkpt lat="43.40197" lon="6.08124">
        <ele>231.19999694824</ele>
        <time>2016-11-30T15:19:35Z</time>
      </trkpt>
      <trkpt lat="43.40193" lon="6.08109">
        <ele>230.60000610352</ele>
        <time>2016-11-30T15:19:37Z</time>
      </trkpt>
      <trkpt lat="43.40194" lon="6.08092">
        <ele>230.19999694824</ele>
        <time>2016-11-30T15:19:39Z</time>
      </trkpt>
      <trkpt lat="43.40198" lon="6.08075">
        <ele>229.60000610352</ele>
        <time>2016-11-30T15:19:41Z</time>
      </trkpt>
      <trkpt lat="43.40205" lon="6.0806">
        <ele>228.80000305176</ele>
        <time>2016-11-30T15:19:43Z</time>
      </trkpt>
      <trkpt lat="43.4022" lon="6.0804">
        <ele>228.39999389648</ele>
        <time>2016-11-30T15:19:46Z</time>
      </trkpt>
      <trkpt lat="43.40243" lon="6.08012">
        <ele>227.19999694824</ele>
        <time>2016-11-30T15:19:50Z</time>
      </trkpt>
      <trkpt lat="43.40255" lon="6.07996">
        <ele>226</ele>
        <time>2016-11-30T15:19:52Z</time>
      </trkpt>
      <trkpt lat="43.40272" lon="6.07969">
        <ele>225</ele>
        <time>2016-11-30T15:19:55Z</time>
      </trkpt>
      <trkpt lat="43.40282" lon="6.07948">
        <ele>224.19999694824</ele>
        <time>2016-11-30T15:19:57Z</time>
      </trkpt>
      <trkpt lat="43.40286" lon="6.07936">
        <ele>223.80000305176</ele>
        <time>2016-11-30T15:19:58Z</time>
      </trkpt>
      <trkpt lat="43.40292" lon="6.07913">
        <ele>223.19999694824</ele>
        <time>2016-11-30T15:20:00Z</time>
      </trkpt>
      <trkpt lat="43.40296" lon="6.07888">
        <ele>222.60000610352</ele>
        <time>2016-11-30T15:20:02Z</time>
      </trkpt>
      <trkpt lat="43.40302" lon="6.0784">
        <ele>221.39999389648</ele>
        <time>2016-11-30T15:20:06Z</time>
      </trkpt>
      <trkpt lat="43.40306" lon="6.07806">
        <ele>221.19999694824</ele>
        <time>2016-11-30T15:20:09Z</time>
      </trkpt>
      <trkpt lat="43.40308" lon="6.07795">
        <ele>221.19999694824</ele>
        <time>2016-11-30T15:20:10Z</time>
      </trkpt>
      <trkpt lat="43.40316" lon="6.07732">
        <ele>220.60000610352</ele>
        <time>2016-11-30T15:20:16Z</time>
      </trkpt>
      <trkpt lat="43.40326" lon="6.07704">
        <ele>220.19999694824</ele>
        <time>2016-11-30T15:20:19Z</time>
      </trkpt>
      <trkpt lat="43.40331" lon="6.07696">
        <ele>220.19999694824</ele>
        <time>2016-11-30T15:20:20Z</time>
      </trkpt>
      <trkpt lat="43.40342" lon="6.07682">
        <ele>219.80000305176</ele>
        <time>2016-11-30T15:20:22Z</time>
      </trkpt>
      <trkpt lat="43.40354" lon="6.07669">
        <ele>219.19999694824</ele>
        <time>2016-11-30T15:20:24Z</time>
      </trkpt>
      <trkpt lat="43.40364" lon="6.07653">
        <ele>218.80000305176</ele>
        <time>2016-11-30T15:20:26Z</time>
      </trkpt>
      <trkpt lat="43.40371" lon="6.07634">
        <ele>218.60000610352</ele>
        <time>2016-11-30T15:20:28Z</time>
      </trkpt>
      <trkpt lat="43.40374" lon="6.07614">
        <ele>218.80000305176</ele>
        <time>2016-11-30T15:20:30Z</time>
      </trkpt>
      <trkpt lat="43.40376" lon="6.07583">
        <ele>219.19999694824</ele>
        <time>2016-11-30T15:20:33Z</time>
      </trkpt>
      <trkpt lat="43.40376" lon="6.07563">
        <ele>219.60000610352</ele>
        <time>2016-11-30T15:20:35Z</time>
      </trkpt>
      <trkpt lat="43.40376" lon="6.07543">
        <ele>219.80000305176</ele>
        <time>2016-11-30T15:20:37Z</time>
      </trkpt>
      <trkpt lat="43.40378" lon="6.07515">
        <ele>220.19999694824</ele>
        <time>2016-11-30T15:20:40Z</time>
      </trkpt>
      <trkpt lat="43.40379" lon="6.07507">
        <ele>220.19999694824</ele>
        <time>2016-11-30T15:20:41Z</time>
      </trkpt>
      <trkpt lat="43.40386" lon="6.07473">
        <ele>220.60000610352</ele>
        <time>2016-11-30T15:20:46Z</time>
      </trkpt>
      <trkpt lat="43.4039" lon="6.07447">
        <ele>220.60000610352</ele>
        <time>2016-11-30T15:20:50Z</time>
      </trkpt>
      <trkpt lat="43.40394" lon="6.07388">
        <ele>220.19999694824</ele>
        <time>2016-11-30T15:20:59Z</time>
      </trkpt>
      <trkpt lat="43.40389" lon="6.07346">
        <ele>219.39999389648</ele>
        <time>2016-11-30T15:21:05Z</time>
      </trkpt>
      <trkpt lat="43.40387" lon="6.07332">
        <ele>219</ele>
        <time>2016-11-30T15:21:07Z</time>
      </trkpt>
      <trkpt lat="43.40384" lon="6.07311">
        <ele>218.60000610352</ele>
        <time>2016-11-30T15:21:10Z</time>
      </trkpt>
      <trkpt lat="43.40384" lon="6.07303">
        <ele>218.39999389648</ele>
        <time>2016-11-30T15:21:11Z</time>
      </trkpt>
      <trkpt lat="43.40386" lon="6.07291">
        <ele>218</ele>
        <time>2016-11-30T15:21:13Z</time>
      </trkpt>
      <trkpt lat="43.40389" lon="6.07286">
        <ele>217.80000305176</ele>
        <time>2016-11-30T15:21:14Z</time>
      </trkpt>
      <trkpt lat="43.40406" lon="6.0728">
        <ele>217</ele>
        <time>2016-11-30T15:21:19Z</time>
      </trkpt>
      <trkpt lat="43.4041" lon="6.07282">
        <ele>216.80000305176</ele>
        <time>2016-11-30T15:21:20Z</time>
      </trkpt>
      <trkpt lat="43.40415" lon="6.07283">
        <ele>216.60000610352</ele>
        <time>2016-11-30T15:21:21Z</time>
      </trkpt>
      <trkpt lat="43.40432" lon="6.07284">
        <ele>215.60000610352</ele>
        <time>2016-11-30T15:21:24Z</time>
      </trkpt>
      <trkpt lat="43.40458" lon="6.07282">
        <ele>214.39999389648</ele>
        <time>2016-11-30T15:21:28Z</time>
      </trkpt>
      <trkpt lat="43.40472" lon="6.07281">
        <ele>213.80000305176</ele>
        <time>2016-11-30T15:21:30Z</time>
      </trkpt>
      <trkpt lat="43.40486" lon="6.0728">
        <ele>213.19999694824</ele>
        <time>2016-11-30T15:21:32Z</time>
      </trkpt>
      <trkpt lat="43.40493" lon="6.0728">
        <ele>212.80000305176</ele>
        <time>2016-11-30T15:21:33Z</time>
      </trkpt>
      <trkpt lat="43.40504" lon="6.07284">
        <ele>212.39999389648</ele>
        <time>2016-11-30T15:21:35Z</time>
      </trkpt>
      <trkpt lat="43.40512" lon="6.07291">
        <ele>212</ele>
        <time>2016-11-30T15:21:37Z</time>
      </trkpt>
      <trkpt lat="43.40518" lon="6.07299">
        <ele>212</ele>
        <time>2016-11-30T15:21:39Z</time>
      </trkpt>
      <trkpt lat="43.40522" lon="6.073">
        <ele>212</ele>
        <time>2016-11-30T15:21:40Z</time>
      </trkpt>
      <trkpt lat="43.40532" lon="6.073">
        <ele>212.19999694824</ele>
        <time>2016-11-30T15:21:42Z</time>
      </trkpt>
      <trkpt lat="43.40546" lon="6.07302">
        <ele>211.80000305176</ele>
        <time>2016-11-30T15:21:46Z</time>
      </trkpt>
      <trkpt lat="43.40551" lon="6.07304">
        <ele>211.80000305176</ele>
        <time>2016-11-30T15:21:48Z</time>
      </trkpt>
      <trkpt lat="43.40554" lon="6.07305">
        <ele>211.80000305176</ele>
        <time>2016-11-30T15:21:50Z</time>
      </trkpt>
      <trkpt lat="43.40559" lon="6.07305">
        <ele>211.60000610352</ele>
        <time>2016-11-30T15:22:00Z</time>
      </trkpt>
      <trkpt lat="43.40559" lon="6.07305">
        <ele>211.60000610352</ele>
        <time>2016-11-30T15:22:06Z</time>
      </trkpt>
      <trkpt lat="43.40559" lon="6.07305">
        <ele>211.39999389648</ele>
        <time>2016-11-30T15:22:32Z</time>
      </trkpt>
      <trkpt lat="43.40563" lon="6.07305">
        <ele>211.39999389648</ele>
        <time>2016-11-30T15:22:35Z</time>
      </trkpt>
      <trkpt lat="43.40565" lon="6.07306">
        <ele>211.39999389648</ele>
        <time>2016-11-30T15:22:36Z</time>
      </trkpt>
      <trkpt lat="43.4058" lon="6.07304">
        <ele>211.39999389648</ele>
        <time>2016-11-30T15:22:40Z</time>
      </trkpt>
      <trkpt lat="43.40589" lon="6.073">
        <ele>211</ele>
        <time>2016-11-30T15:22:42Z</time>
      </trkpt>
      <trkpt lat="43.40593" lon="6.07299">
        <ele>211</ele>
        <time>2016-11-30T15:22:43Z</time>
      </trkpt>
      <trkpt lat="43.40603" lon="6.07303">
        <ele>210.39999389648</ele>
        <time>2016-11-30T15:22:45Z</time>
      </trkpt>
      <trkpt lat="43.40616" lon="6.0732">
        <ele>209.80000305176</ele>
        <time>2016-11-30T15:22:48Z</time>
      </trkpt>
      <trkpt lat="43.40623" lon="6.07334">
        <ele>209.60000610352</ele>
        <time>2016-11-30T15:22:50Z</time>
      </trkpt>
      <trkpt lat="43.40632" lon="6.07341">
        <ele>209.60000610352</ele>
        <time>2016-11-30T15:22:52Z</time>
      </trkpt>
      <trkpt lat="43.4064" lon="6.07334">
        <ele>209.19999694824</ele>
        <time>2016-11-30T15:22:54Z</time>
      </trkpt>
      <trkpt lat="43.40648" lon="6.07323">
        <ele>209</ele>
        <time>2016-11-30T15:22:56Z</time>
      </trkpt>
      <trkpt lat="43.40653" lon="6.07318">
        <ele>208.60000610352</ele>
        <time>2016-11-30T15:22:57Z</time>
      </trkpt>
      <trkpt lat="43.40658" lon="6.07315">
        <ele>208.60000610352</ele>
        <time>2016-11-30T15:22:58Z</time>
      </trkpt>
      <trkpt lat="43.4067" lon="6.07308">
        <ele>208</ele>
        <time>2016-11-30T15:23:00Z</time>
      </trkpt>
      <trkpt lat="43.40683" lon="6.073">
        <ele>207.39999389648</ele>
        <time>2016-11-30T15:23:02Z</time>
      </trkpt>
      <trkpt lat="43.40703" lon="6.07289">
        <ele>206.19999694824</ele>
        <time>2016-11-30T15:23:05Z</time>
      </trkpt>
      <trkpt lat="43.40732" lon="6.07272">
        <ele>204.80000305176</ele>
        <time>2016-11-30T15:23:09Z</time>
      </trkpt>
      <trkpt lat="43.40739" lon="6.07267">
        <ele>204.60000610352</ele>
        <time>2016-11-30T15:23:10Z</time>
      </trkpt>
      <trkpt lat="43.40762" lon="6.07255">
        <ele>204.60000610352</ele>
        <time>2016-11-30T15:23:13Z</time>
      </trkpt>
      <trkpt lat="43.4079" lon="6.07235">
        <ele>204.39999389648</ele>
        <time>2016-11-30T15:23:17Z</time>
      </trkpt>
      <trkpt lat="43.40797" lon="6.07228">
        <ele>204.19999694824</ele>
        <time>2016-11-30T15:23:18Z</time>
      </trkpt>
      <trkpt lat="43.40809" lon="6.07214">
        <ele>204</ele>
        <time>2016-11-30T15:23:20Z</time>
      </trkpt>
      <trkpt lat="43.4082" lon="6.07198">
        <ele>203.60000610352</ele>
        <time>2016-11-30T15:23:22Z</time>
      </trkpt>
      <trkpt lat="43.40847" lon="6.07125">
        <ele>203.80000305176</ele>
        <time>2016-11-30T15:23:30Z</time>
      </trkpt>
      <trkpt lat="43.40851" lon="6.07097">
        <ele>204</ele>
        <time>2016-11-30T15:23:33Z</time>
      </trkpt>
      <trkpt lat="43.40852" lon="6.07071">
        <ele>204.39999389648</ele>
        <time>2016-11-30T15:23:36Z</time>
      </trkpt>
      <trkpt lat="43.4085" lon="6.07048">
        <ele>204.60000610352</ele>
        <time>2016-11-30T15:23:39Z</time>
      </trkpt>
      <trkpt lat="43.40849" lon="6.07041">
        <ele>204.60000610352</ele>
        <time>2016-11-30T15:23:40Z</time>
      </trkpt>
      <trkpt lat="43.40847" lon="6.07022">
        <ele>204.60000610352</ele>
        <time>2016-11-30T15:23:43Z</time>
      </trkpt>
      <trkpt lat="43.40849" lon="6.07012">
        <ele>204.60000610352</ele>
        <time>2016-11-30T15:23:45Z</time>
      </trkpt>
      <trkpt lat="43.40857" lon="6.07008">
        <ele>204.39999389648</ele>
        <time>2016-11-30T15:23:47Z</time>
      </trkpt>
      <trkpt lat="43.4087" lon="6.07005">
        <ele>204.39999389648</ele>
        <time>2016-11-30T15:23:50Z</time>
      </trkpt>
      <trkpt lat="43.40892" lon="6.06999">
        <ele>204.80000305176</ele>
        <time>2016-11-30T15:23:55Z</time>
      </trkpt>
      <trkpt lat="43.40896" lon="6.06998">
        <ele>204.80000305176</ele>
        <time>2016-11-30T15:23:56Z</time>
      </trkpt>
      <trkpt lat="43.40904" lon="6.06992">
        <ele>204.60000610352</ele>
        <time>2016-11-30T15:23:58Z</time>
      </trkpt>
      <trkpt lat="43.40908" lon="6.06981">
        <ele>204.60000610352</ele>
        <time>2016-11-30T15:24:00Z</time>
      </trkpt>
      <trkpt lat="43.40911" lon="6.06963">
        <ele>204.60000610352</ele>
        <time>2016-11-30T15:24:03Z</time>
      </trkpt>
      <trkpt lat="43.40917" lon="6.06954">
        <ele>204.39999389648</ele>
        <time>2016-11-30T15:24:05Z</time>
      </trkpt>
      <trkpt lat="43.40926" lon="6.0695">
        <ele>204.39999389648</ele>
        <time>2016-11-30T15:24:07Z</time>
      </trkpt>
      <trkpt lat="43.4094" lon="6.06948">
        <ele>204.19999694824</ele>
        <time>2016-11-30T15:24:10Z</time>
      </trkpt>
      <trkpt lat="43.40988" lon="6.06932">
        <ele>204.19999694824</ele>
        <time>2016-11-30T15:24:20Z</time>
      </trkpt>
      <trkpt lat="43.41013" lon="6.06918">
        <ele>204.39999389648</ele>
        <time>2016-11-30T15:24:26Z</time>
      </trkpt>
      <trkpt lat="43.41018" lon="6.06908">
        <ele>204.60000610352</ele>
        <time>2016-11-30T15:24:28Z</time>
      </trkpt>
      <trkpt lat="43.41019" lon="6.06899">
        <ele>204.60000610352</ele>
        <time>2016-11-30T15:24:30Z</time>
      </trkpt>
      <trkpt lat="43.41047" lon="6.06877">
        <ele>205.39999389648</ele>
        <time>2016-11-30T15:24:40Z</time>
      </trkpt>
      <trkpt lat="43.4105" lon="6.06876">
        <ele>205.60000610352</ele>
        <time>2016-11-30T15:24:41Z</time>
      </trkpt>
      <trkpt lat="43.41061" lon="6.06873">
        <ele>206.39999389648</ele>
        <time>2016-11-30T15:24:50Z</time>
      </trkpt>
      <trkpt lat="43.41062" lon="6.06873">
        <ele>206.39999389648</ele>
        <time>2016-11-30T15:24:51Z</time>
      </trkpt>
      <trkpt lat="43.41066" lon="6.06867">
        <ele>206.19999694824</ele>
        <time>2016-11-30T15:24:54Z</time>
      </trkpt>
      <trkpt lat="43.41068" lon="6.06851">
        <ele>205.39999389648</ele>
        <time>2016-11-30T15:24:57Z</time>
      </trkpt>
      <trkpt lat="43.41072" lon="6.06836">
        <ele>204.80000305176</ele>
        <time>2016-11-30T15:25:00Z</time>
      </trkpt>
      <trkpt lat="43.41075" lon="6.06832">
        <ele>204.60000610352</ele>
        <time>2016-11-30T15:25:01Z</time>
      </trkpt>
      <trkpt lat="43.41086" lon="6.06786">
        <ele>204.39999389648</ele>
        <time>2016-11-30T15:25:10Z</time>
      </trkpt>
      <trkpt lat="43.41089" lon="6.06757">
        <ele>204.39999389648</ele>
        <time>2016-11-30T15:25:15Z</time>
      </trkpt>
      <trkpt lat="43.41102" lon="6.06741">
        <ele>204.39999389648</ele>
        <time>2016-11-30T15:25:20Z</time>
      </trkpt>
      <trkpt lat="43.41124" lon="6.06725">
        <ele>204.80000305176</ele>
        <time>2016-11-30T15:25:27Z</time>
      </trkpt>
      <trkpt lat="43.41135" lon="6.06721">
        <ele>204.39999389648</ele>
        <time>2016-11-30T15:25:30Z</time>
      </trkpt>
      <trkpt lat="43.41171" lon="6.0672">
        <ele>205.19999694824</ele>
        <time>2016-11-30T15:25:40Z</time>
      </trkpt>
      <trkpt lat="43.41184" lon="6.06722">
        <ele>205.19999694824</ele>
        <time>2016-11-30T15:25:44Z</time>
      </trkpt>
      <trkpt lat="43.41204" lon="6.06721">
        <ele>205.60000610352</ele>
        <time>2016-11-30T15:25:50Z</time>
      </trkpt>
      <trkpt lat="43.41212" lon="6.0672">
        <ele>205.60000610352</ele>
        <time>2016-11-30T15:25:53Z</time>
      </trkpt>
      <trkpt lat="43.41233" lon="6.06716">
        <ele>206.19999694824</ele>
        <time>2016-11-30T15:26:00Z</time>
      </trkpt>
      <trkpt lat="43.4124" lon="6.06715">
        <ele>206.80000305176</ele>
        <time>2016-11-30T15:26:03Z</time>
      </trkpt>
      <trkpt lat="43.41249" lon="6.06714">
        <ele>207.60000610352</ele>
        <time>2016-11-30T15:26:10Z</time>
      </trkpt>
      <trkpt lat="43.41249" lon="6.06714">
        <ele>207.80000305176</ele>
        <time>2016-11-30T15:26:13Z</time>
      </trkpt>
      <trkpt lat="43.41249" lon="6.06714">
        <ele>207.80000305176</ele>
        <time>2016-11-30T15:26:20Z</time>
      </trkpt>
      <trkpt lat="43.41249" lon="6.06714">
        <ele>208</ele>
        <time>2016-11-30T15:29:12Z</time>
      </trkpt>
      <trkpt lat="43.41255" lon="6.06719">
        <ele>208</ele>
        <time>2016-11-30T15:29:15Z</time>
      </trkpt>
      <trkpt lat="43.4126" lon="6.06725">
        <ele>207.80000305176</ele>
        <time>2016-11-30T15:29:17Z</time>
      </trkpt>
      <trkpt lat="43.41267" lon="6.06738">
        <ele>207.80000305176</ele>
        <time>2016-11-30T15:29:20Z</time>
      </trkpt>
      <trkpt lat="43.41273" lon="6.06749">
        <ele>208</ele>
        <time>2016-11-30T15:29:22Z</time>
      </trkpt>
      <trkpt lat="43.41277" lon="6.06755">
        <ele>208.19999694824</ele>
        <time>2016-11-30T15:29:23Z</time>
      </trkpt>
      <trkpt lat="43.41286" lon="6.06772">
        <ele>208.39999389648</ele>
        <time>2016-11-30T15:29:26Z</time>
      </trkpt>
      <trkpt lat="43.41295" lon="6.06786">
        <ele>209</ele>
        <time>2016-11-30T15:29:29Z</time>
      </trkpt>
      <trkpt lat="43.41298" lon="6.0679">
        <ele>209</ele>
        <time>2016-11-30T15:29:30Z</time>
      </trkpt>
      <trkpt lat="43.4132" lon="6.06809">
        <ele>209.39999389648</ele>
        <time>2016-11-30T15:29:36Z</time>
      </trkpt>
      <trkpt lat="43.41337" lon="6.06819">
        <ele>209.80000305176</ele>
        <time>2016-11-30T15:29:40Z</time>
      </trkpt>
      <trkpt lat="43.41341" lon="6.06821">
        <ele>210.19999694824</ele>
        <time>2016-11-30T15:29:41Z</time>
      </trkpt>
      <trkpt lat="43.4137" lon="6.06834">
        <ele>211</ele>
        <time>2016-11-30T15:29:48Z</time>
      </trkpt>
      <trkpt lat="43.41378" lon="6.06838">
        <ele>211.19999694824</ele>
        <time>2016-11-30T15:29:50Z</time>
      </trkpt>
      <trkpt lat="43.41404" lon="6.06862">
        <ele>210.39999389648</ele>
        <time>2016-11-30T15:29:57Z</time>
      </trkpt>
      <trkpt lat="43.41412" lon="6.06874">
        <ele>210.39999389648</ele>
        <time>2016-11-30T15:30:00Z</time>
      </trkpt>
      <trkpt lat="43.41415" lon="6.06881">
        <ele>210.39999389648</ele>
        <time>2016-11-30T15:30:04Z</time>
      </trkpt>
      <trkpt lat="43.41419" lon="6.069">
        <ele>210.80000305176</ele>
        <time>2016-11-30T15:30:10Z</time>
      </trkpt>
      <trkpt lat="43.4142" lon="6.06905">
        <ele>210.80000305176</ele>
        <time>2016-11-30T15:30:11Z</time>
      </trkpt>
      <trkpt lat="43.41426" lon="6.06915">
        <ele>210.80000305176</ele>
        <time>2016-11-30T15:30:13Z</time>
      </trkpt>
      <trkpt lat="43.41433" lon="6.06922">
        <ele>210.60000610352</ele>
        <time>2016-11-30T15:30:15Z</time>
      </trkpt>
      <trkpt lat="43.41442" lon="6.06926">
        <ele>210.60000610352</ele>
        <time>2016-11-30T15:30:17Z</time>
      </trkpt>
      <trkpt lat="43.4146" lon="6.06928">
        <ele>210.19999694824</ele>
        <time>2016-11-30T15:30:21Z</time>
      </trkpt>
      <trkpt lat="43.41468" lon="6.06935">
        <ele>210</ele>
        <time>2016-11-30T15:30:23Z</time>
      </trkpt>
      <trkpt lat="43.41476" lon="6.06943">
        <ele>209.80000305176</ele>
        <time>2016-11-30T15:30:25Z</time>
      </trkpt>
      <trkpt lat="43.41484" lon="6.06948">
        <ele>209.80000305176</ele>
        <time>2016-11-30T15:30:27Z</time>
      </trkpt>
      <trkpt lat="43.41492" lon="6.06959">
        <ele>210</ele>
        <time>2016-11-30T15:30:30Z</time>
      </trkpt>
      <trkpt lat="43.41523" lon="6.06976">
        <ele>210</ele>
        <time>2016-11-30T15:30:40Z</time>
      </trkpt>
      <trkpt lat="43.41546" lon="6.06975">
        <ele>210.39999389648</ele>
        <time>2016-11-30T15:30:47Z</time>
      </trkpt>
      <trkpt lat="43.41555" lon="6.06974">
        <ele>210.80000305176</ele>
        <time>2016-11-30T15:30:50Z</time>
      </trkpt>
      <trkpt lat="43.4157" lon="6.06976">
        <ele>211.19999694824</ele>
        <time>2016-11-30T15:30:55Z</time>
      </trkpt>
      <trkpt lat="43.41576" lon="6.06992">
        <ele>211</ele>
        <time>2016-11-30T15:30:59Z</time>
      </trkpt>
      <trkpt lat="43.41576" lon="6.06997">
        <ele>211</ele>
        <time>2016-11-30T15:31:00Z</time>
      </trkpt>
      <trkpt lat="43.4158" lon="6.07024">
        <ele>211.19999694824</ele>
        <time>2016-11-30T15:31:06Z</time>
      </trkpt>
      <trkpt lat="43.41582" lon="6.07035">
        <ele>211.19999694824</ele>
        <time>2016-11-30T15:31:09Z</time>
      </trkpt>
      <trkpt lat="43.41582" lon="6.07036">
        <ele>211.19999694824</ele>
        <time>2016-11-30T15:31:10Z</time>
      </trkpt>
      <trkpt lat="43.41582" lon="6.07037">
        <ele>211.39999389648</ele>
        <time>2016-11-30T15:31:13Z</time>
      </trkpt>
    </trkseg>
  </trk>
</gpx>